<?xml version='1.0' encoding='UTF-8'?><gpx version="1.1" creator="JPX - https://github.com/jenetics/jpx" xmlns="http://www.topografix.com/GPX/1/1"><trk><trkseg><trkpt lat="44.0603995" lon="12.4531883"><ele>38.0</ele><time>2026-04-19T08:10:10.381Z</time></trkpt><trkpt lat="44.0603747" lon="12.4531017"><ele>38.0</ele><time>2026-04-19T08:11:43.389Z</time></trkpt><trkpt lat="44.0603083" lon="12.4530993"><ele>38.0</ele><time>2026-04-19T08:11:48.388Z</time></trkpt><trkpt lat="44.0602635" lon="12.4531977"><ele>38.0</ele><time>2026-04-19T08:11:51.384Z</time></trkpt><trkpt lat="44.0602234" lon="12.4532886"><ele>38.0</ele><time>2026-04-19T08:11:53.388Z</time></trkpt><trkpt lat="44.0601742" lon="12.4533956"><ele>38.0</ele><time>2026-04-19T08:11:55.389Z</time></trkpt><trkpt lat="44.0601352" lon="12.4534991"><ele>38.0</ele><time>2026-04-19T08:11:57.385Z</time></trkpt><trkpt lat="44.0600747" lon="12.4535629"><ele>38.0</ele><time>2026-04-19T08:11:59.384Z</time></trkpt><trkpt lat="44.0599754" lon="12.4535809"><ele>38.0</ele><time>2026-04-19T08:12:01.384Z</time></trkpt><trkpt lat="44.0598709" lon="12.4535342"><ele>38.0</ele><time>2026-04-19T08:12:03.389Z</time></trkpt><trkpt lat="44.0597568" lon="12.4534426"><ele>38.0</ele><time>2026-04-19T08:12:05.385Z</time></trkpt><trkpt lat="44.0596983" lon="12.4533802"><ele>38.33333333333333</ele><time>2026-04-19T08:12:06.385Z</time></trkpt><trkpt lat="44.059635" lon="12.4533156"><ele>38.666666666666664</ele><time>2026-04-19T08:12:07.385Z</time></trkpt><trkpt lat="44.0595769" lon="12.4532527"><ele>39.0</ele><time>2026-04-19T08:12:08.392Z</time></trkpt><trkpt lat="44.0595047" lon="12.453186"><ele>39.333333333333336</ele><time>2026-04-19T08:12:09.383Z</time></trkpt><trkpt lat="44.0594377" lon="12.4531212"><ele>39.66666666666667</ele><time>2026-04-19T08:12:10.39Z</time></trkpt><trkpt lat="44.0593664" lon="12.4530495"><ele>40.0</ele><time>2026-04-19T08:12:11.382Z</time></trkpt><trkpt lat="44.0592957" lon="12.4529697"><ele>40.16666666666667</ele><time>2026-04-19T08:12:12.383Z</time></trkpt><trkpt lat="44.0592248" lon="12.4528902"><ele>40.333333333333336</ele><time>2026-04-19T08:12:13.385Z</time></trkpt><trkpt lat="44.0591521" lon="12.4528232"><ele>40.5</ele><time>2026-04-19T08:12:14.384Z</time></trkpt><trkpt lat="44.0590847" lon="12.4527503"><ele>40.666666666666664</ele><time>2026-04-19T08:12:15.387Z</time></trkpt><trkpt lat="44.0590156" lon="12.4526818"><ele>40.83333333333333</ele><time>2026-04-19T08:12:16.383Z</time></trkpt><trkpt lat="44.0589425" lon="12.4526128"><ele>41.0</ele><time>2026-04-19T08:12:17.383Z</time></trkpt><trkpt lat="44.058868" lon="12.4525348"><ele>40.666666666666664</ele><time>2026-04-19T08:12:18.391Z</time></trkpt><trkpt lat="44.0587968" lon="12.4524591"><ele>40.33333333333333</ele><time>2026-04-19T08:12:19.383Z</time></trkpt><trkpt lat="44.0587306" lon="12.4523966"><ele>40.0</ele><time>2026-04-19T08:12:20.38Z</time></trkpt><trkpt lat="44.0586697" lon="12.4523376"><ele>39.666666666666664</ele><time>2026-04-19T08:12:21.386Z</time></trkpt><trkpt lat="44.058617" lon="12.4522748"><ele>39.333333333333336</ele><time>2026-04-19T08:12:22.387Z</time></trkpt><trkpt lat="44.0585571" lon="12.452213"><ele>39.0</ele><time>2026-04-19T08:12:23.388Z</time></trkpt><trkpt lat="44.0584926" lon="12.4521447"><ele>39.166666666666664</ele><time>2026-04-19T08:12:24.385Z</time></trkpt><trkpt lat="44.0584292" lon="12.4520659"><ele>39.333333333333336</ele><time>2026-04-19T08:12:25.39Z</time></trkpt><trkpt lat="44.0583734" lon="12.4519747"><ele>39.5</ele><time>2026-04-19T08:12:26.385Z</time></trkpt><trkpt lat="44.0583386" lon="12.4518671"><ele>39.66666666666667</ele><time>2026-04-19T08:12:27.388Z</time></trkpt><trkpt lat="44.0583179" lon="12.4517517"><ele>39.833333333333336</ele><time>2026-04-19T08:12:28.384Z</time></trkpt><trkpt lat="44.058308" lon="12.4516346"><ele>40.0</ele><time>2026-04-19T08:12:29.384Z</time></trkpt><trkpt lat="44.0583036" lon="12.451527"><ele>39.66666666666667</ele><time>2026-04-19T08:12:30.392Z</time></trkpt><trkpt lat="44.0582832" lon="12.4513845"><ele>39.333333333333336</ele><time>2026-04-19T08:12:32.385Z</time></trkpt><trkpt lat="44.0582105" lon="12.4513132"><ele>39.0</ele><time>2026-04-19T08:12:35.385Z</time></trkpt><trkpt lat="44.0581461" lon="12.4512928"><ele>38.666666666666664</ele><time>2026-04-19T08:12:36.387Z</time></trkpt><trkpt lat="44.0580656" lon="12.4512891"><ele>38.33333333333333</ele><time>2026-04-19T08:12:37.386Z</time></trkpt><trkpt lat="44.0579755" lon="12.4512957"><ele>38.0</ele><time>2026-04-19T08:12:38.381Z</time></trkpt><trkpt lat="44.0578788" lon="12.4513078"><ele>38.0</ele><time>2026-04-19T08:12:39.388Z</time></trkpt><trkpt lat="44.0577745" lon="12.4513269"><ele>38.0</ele><time>2026-04-19T08:12:40.381Z</time></trkpt><trkpt lat="44.0576689" lon="12.4513472"><ele>38.0</ele><time>2026-04-19T08:12:41.386Z</time></trkpt><trkpt lat="44.0575581" lon="12.4513647"><ele>38.0</ele><time>2026-04-19T08:12:42.382Z</time></trkpt><trkpt lat="44.0574412" lon="12.451374"><ele>38.0</ele><time>2026-04-19T08:12:43.39Z</time></trkpt><trkpt lat="44.0573237" lon="12.4513811"><ele>38.25</ele><time>2026-04-19T08:12:44.383Z</time></trkpt><trkpt lat="44.0572061" lon="12.4513816"><ele>38.5</ele><time>2026-04-19T08:12:45.386Z</time></trkpt><trkpt lat="44.0570842" lon="12.451394"><ele>38.75</ele><time>2026-04-19T08:12:46.383Z</time></trkpt><trkpt lat="44.0569593" lon="12.4514066"><ele>39.0</ele><time>2026-04-19T08:12:47.387Z</time></trkpt><trkpt lat="44.0568322" lon="12.4514199"><ele>39.0</ele><time>2026-04-19T08:12:48.388Z</time></trkpt><trkpt lat="44.0567127" lon="12.4514268"><ele>39.0</ele><time>2026-04-19T08:12:49.387Z</time></trkpt><trkpt lat="44.056593" lon="12.451438"><ele>39.0</ele><time>2026-04-19T08:12:50.385Z</time></trkpt><trkpt lat="44.0564749" lon="12.451449"><ele>39.0</ele><time>2026-04-19T08:12:51.382Z</time></trkpt><trkpt lat="44.0563565" lon="12.451462"><ele>39.25</ele><time>2026-04-19T08:12:52.389Z</time></trkpt><trkpt lat="44.0562354" lon="12.4514737"><ele>39.5</ele><time>2026-04-19T08:12:53.38Z</time></trkpt><trkpt lat="44.0561118" lon="12.4514787"><ele>39.75</ele><time>2026-04-19T08:12:54.385Z</time></trkpt><trkpt lat="44.0559862" lon="12.4514851"><ele>40.0</ele><time>2026-04-19T08:12:55.385Z</time></trkpt><trkpt lat="44.0558562" lon="12.4514946"><ele>40.25</ele><time>2026-04-19T08:12:56.383Z</time></trkpt><trkpt lat="44.0557269" lon="12.4515062"><ele>40.5</ele><time>2026-04-19T08:12:57.383Z</time></trkpt><trkpt lat="44.0555989" lon="12.4515154"><ele>40.75</ele><time>2026-04-19T08:12:58.386Z</time></trkpt><trkpt lat="44.0554688" lon="12.4515226"><ele>41.0</ele><time>2026-04-19T08:12:59.385Z</time></trkpt><trkpt lat="44.0553397" lon="12.4515304"><ele>41.0</ele><time>2026-04-19T08:13:00.388Z</time></trkpt><trkpt lat="44.0552079" lon="12.4515422"><ele>41.0</ele><time>2026-04-19T08:13:01.382Z</time></trkpt><trkpt lat="44.0550793" lon="12.4515555"><ele>41.0</ele><time>2026-04-19T08:13:02.385Z</time></trkpt><trkpt lat="44.0549474" lon="12.4515666"><ele>41.0</ele><time>2026-04-19T08:13:03.387Z</time></trkpt><trkpt lat="44.0548178" lon="12.4515719"><ele>41.0</ele><time>2026-04-19T08:13:04.385Z</time></trkpt><trkpt lat="44.0546879" lon="12.4515879"><ele>41.0</ele><time>2026-04-19T08:13:05.384Z</time></trkpt><trkpt lat="44.0545567" lon="12.4516009"><ele>41.0</ele><time>2026-04-19T08:13:06.386Z</time></trkpt><trkpt lat="44.0544239" lon="12.4516123"><ele>41.0</ele><time>2026-04-19T08:13:07.39Z</time></trkpt><trkpt lat="44.0542946" lon="12.4516185"><ele>41.0</ele><time>2026-04-19T08:13:08.384Z</time></trkpt><trkpt lat="44.054163" lon="12.4516304"><ele>41.0</ele><time>2026-04-19T08:13:09.386Z</time></trkpt><trkpt lat="44.0540296" lon="12.4516447"><ele>41.0</ele><time>2026-04-19T08:13:10.381Z</time></trkpt><trkpt lat="44.0538956" lon="12.4516544"><ele>41.0</ele><time>2026-04-19T08:13:11.382Z</time></trkpt><trkpt lat="44.0537605" lon="12.451663"><ele>41.0</ele><time>2026-04-19T08:13:12.383Z</time></trkpt><trkpt lat="44.0536246" lon="12.4516754"><ele>41.0</ele><time>2026-04-19T08:13:13.383Z</time></trkpt><trkpt lat="44.0534871" lon="12.4516825"><ele>41.0</ele><time>2026-04-19T08:13:14.384Z</time></trkpt><trkpt lat="44.0533539" lon="12.4516941"><ele>41.0</ele><time>2026-04-19T08:13:15.382Z</time></trkpt><trkpt lat="44.0532194" lon="12.451706"><ele>40.75</ele><time>2026-04-19T08:13:16.382Z</time></trkpt><trkpt lat="44.053089" lon="12.4517147"><ele>40.5</ele><time>2026-04-19T08:13:17.383Z</time></trkpt><trkpt lat="44.0529545" lon="12.451724"><ele>40.25</ele><time>2026-04-19T08:13:18.383Z</time></trkpt><trkpt lat="44.0528205" lon="12.451732"><ele>40.0</ele><time>2026-04-19T08:13:19.389Z</time></trkpt><trkpt lat="44.0526843" lon="12.4517444"><ele>40.0</ele><time>2026-04-19T08:13:20.383Z</time></trkpt><trkpt lat="44.0525498" lon="12.4517531"><ele>40.0</ele><time>2026-04-19T08:13:21.381Z</time></trkpt><trkpt lat="44.0524179" lon="12.4517585"><ele>40.0</ele><time>2026-04-19T08:13:22.381Z</time></trkpt><trkpt lat="44.0522812" lon="12.4517651"><ele>40.0</ele><time>2026-04-19T08:13:23.387Z</time></trkpt><trkpt lat="44.0521492" lon="12.4517679"><ele>40.25</ele><time>2026-04-19T08:13:24.383Z</time></trkpt><trkpt lat="44.0520165" lon="12.4517708"><ele>40.5</ele><time>2026-04-19T08:13:25.381Z</time></trkpt><trkpt lat="44.051887" lon="12.4517764"><ele>40.75</ele><time>2026-04-19T08:13:26.386Z</time></trkpt><trkpt lat="44.051757" lon="12.4517821"><ele>41.0</ele><time>2026-04-19T08:13:27.384Z</time></trkpt><trkpt lat="44.051623" lon="12.4517872"><ele>40.5</ele><time>2026-04-19T08:13:28.387Z</time></trkpt><trkpt lat="44.0514935" lon="12.451791"><ele>40.0</ele><time>2026-04-19T08:13:29.385Z</time></trkpt><trkpt lat="44.0513731" lon="12.4517979"><ele>39.5</ele><time>2026-04-19T08:13:30.386Z</time></trkpt><trkpt lat="44.051258" lon="12.4518028"><ele>39.0</ele><time>2026-04-19T08:13:31.388Z</time></trkpt><trkpt lat="44.051151" lon="12.4518081"><ele>39.0</ele><time>2026-04-19T08:13:32.386Z</time></trkpt><trkpt lat="44.051051" lon="12.4518047"><ele>39.0</ele><time>2026-04-19T08:13:33.382Z</time></trkpt><trkpt lat="44.0509598" lon="12.4517791"><ele>39.0</ele><time>2026-04-19T08:13:34.387Z</time></trkpt><trkpt lat="44.0508815" lon="12.4517199"><ele>39.0</ele><time>2026-04-19T08:13:35.38Z</time></trkpt><trkpt lat="44.0508059" lon="12.45166"><ele>39.0</ele><time>2026-04-19T08:13:36.385Z</time></trkpt><trkpt lat="44.0507245" lon="12.4516262"><ele>39.2</ele><time>2026-04-19T08:13:37.383Z</time></trkpt><trkpt lat="44.0506385" lon="12.4516376"><ele>39.4</ele><time>2026-04-19T08:13:38.385Z</time></trkpt><trkpt lat="44.0505493" lon="12.4516918"><ele>39.6</ele><time>2026-04-19T08:13:39.387Z</time></trkpt><trkpt lat="44.0504581" lon="12.4517606"><ele>39.8</ele><time>2026-04-19T08:13:40.381Z</time></trkpt><trkpt lat="44.0503554" lon="12.4518086"><ele>40.0</ele><time>2026-04-19T08:13:41.386Z</time></trkpt><trkpt lat="44.050236" lon="12.4518276"><ele>40.0</ele><time>2026-04-19T08:13:42.384Z</time></trkpt><trkpt lat="44.0501168" lon="12.4518373"><ele>40.0</ele><time>2026-04-19T08:13:43.389Z</time></trkpt><trkpt lat="44.0499897" lon="12.4518399"><ele>40.0</ele><time>2026-04-19T08:13:44.384Z</time></trkpt><trkpt lat="44.0498564" lon="12.4518429"><ele>40.0</ele><time>2026-04-19T08:13:45.385Z</time></trkpt><trkpt lat="44.0497255" lon="12.4518505"><ele>41.0</ele><time>2026-04-19T08:13:46.385Z</time></trkpt><trkpt lat="44.0495847" lon="12.4518607"><ele>42.0</ele><time>2026-04-19T08:13:47.381Z</time></trkpt><trkpt lat="44.0494442" lon="12.4518676"><ele>43.0</ele><time>2026-04-19T08:13:48.382Z</time></trkpt><trkpt lat="44.0493159" lon="12.4518737"><ele>44.0</ele><time>2026-04-19T08:13:49.381Z</time></trkpt><trkpt lat="44.0491955" lon="12.4518766"><ele>43.6</ele><time>2026-04-19T08:13:50.38Z</time></trkpt><trkpt lat="44.0490819" lon="12.4518811"><ele>43.2</ele><time>2026-04-19T08:13:51.384Z</time></trkpt><trkpt lat="44.0489788" lon="12.4518904"><ele>42.800000000000004</ele><time>2026-04-19T08:13:52.382Z</time></trkpt><trkpt lat="44.0488717" lon="12.4519056"><ele>42.400000000000006</ele><time>2026-04-19T08:13:53.384Z</time></trkpt><trkpt lat="44.0487552" lon="12.4519194"><ele>42.0</ele><time>2026-04-19T08:13:54.383Z</time></trkpt><trkpt lat="44.0486371" lon="12.4519461"><ele>42.0</ele><time>2026-04-19T08:13:55.38Z</time></trkpt><trkpt lat="44.0485231" lon="12.4519899"><ele>42.0</ele><time>2026-04-19T08:13:56.381Z</time></trkpt><trkpt lat="44.048403" lon="12.4520422"><ele>42.0</ele><time>2026-04-19T08:13:57.384Z</time></trkpt><trkpt lat="44.0482799" lon="12.4520955"><ele>42.0</ele><time>2026-04-19T08:13:58.386Z</time></trkpt><trkpt lat="44.048154" lon="12.452158"><ele>42.0</ele><time>2026-04-19T08:13:59.384Z</time></trkpt><trkpt lat="44.0480287" lon="12.4522282"><ele>42.0</ele><time>2026-04-19T08:14:00.385Z</time></trkpt><trkpt lat="44.0479048" lon="12.4523087"><ele>42.0</ele><time>2026-04-19T08:14:01.388Z</time></trkpt><trkpt lat="44.0477814" lon="12.4524054"><ele>42.0</ele><time>2026-04-19T08:14:02.382Z</time></trkpt><trkpt lat="44.0476591" lon="12.4525096"><ele>42.0</ele><time>2026-04-19T08:14:03.381Z</time></trkpt><trkpt lat="44.0475402" lon="12.4526162"><ele>42.0</ele><time>2026-04-19T08:14:04.388Z</time></trkpt><trkpt lat="44.0474179" lon="12.4527242"><ele>42.0</ele><time>2026-04-19T08:14:05.381Z</time></trkpt><trkpt lat="44.0472963" lon="12.4528325"><ele>42.0</ele><time>2026-04-19T08:14:06.383Z</time></trkpt><trkpt lat="44.0471726" lon="12.4529425"><ele>41.0</ele><time>2026-04-19T08:14:07.384Z</time></trkpt><trkpt lat="44.0470494" lon="12.4530498"><ele>40.0</ele><time>2026-04-19T08:14:08.387Z</time></trkpt><trkpt lat="44.0469267" lon="12.4531634"><ele>39.0</ele><time>2026-04-19T08:14:09.386Z</time></trkpt><trkpt lat="44.0468042" lon="12.4532757"><ele>38.0</ele><time>2026-04-19T08:14:10.385Z</time></trkpt><trkpt lat="44.0466798" lon="12.4533872"><ele>38.0</ele><time>2026-04-19T08:14:11.386Z</time></trkpt><trkpt lat="44.0465543" lon="12.4534985"><ele>38.0</ele><time>2026-04-19T08:14:12.383Z</time></trkpt><trkpt lat="44.0464288" lon="12.4536115"><ele>38.0</ele><time>2026-04-19T08:14:13.38Z</time></trkpt><trkpt lat="44.0463039" lon="12.4537267"><ele>38.0</ele><time>2026-04-19T08:14:14.384Z</time></trkpt><trkpt lat="44.0461774" lon="12.4538438"><ele>38.0</ele><time>2026-04-19T08:14:15.384Z</time></trkpt><trkpt lat="44.0460486" lon="12.4539611"><ele>38.0</ele><time>2026-04-19T08:14:16.385Z</time></trkpt><trkpt lat="44.0459195" lon="12.454078"><ele>38.0</ele><time>2026-04-19T08:14:17.386Z</time></trkpt><trkpt lat="44.0457899" lon="12.4541937"><ele>38.666666666666664</ele><time>2026-04-19T08:14:18.384Z</time></trkpt><trkpt lat="44.0456598" lon="12.4543086"><ele>39.333333333333336</ele><time>2026-04-19T08:14:19.392Z</time></trkpt><trkpt lat="44.0455289" lon="12.4544252"><ele>40.0</ele><time>2026-04-19T08:14:20.38Z</time></trkpt><trkpt lat="44.0453965" lon="12.4545419"><ele>40.333333333333336</ele><time>2026-04-19T08:14:21.384Z</time></trkpt><trkpt lat="44.0452658" lon="12.4546604"><ele>40.666666666666664</ele><time>2026-04-19T08:14:22.385Z</time></trkpt><trkpt lat="44.0451352" lon="12.4547749"><ele>41.0</ele><time>2026-04-19T08:14:23.385Z</time></trkpt><trkpt lat="44.0450062" lon="12.454893"><ele>41.5</ele><time>2026-04-19T08:14:24.385Z</time></trkpt><trkpt lat="44.0448822" lon="12.455004"><ele>42.0</ele><time>2026-04-19T08:14:25.385Z</time></trkpt><trkpt lat="44.0447629" lon="12.4551102"><ele>42.5</ele><time>2026-04-19T08:14:26.389Z</time></trkpt><trkpt lat="44.0446585" lon="12.4552008"><ele>43.0</ele><time>2026-04-19T08:14:27.386Z</time></trkpt><trkpt lat="44.0445626" lon="12.4552858"><ele>43.0</ele><time>2026-04-19T08:14:28.387Z</time></trkpt><trkpt lat="44.0444819" lon="12.4553605"><ele>43.0</ele><time>2026-04-19T08:14:29.384Z</time></trkpt><trkpt lat="44.0444121" lon="12.4554106"><ele>43.0</ele><time>2026-04-19T08:14:30.388Z</time></trkpt><trkpt lat="44.0443415" lon="12.455439"><ele>43.0</ele><time>2026-04-19T08:14:32.385Z</time></trkpt><trkpt lat="44.04428" lon="12.4553845"><ele>43.0</ele><time>2026-04-19T08:14:36.38Z</time></trkpt><trkpt lat="44.0442309" lon="12.4552863"><ele>43.0</ele><time>2026-04-19T08:14:38.382Z</time></trkpt><trkpt lat="44.0441638" lon="12.4551717"><ele>42.599999999999994</ele><time>2026-04-19T08:14:40.383Z</time></trkpt><trkpt lat="44.0440853" lon="12.4550548"><ele>42.199999999999996</ele><time>2026-04-19T08:14:42.384Z</time></trkpt><trkpt lat="44.044022" lon="12.4549654"><ele>41.8</ele><time>2026-04-19T08:14:44.384Z</time></trkpt><trkpt lat="44.0439633" lon="12.4548824"><ele>41.4</ele><time>2026-04-19T08:14:46.383Z</time></trkpt><trkpt lat="44.0439088" lon="12.4547794"><ele>41.0</ele><time>2026-04-19T08:14:48.393Z</time></trkpt><trkpt lat="44.0438454" lon="12.454671"><ele>41.4</ele><time>2026-04-19T08:14:50.381Z</time></trkpt><trkpt lat="44.0437561" lon="12.454564"><ele>41.8</ele><time>2026-04-19T08:14:52.386Z</time></trkpt><trkpt lat="44.0436566" lon="12.4544439"><ele>42.199999999999996</ele><time>2026-04-19T08:14:54.384Z</time></trkpt><trkpt lat="44.0436044" lon="12.4543737"><ele>42.599999999999994</ele><time>2026-04-19T08:14:55.386Z</time></trkpt><trkpt lat="44.0435527" lon="12.4542997"><ele>43.0</ele><time>2026-04-19T08:14:56.387Z</time></trkpt><trkpt lat="44.0435009" lon="12.4542342"><ele>43.0</ele><time>2026-04-19T08:14:57.384Z</time></trkpt><trkpt lat="44.0434491" lon="12.4541735"><ele>43.0</ele><time>2026-04-19T08:14:58.383Z</time></trkpt><trkpt lat="44.0434004" lon="12.4541126"><ele>43.0</ele><time>2026-04-19T08:14:59.388Z</time></trkpt><trkpt lat="44.0433583" lon="12.4540442"><ele>43.0</ele><time>2026-04-19T08:15:00.387Z</time></trkpt><trkpt lat="44.0433163" lon="12.453976"><ele>43.0</ele><time>2026-04-19T08:15:01.383Z</time></trkpt><trkpt lat="44.0432559" lon="12.4538274"><ele>43.0</ele><time>2026-04-19T08:15:03.383Z</time></trkpt><trkpt lat="44.043224" lon="12.4536783"><ele>43.0</ele><time>2026-04-19T08:15:05.388Z</time></trkpt><trkpt lat="44.0432067" lon="12.4535222"><ele>43.0</ele><time>2026-04-19T08:15:07.384Z</time></trkpt><trkpt lat="44.043193" lon="12.4533841"><ele>43.0</ele><time>2026-04-19T08:15:09.388Z</time></trkpt><trkpt lat="44.0431641" lon="12.4532599"><ele>43.0</ele><time>2026-04-19T08:15:11.39Z</time></trkpt><trkpt lat="44.043093" lon="12.4531547"><ele>43.0</ele><time>2026-04-19T08:15:13.383Z</time></trkpt><trkpt lat="44.0429835" lon="12.453121"><ele>43.0</ele><time>2026-04-19T08:15:15.388Z</time></trkpt><trkpt lat="44.0428809" lon="12.4530388"><ele>43.0</ele><time>2026-04-19T08:15:17.383Z</time></trkpt><trkpt lat="44.0428007" lon="12.4529136"><ele>43.0</ele><time>2026-04-19T08:15:19.385Z</time></trkpt><trkpt lat="44.0427226" lon="12.4527724"><ele>43.0</ele><time>2026-04-19T08:15:21.382Z</time></trkpt><trkpt lat="44.0426776" lon="12.4527038"><ele>43.0</ele><time>2026-04-19T08:15:22.384Z</time></trkpt><trkpt lat="44.0426327" lon="12.4526336"><ele>43.00000000000001</ele><time>2026-04-19T08:15:23.383Z</time></trkpt><trkpt lat="44.0425889" lon="12.4525637"><ele>43.0</ele><time>2026-04-19T08:15:24.385Z</time></trkpt><trkpt lat="44.0425411" lon="12.4524898"><ele>43.0</ele><time>2026-04-19T08:15:25.387Z</time></trkpt><trkpt lat="44.0424948" lon="12.4524167"><ele>43.0</ele><time>2026-04-19T08:15:26.386Z</time></trkpt><trkpt lat="44.0424466" lon="12.4523405"><ele>43.0</ele><time>2026-04-19T08:15:27.384Z</time></trkpt><trkpt lat="44.0423965" lon="12.4522697"><ele>43.00000000000001</ele><time>2026-04-19T08:15:28.384Z</time></trkpt><trkpt lat="44.0423478" lon="12.4521987"><ele>43.0</ele><time>2026-04-19T08:15:29.383Z</time></trkpt><trkpt lat="44.0422945" lon="12.4521334"><ele>43.00000000000001</ele><time>2026-04-19T08:15:30.389Z</time></trkpt><trkpt lat="44.0422418" lon="12.4520708"><ele>43.0</ele><time>2026-04-19T08:15:31.384Z</time></trkpt><trkpt lat="44.0421874" lon="12.452015"><ele>43.0</ele><time>2026-04-19T08:15:32.386Z</time></trkpt><trkpt lat="44.0421302" lon="12.4519644"><ele>43.0</ele><time>2026-04-19T08:15:33.388Z</time></trkpt><trkpt lat="44.042073" lon="12.4519108"><ele>43.0</ele><time>2026-04-19T08:15:34.383Z</time></trkpt><trkpt lat="44.0420122" lon="12.4518608"><ele>43.00000000000001</ele><time>2026-04-19T08:15:35.385Z</time></trkpt><trkpt lat="44.0419545" lon="12.4518134"><ele>43.0</ele><time>2026-04-19T08:15:36.388Z</time></trkpt><trkpt lat="44.0418934" lon="12.4517658"><ele>43.00000000000001</ele><time>2026-04-19T08:15:37.383Z</time></trkpt><trkpt lat="44.0418321" lon="12.451721"><ele>43.0</ele><time>2026-04-19T08:15:38.382Z</time></trkpt><trkpt lat="44.0417708" lon="12.4516754"><ele>43.0</ele><time>2026-04-19T08:15:39.385Z</time></trkpt><trkpt lat="44.041714" lon="12.4516336"><ele>43.0</ele><time>2026-04-19T08:15:40.382Z</time></trkpt><trkpt lat="44.0416496" lon="12.4515925"><ele>43.0</ele><time>2026-04-19T08:15:41.384Z</time></trkpt><trkpt lat="44.0415881" lon="12.4515513"><ele>43.00000000000001</ele><time>2026-04-19T08:15:42.391Z</time></trkpt><trkpt lat="44.0415235" lon="12.4515157"><ele>43.0</ele><time>2026-04-19T08:15:43.383Z</time></trkpt><trkpt lat="44.0414604" lon="12.4514794"><ele>42.85714285714286</ele><time>2026-04-19T08:15:44.388Z</time></trkpt><trkpt lat="44.0413965" lon="12.4514426"><ele>42.714285714285715</ele><time>2026-04-19T08:15:45.392Z</time></trkpt><trkpt lat="44.0413294" lon="12.4514151"><ele>42.57142857142857</ele><time>2026-04-19T08:15:46.388Z</time></trkpt><trkpt lat="44.0412653" lon="12.4513884"><ele>42.42857142857143</ele><time>2026-04-19T08:15:47.382Z</time></trkpt><trkpt lat="44.0411983" lon="12.4513576"><ele>42.285714285714285</ele><time>2026-04-19T08:15:48.384Z</time></trkpt><trkpt lat="44.0411247" lon="12.4513295"><ele>42.142857142857146</ele><time>2026-04-19T08:15:49.383Z</time></trkpt><trkpt lat="44.0410522" lon="12.4513076"><ele>42.0</ele><time>2026-04-19T08:15:50.385Z</time></trkpt><trkpt lat="44.0409809" lon="12.4512817"><ele>42.166666666666664</ele><time>2026-04-19T08:15:51.385Z</time></trkpt><trkpt lat="44.0409107" lon="12.4512549"><ele>42.333333333333336</ele><time>2026-04-19T08:15:52.387Z</time></trkpt><trkpt lat="44.0408405" lon="12.4512315"><ele>42.5</ele><time>2026-04-19T08:15:53.387Z</time></trkpt><trkpt lat="44.0407647" lon="12.4512077"><ele>42.66666666666667</ele><time>2026-04-19T08:15:54.381Z</time></trkpt><trkpt lat="44.0406928" lon="12.4511871"><ele>42.833333333333336</ele><time>2026-04-19T08:15:55.389Z</time></trkpt><trkpt lat="44.0406176" lon="12.4511607"><ele>43.0</ele><time>2026-04-19T08:15:56.38Z</time></trkpt><trkpt lat="44.0405422" lon="12.4511311"><ele>43.0</ele><time>2026-04-19T08:15:57.382Z</time></trkpt><trkpt lat="44.0404669" lon="12.451105"><ele>43.0</ele><time>2026-04-19T08:15:58.387Z</time></trkpt><trkpt lat="44.0403949" lon="12.4510735"><ele>43.0</ele><time>2026-04-19T08:15:59.387Z</time></trkpt><trkpt lat="44.0403246" lon="12.4510347"><ele>43.0</ele><time>2026-04-19T08:16:00.389Z</time></trkpt><trkpt lat="44.0402614" lon="12.4509816"><ele>43.0</ele><time>2026-04-19T08:16:01.386Z</time></trkpt><trkpt lat="44.0402018" lon="12.4509219"><ele>43.0</ele><time>2026-04-19T08:16:02.387Z</time></trkpt><trkpt lat="44.0401445" lon="12.4508545"><ele>43.0</ele><time>2026-04-19T08:16:03.385Z</time></trkpt><trkpt lat="44.0400899" lon="12.4507865"><ele>43.0</ele><time>2026-04-19T08:16:04.386Z</time></trkpt><trkpt lat="44.0400374" lon="12.4507128"><ele>43.0</ele><time>2026-04-19T08:16:05.389Z</time></trkpt><trkpt lat="44.0399819" lon="12.450635"><ele>43.0</ele><time>2026-04-19T08:16:06.385Z</time></trkpt><trkpt lat="44.0399297" lon="12.450558"><ele>43.0</ele><time>2026-04-19T08:16:07.381Z</time></trkpt><trkpt lat="44.0398737" lon="12.4504839"><ele>43.0</ele><time>2026-04-19T08:16:08.387Z</time></trkpt><trkpt lat="44.039819" lon="12.4504103"><ele>43.42857142857143</ele><time>2026-04-19T08:16:09.38Z</time></trkpt><trkpt lat="44.0397676" lon="12.4503351"><ele>43.85714285714286</ele><time>2026-04-19T08:16:10.383Z</time></trkpt><trkpt lat="44.0397171" lon="12.4502567"><ele>44.28571428571429</ele><time>2026-04-19T08:16:11.387Z</time></trkpt><trkpt lat="44.0396691" lon="12.4501784"><ele>44.714285714285715</ele><time>2026-04-19T08:16:12.38Z</time></trkpt><trkpt lat="44.0396214" lon="12.4500959"><ele>45.14285714285714</ele><time>2026-04-19T08:16:13.385Z</time></trkpt><trkpt lat="44.0395737" lon="12.4500174"><ele>45.57142857142858</ele><time>2026-04-19T08:16:14.392Z</time></trkpt><trkpt lat="44.0395246" lon="12.4499394"><ele>46.0</ele><time>2026-04-19T08:16:15.382Z</time></trkpt><trkpt lat="44.0394768" lon="12.4498586"><ele>46.0</ele><time>2026-04-19T08:16:16.388Z</time></trkpt><trkpt lat="44.0394318" lon="12.4497836"><ele>46.0</ele><time>2026-04-19T08:16:17.384Z</time></trkpt><trkpt lat="44.039383" lon="12.449703"><ele>46.0</ele><time>2026-04-19T08:16:18.381Z</time></trkpt><trkpt lat="44.0393355" lon="12.4496251"><ele>46.0</ele><time>2026-04-19T08:16:19.381Z</time></trkpt><trkpt lat="44.0392898" lon="12.449544"><ele>46.0</ele><time>2026-04-19T08:16:20.387Z</time></trkpt><trkpt lat="44.0392436" lon="12.4494635"><ele>46.0</ele><time>2026-04-19T08:16:21.394Z</time></trkpt><trkpt lat="44.0391997" lon="12.449378"><ele>46.0</ele><time>2026-04-19T08:16:22.385Z</time></trkpt><trkpt lat="44.0391549" lon="12.4492932"><ele>45.85714285714286</ele><time>2026-04-19T08:16:23.388Z</time></trkpt><trkpt lat="44.0391124" lon="12.4492135"><ele>45.71428571428571</ele><time>2026-04-19T08:16:24.388Z</time></trkpt><trkpt lat="44.039071" lon="12.4491332"><ele>45.57142857142857</ele><time>2026-04-19T08:16:25.387Z</time></trkpt><trkpt lat="44.0390283" lon="12.4490563"><ele>45.42857142857143</ele><time>2026-04-19T08:16:26.385Z</time></trkpt><trkpt lat="44.0389886" lon="12.4489756"><ele>45.28571428571429</ele><time>2026-04-19T08:16:27.388Z</time></trkpt><trkpt lat="44.0389452" lon="12.4489025"><ele>45.14285714285714</ele><time>2026-04-19T08:16:28.38Z</time></trkpt><trkpt lat="44.0389077" lon="12.448829"><ele>45.0</ele><time>2026-04-19T08:16:29.386Z</time></trkpt><trkpt lat="44.0388367" lon="12.4486999"><ele>45.0</ele><time>2026-04-19T08:16:31.384Z</time></trkpt><trkpt lat="44.0387842" lon="12.4486042"><ele>45.0</ele><time>2026-04-19T08:16:33.381Z</time></trkpt><trkpt lat="44.0387323" lon="12.4485173"><ele>45.0</ele><time>2026-04-19T08:16:36.389Z</time></trkpt><trkpt lat="44.0387327" lon="12.4484228"><ele>45.0</ele><time>2026-04-19T08:16:47.379Z</time></trkpt><trkpt lat="44.0387683" lon="12.4485503"><ele>45.0</ele><time>2026-04-19T08:16:55.381Z</time></trkpt><trkpt lat="44.0388333" lon="12.4486702"><ele>45.0</ele><time>2026-04-19T08:16:57.381Z</time></trkpt><trkpt lat="44.0389102" lon="12.4488095"><ele>45.0</ele><time>2026-04-19T08:16:59.381Z</time></trkpt><trkpt lat="44.0389519" lon="12.4488894"><ele>45.0</ele><time>2026-04-19T08:17:00.381Z</time></trkpt><trkpt lat="44.0389941" lon="12.4489702"><ele>45.0</ele><time>2026-04-19T08:17:01.384Z</time></trkpt><trkpt lat="44.039039" lon="12.4490535"><ele>45.0</ele><time>2026-04-19T08:17:02.381Z</time></trkpt><trkpt lat="44.0390827" lon="12.4491385"><ele>45.0</ele><time>2026-04-19T08:17:03.384Z</time></trkpt><trkpt lat="44.0391285" lon="12.4492261"><ele>45.0</ele><time>2026-04-19T08:17:04.385Z</time></trkpt><trkpt lat="44.0391713" lon="12.4493089"><ele>45.0</ele><time>2026-04-19T08:17:05.381Z</time></trkpt><trkpt lat="44.0392615" lon="12.4494703"><ele>45.0</ele><time>2026-04-19T08:17:07.391Z</time></trkpt><trkpt lat="44.0393047" lon="12.4495507"><ele>45.0</ele><time>2026-04-19T08:17:08.379Z</time></trkpt><trkpt lat="44.0393495" lon="12.4496287"><ele>45.0</ele><time>2026-04-19T08:17:09.381Z</time></trkpt><trkpt lat="44.039397" lon="12.449703"><ele>45.0</ele><time>2026-04-19T08:17:10.386Z</time></trkpt><trkpt lat="44.0394436" lon="12.4497799"><ele>45.0</ele><time>2026-04-19T08:17:11.387Z</time></trkpt><trkpt lat="44.0394931" lon="12.4498588"><ele>45.0</ele><time>2026-04-19T08:17:12.382Z</time></trkpt><trkpt lat="44.0395457" lon="12.4499373"><ele>45.0</ele><time>2026-04-19T08:17:13.381Z</time></trkpt><trkpt lat="44.0395995" lon="12.4500269"><ele>45.166666666666664</ele><time>2026-04-19T08:17:14.384Z</time></trkpt><trkpt lat="44.0396533" lon="12.450115"><ele>45.333333333333336</ele><time>2026-04-19T08:17:15.382Z</time></trkpt><trkpt lat="44.0397094" lon="12.4502064"><ele>45.5</ele><time>2026-04-19T08:17:16.38Z</time></trkpt><trkpt lat="44.0397707" lon="12.4502969"><ele>45.66666666666667</ele><time>2026-04-19T08:17:17.383Z</time></trkpt><trkpt lat="44.0398317" lon="12.4503926"><ele>45.833333333333336</ele><time>2026-04-19T08:17:18.381Z</time></trkpt><trkpt lat="44.0398944" lon="12.4504856"><ele>46.0</ele><time>2026-04-19T08:17:19.387Z</time></trkpt><trkpt lat="44.0399599" lon="12.4505732"><ele>45.4</ele><time>2026-04-19T08:17:20.384Z</time></trkpt><trkpt lat="44.0400238" lon="12.4506629"><ele>44.8</ele><time>2026-04-19T08:17:21.387Z</time></trkpt><trkpt lat="44.0400909" lon="12.4507485"><ele>44.199999999999996</ele><time>2026-04-19T08:17:22.384Z</time></trkpt><trkpt lat="44.0401584" lon="12.4508333"><ele>43.599999999999994</ele><time>2026-04-19T08:17:23.389Z</time></trkpt><trkpt lat="44.0402292" lon="12.4509095"><ele>43.0</ele><time>2026-04-19T08:17:24.383Z</time></trkpt><trkpt lat="44.0403047" lon="12.450972"><ele>43.0</ele><time>2026-04-19T08:17:25.383Z</time></trkpt><trkpt lat="44.040384" lon="12.4510275"><ele>43.0</ele><time>2026-04-19T08:17:26.383Z</time></trkpt><trkpt lat="44.0404654" lon="12.4510765"><ele>43.0</ele><time>2026-04-19T08:17:27.383Z</time></trkpt><trkpt lat="44.0405495" lon="12.4511205"><ele>43.0</ele><time>2026-04-19T08:17:28.383Z</time></trkpt><trkpt lat="44.040633" lon="12.4511571"><ele>43.0</ele><time>2026-04-19T08:17:29.381Z</time></trkpt><trkpt lat="44.0407157" lon="12.4511864"><ele>43.0</ele><time>2026-04-19T08:17:30.379Z</time></trkpt><trkpt lat="44.0407941" lon="12.4512119"><ele>43.16666666666667</ele><time>2026-04-19T08:17:31.386Z</time></trkpt><trkpt lat="44.0408708" lon="12.4512379"><ele>43.333333333333336</ele><time>2026-04-19T08:17:32.379Z</time></trkpt><trkpt lat="44.0409521" lon="12.4512624"><ele>43.5</ele><time>2026-04-19T08:17:33.382Z</time></trkpt><trkpt lat="44.0410337" lon="12.4512904"><ele>43.666666666666664</ele><time>2026-04-19T08:17:34.388Z</time></trkpt><trkpt lat="44.041117" lon="12.4513168"><ele>43.83333333333333</ele><time>2026-04-19T08:17:35.386Z</time></trkpt><trkpt lat="44.0411972" lon="12.4513471"><ele>44.0</ele><time>2026-04-19T08:17:36.379Z</time></trkpt><trkpt lat="44.0412777" lon="12.4513768"><ele>43.83333333333333</ele><time>2026-04-19T08:17:37.384Z</time></trkpt><trkpt lat="44.04136" lon="12.4514116"><ele>43.666666666666664</ele><time>2026-04-19T08:17:38.387Z</time></trkpt><trkpt lat="44.0414363" lon="12.4514535"><ele>43.5</ele><time>2026-04-19T08:17:39.389Z</time></trkpt><trkpt lat="44.0415106" lon="12.4514961"><ele>43.333333333333336</ele><time>2026-04-19T08:17:40.393Z</time></trkpt><trkpt lat="44.0415863" lon="12.451541"><ele>43.16666666666667</ele><time>2026-04-19T08:17:41.388Z</time></trkpt><trkpt lat="44.0416593" lon="12.4515935"><ele>43.0</ele><time>2026-04-19T08:17:42.387Z</time></trkpt><trkpt lat="44.0417326" lon="12.4516414"><ele>43.0</ele><time>2026-04-19T08:17:43.387Z</time></trkpt><trkpt lat="44.0418053" lon="12.451695"><ele>43.0</ele><time>2026-04-19T08:17:44.381Z</time></trkpt><trkpt lat="44.0418783" lon="12.4517521"><ele>43.0</ele><time>2026-04-19T08:17:45.382Z</time></trkpt><trkpt lat="44.041951" lon="12.4518103"><ele>43.0</ele><time>2026-04-19T08:17:46.388Z</time></trkpt><trkpt lat="44.0420253" lon="12.4518665"><ele>43.0</ele><time>2026-04-19T08:17:47.385Z</time></trkpt><trkpt lat="44.042097" lon="12.4519291"><ele>43.0</ele><time>2026-04-19T08:17:48.382Z</time></trkpt><trkpt lat="44.0421702" lon="12.4519988"><ele>43.0</ele><time>2026-04-19T08:17:49.379Z</time></trkpt><trkpt lat="44.042241" lon="12.4520762"><ele>43.0</ele><time>2026-04-19T08:17:50.383Z</time></trkpt><trkpt lat="44.042309" lon="12.4521544"><ele>43.0</ele><time>2026-04-19T08:17:51.385Z</time></trkpt><trkpt lat="44.0423723" lon="12.4522386"><ele>43.0</ele><time>2026-04-19T08:17:52.379Z</time></trkpt><trkpt lat="44.0424354" lon="12.4523282"><ele>43.0</ele><time>2026-04-19T08:17:53.385Z</time></trkpt><trkpt lat="44.0424964" lon="12.4524207"><ele>43.0</ele><time>2026-04-19T08:17:54.384Z</time></trkpt><trkpt lat="44.0425537" lon="12.4525169"><ele>43.0</ele><time>2026-04-19T08:17:55.38Z</time></trkpt><trkpt lat="44.0426148" lon="12.4526102"><ele>43.0</ele><time>2026-04-19T08:17:56.382Z</time></trkpt><trkpt lat="44.0426729" lon="12.4526993"><ele>43.0</ele><time>2026-04-19T08:17:57.383Z</time></trkpt><trkpt lat="44.0427302" lon="12.4527891"><ele>43.0</ele><time>2026-04-19T08:17:58.381Z</time></trkpt><trkpt lat="44.042785" lon="12.4528802"><ele>43.0</ele><time>2026-04-19T08:17:59.383Z</time></trkpt><trkpt lat="44.0428375" lon="12.4529673"><ele>43.0</ele><time>2026-04-19T08:18:00.384Z</time></trkpt><trkpt lat="44.0428837" lon="12.4530537"><ele>43.0</ele><time>2026-04-19T08:18:01.384Z</time></trkpt><trkpt lat="44.0429308" lon="12.4531331"><ele>43.0</ele><time>2026-04-19T08:18:02.378Z</time></trkpt><trkpt lat="44.0429759" lon="12.4532036"><ele>43.0</ele><time>2026-04-19T08:18:03.379Z</time></trkpt><trkpt lat="44.043019" lon="12.4532688"><ele>43.0</ele><time>2026-04-19T08:18:04.381Z</time></trkpt><trkpt lat="44.0430886" lon="12.4533617"><ele>43.0</ele><time>2026-04-19T08:18:06.385Z</time></trkpt><trkpt lat="44.0430971" lon="12.4534766"><ele>43.0</ele><time>2026-04-19T08:18:08.383Z</time></trkpt><trkpt lat="44.043115" lon="12.4535934"><ele>43.0</ele><time>2026-04-19T08:18:10.384Z</time></trkpt><trkpt lat="44.0431666" lon="12.4537113"><ele>43.0</ele><time>2026-04-19T08:18:12.384Z</time></trkpt><trkpt lat="44.0432119" lon="12.4537753"><ele>43.0</ele><time>2026-04-19T08:18:13.379Z</time></trkpt><trkpt lat="44.0432992" lon="12.45391"><ele>43.0</ele><time>2026-04-19T08:18:15.386Z</time></trkpt><trkpt lat="44.0433462" lon="12.4539816"><ele>43.0</ele><time>2026-04-19T08:18:16.386Z</time></trkpt><trkpt lat="44.0433926" lon="12.4540474"><ele>43.0</ele><time>2026-04-19T08:18:17.386Z</time></trkpt><trkpt lat="44.0434466" lon="12.4541131"><ele>43.00000000000001</ele><time>2026-04-19T08:18:18.384Z</time></trkpt><trkpt lat="44.0435002" lon="12.4541825"><ele>43.0</ele><time>2026-04-19T08:18:19.385Z</time></trkpt><trkpt lat="44.0435463" lon="12.4542455"><ele>43.0</ele><time>2026-04-19T08:18:20.386Z</time></trkpt><trkpt lat="44.0435945" lon="12.4543159"><ele>43.0</ele><time>2026-04-19T08:18:21.381Z</time></trkpt><trkpt lat="44.0436443" lon="12.4543926"><ele>43.0</ele><time>2026-04-19T08:18:22.385Z</time></trkpt><trkpt lat="44.0436963" lon="12.454471"><ele>43.00000000000001</ele><time>2026-04-19T08:18:23.385Z</time></trkpt><trkpt lat="44.0437543" lon="12.4545476"><ele>43.0</ele><time>2026-04-19T08:18:24.382Z</time></trkpt><trkpt lat="44.0438073" lon="12.4546258"><ele>42.66666666666667</ele><time>2026-04-19T08:18:25.386Z</time></trkpt><trkpt lat="44.0438543" lon="12.4547016"><ele>42.333333333333336</ele><time>2026-04-19T08:18:26.384Z</time></trkpt><trkpt lat="44.0438957" lon="12.4547702"><ele>42.0</ele><time>2026-04-19T08:18:27.383Z</time></trkpt><trkpt lat="44.0439781" lon="12.4549032"><ele>41.666666666666664</ele><time>2026-04-19T08:18:29.387Z</time></trkpt><trkpt lat="44.0440267" lon="12.4549707"><ele>41.33333333333333</ele><time>2026-04-19T08:18:30.385Z</time></trkpt><trkpt lat="44.0440714" lon="12.4550395"><ele>41.0</ele><time>2026-04-19T08:18:31.384Z</time></trkpt><trkpt lat="44.0441222" lon="12.4551104"><ele>41.33333333333333</ele><time>2026-04-19T08:18:32.386Z</time></trkpt><trkpt lat="44.0441756" lon="12.4551831"><ele>41.666666666666664</ele><time>2026-04-19T08:18:33.385Z</time></trkpt><trkpt lat="44.0442289" lon="12.4552524"><ele>42.0</ele><time>2026-04-19T08:18:34.391Z</time></trkpt><trkpt lat="44.0442746" lon="12.4553165"><ele>42.333333333333336</ele><time>2026-04-19T08:18:35.385Z</time></trkpt><trkpt lat="44.044327" lon="12.4554149"><ele>42.66666666666667</ele><time>2026-04-19T08:18:37.384Z</time></trkpt><trkpt lat="44.044286" lon="12.4555255"><ele>43.0</ele><time>2026-04-19T08:18:40.383Z</time></trkpt><trkpt lat="44.0442344" lon="12.4555795"><ele>43.0</ele><time>2026-04-19T08:18:41.385Z</time></trkpt><trkpt lat="44.0441707" lon="12.4556397"><ele>43.0</ele><time>2026-04-19T08:18:42.385Z</time></trkpt><trkpt lat="44.0440941" lon="12.455703"><ele>43.0</ele><time>2026-04-19T08:18:43.385Z</time></trkpt><trkpt lat="44.0440093" lon="12.4557738"><ele>43.0</ele><time>2026-04-19T08:18:44.384Z</time></trkpt><trkpt lat="44.0439223" lon="12.4558517"><ele>43.0</ele><time>2026-04-19T08:18:45.382Z</time></trkpt><trkpt lat="44.0438302" lon="12.4559365"><ele>43.0</ele><time>2026-04-19T08:18:46.384Z</time></trkpt><trkpt lat="44.0437343" lon="12.4560228"><ele>43.0</ele><time>2026-04-19T08:18:47.387Z</time></trkpt><trkpt lat="44.0436332" lon="12.4561145"><ele>43.0</ele><time>2026-04-19T08:18:48.388Z</time></trkpt><trkpt lat="44.0435284" lon="12.4562095"><ele>43.0</ele><time>2026-04-19T08:18:49.383Z</time></trkpt><trkpt lat="44.0434188" lon="12.456305"><ele>43.0</ele><time>2026-04-19T08:18:50.389Z</time></trkpt><trkpt lat="44.0433081" lon="12.4564043"><ele>43.0</ele><time>2026-04-19T08:18:51.381Z</time></trkpt><trkpt lat="44.0431977" lon="12.4565055"><ele>43.0</ele><time>2026-04-19T08:18:52.384Z</time></trkpt><trkpt lat="44.0430862" lon="12.456605"><ele>43.0</ele><time>2026-04-19T08:18:53.382Z</time></trkpt><trkpt lat="44.0429719" lon="12.4567084"><ele>43.0</ele><time>2026-04-19T08:18:54.383Z</time></trkpt><trkpt lat="44.0428552" lon="12.4568107"><ele>43.0</ele><time>2026-04-19T08:18:55.385Z</time></trkpt><trkpt lat="44.0427378" lon="12.4569119"><ele>43.0</ele><time>2026-04-19T08:18:56.386Z</time></trkpt><trkpt lat="44.0426215" lon="12.4570157"><ele>43.0</ele><time>2026-04-19T08:18:57.384Z</time></trkpt><trkpt lat="44.0425045" lon="12.4571235"><ele>43.25</ele><time>2026-04-19T08:18:58.385Z</time></trkpt><trkpt lat="44.0423868" lon="12.4572307"><ele>43.5</ele><time>2026-04-19T08:18:59.382Z</time></trkpt><trkpt lat="44.0422676" lon="12.4573384"><ele>43.75</ele><time>2026-04-19T08:19:00.384Z</time></trkpt><trkpt lat="44.0421479" lon="12.4574451"><ele>44.0</ele><time>2026-04-19T08:19:01.387Z</time></trkpt><trkpt lat="44.0420289" lon="12.4575481"><ele>44.0</ele><time>2026-04-19T08:19:02.382Z</time></trkpt><trkpt lat="44.0419098" lon="12.4576583"><ele>44.0</ele><time>2026-04-19T08:19:03.391Z</time></trkpt><trkpt lat="44.0417905" lon="12.4577677"><ele>44.0</ele><time>2026-04-19T08:19:04.381Z</time></trkpt><trkpt lat="44.0416714" lon="12.4578747"><ele>44.0</ele><time>2026-04-19T08:19:05.382Z</time></trkpt><trkpt lat="44.0415515" lon="12.4579788"><ele>44.25</ele><time>2026-04-19T08:19:06.381Z</time></trkpt><trkpt lat="44.041431" lon="12.4580828"><ele>44.5</ele><time>2026-04-19T08:19:07.395Z</time></trkpt><trkpt lat="44.0413099" lon="12.4581863"><ele>44.75</ele><time>2026-04-19T08:19:08.384Z</time></trkpt><trkpt lat="44.0411903" lon="12.4582861"><ele>45.0</ele><time>2026-04-19T08:19:09.389Z</time></trkpt><trkpt lat="44.041074" lon="12.4583804"><ele>45.0</ele><time>2026-04-19T08:19:10.386Z</time></trkpt><trkpt lat="44.0409601" lon="12.4584802"><ele>45.0</ele><time>2026-04-19T08:19:11.388Z</time></trkpt><trkpt lat="44.0408479" lon="12.4585771"><ele>45.0</ele><time>2026-04-19T08:19:12.388Z</time></trkpt><trkpt lat="44.0407366" lon="12.4586704"><ele>45.0</ele><time>2026-04-19T08:19:13.388Z</time></trkpt><trkpt lat="44.0406267" lon="12.4587603"><ele>45.0</ele><time>2026-04-19T08:19:14.384Z</time></trkpt><trkpt lat="44.0405182" lon="12.4588483"><ele>45.0</ele><time>2026-04-19T08:19:15.385Z</time></trkpt><trkpt lat="44.0404113" lon="12.4589295"><ele>45.0</ele><time>2026-04-19T08:19:16.389Z</time></trkpt><trkpt lat="44.0403049" lon="12.4590122"><ele>45.0</ele><time>2026-04-19T08:19:17.385Z</time></trkpt><trkpt lat="44.0401954" lon="12.4590942"><ele>45.0</ele><time>2026-04-19T08:19:18.386Z</time></trkpt><trkpt lat="44.0400871" lon="12.4591713"><ele>45.0</ele><time>2026-04-19T08:19:19.387Z</time></trkpt><trkpt lat="44.0399756" lon="12.4592462"><ele>45.0</ele><time>2026-04-19T08:19:20.382Z</time></trkpt><trkpt lat="44.0398675" lon="12.4593182"><ele>45.0</ele><time>2026-04-19T08:19:21.384Z</time></trkpt><trkpt lat="44.0397592" lon="12.4593914"><ele>45.0</ele><time>2026-04-19T08:19:22.382Z</time></trkpt><trkpt lat="44.0396505" lon="12.4594619"><ele>45.0</ele><time>2026-04-19T08:19:23.387Z</time></trkpt><trkpt lat="44.0395418" lon="12.4595323"><ele>45.0</ele><time>2026-04-19T08:19:24.381Z</time></trkpt><trkpt lat="44.0394407" lon="12.4595984"><ele>45.0</ele><time>2026-04-19T08:19:25.384Z</time></trkpt><trkpt lat="44.0393427" lon="12.4596526"><ele>45.0</ele><time>2026-04-19T08:19:26.385Z</time></trkpt><trkpt lat="44.0392499" lon="12.4597044"><ele>45.0</ele><time>2026-04-19T08:19:27.383Z</time></trkpt><trkpt lat="44.0391651" lon="12.4597429"><ele>45.0</ele><time>2026-04-19T08:19:28.381Z</time></trkpt><trkpt lat="44.0390928" lon="12.4597625"><ele>45.0</ele><time>2026-04-19T08:19:29.387Z</time></trkpt><trkpt lat="44.038984" lon="12.4597003"><ele>45.0</ele><time>2026-04-19T08:19:31.38Z</time></trkpt><trkpt lat="44.0389466" lon="12.4596224"><ele>45.0</ele><time>2026-04-19T08:19:32.384Z</time></trkpt><trkpt lat="44.0389149" lon="12.4595285"><ele>45.0</ele><time>2026-04-19T08:19:33.383Z</time></trkpt><trkpt lat="44.0388788" lon="12.459434"><ele>45.0</ele><time>2026-04-19T08:19:34.388Z</time></trkpt><trkpt lat="44.0388421" lon="12.4593449"><ele>45.0</ele><time>2026-04-19T08:19:35.384Z</time></trkpt><trkpt lat="44.0388029" lon="12.4592579"><ele>45.0</ele><time>2026-04-19T08:19:36.382Z</time></trkpt><trkpt lat="44.0387654" lon="12.4591706"><ele>45.0</ele><time>2026-04-19T08:19:37.38Z</time></trkpt><trkpt lat="44.0387258" lon="12.4590762"><ele>45.0</ele><time>2026-04-19T08:19:38.388Z</time></trkpt><trkpt lat="44.0386813" lon="12.4589861"><ele>45.0</ele><time>2026-04-19T08:19:39.38Z</time></trkpt><trkpt lat="44.0386325" lon="12.4588927"><ele>45.0</ele><time>2026-04-19T08:19:40.381Z</time></trkpt><trkpt lat="44.0385782" lon="12.458805"><ele>45.0</ele><time>2026-04-19T08:19:41.384Z</time></trkpt><trkpt lat="44.0385271" lon="12.4587113"><ele>45.0</ele><time>2026-04-19T08:19:42.384Z</time></trkpt><trkpt lat="44.0384758" lon="12.458622"><ele>45.0</ele><time>2026-04-19T08:19:43.383Z</time></trkpt><trkpt lat="44.0384224" lon="12.458532"><ele>45.0</ele><time>2026-04-19T08:19:44.383Z</time></trkpt><trkpt lat="44.0383698" lon="12.4584425"><ele>45.0</ele><time>2026-04-19T08:19:45.39Z</time></trkpt><trkpt lat="44.0383144" lon="12.4583578"><ele>45.0</ele><time>2026-04-19T08:19:46.38Z</time></trkpt><trkpt lat="44.0382637" lon="12.4582683"><ele>45.0</ele><time>2026-04-19T08:19:47.381Z</time></trkpt><trkpt lat="44.0382132" lon="12.4581791"><ele>45.0</ele><time>2026-04-19T08:19:48.383Z</time></trkpt><trkpt lat="44.0381636" lon="12.4580903"><ele>45.0</ele><time>2026-04-19T08:19:49.381Z</time></trkpt><trkpt lat="44.0381026" lon="12.4580117"><ele>45.0</ele><time>2026-04-19T08:19:50.39Z</time></trkpt><trkpt lat="44.0380418" lon="12.4579381"><ele>44.833333333333336</ele><time>2026-04-19T08:19:51.382Z</time></trkpt><trkpt lat="44.0379769" lon="12.4578643"><ele>44.666666666666664</ele><time>2026-04-19T08:19:52.385Z</time></trkpt><trkpt lat="44.0379154" lon="12.4577887"><ele>44.5</ele><time>2026-04-19T08:19:53.385Z</time></trkpt><trkpt lat="44.0378509" lon="12.457713"><ele>44.33333333333333</ele><time>2026-04-19T08:19:54.384Z</time></trkpt><trkpt lat="44.0377871" lon="12.4576329"><ele>44.166666666666664</ele><time>2026-04-19T08:19:55.382Z</time></trkpt><trkpt lat="44.0377256" lon="12.4575588"><ele>44.0</ele><time>2026-04-19T08:19:56.387Z</time></trkpt><trkpt lat="44.0376637" lon="12.4574778"><ele>44.0</ele><time>2026-04-19T08:19:57.383Z</time></trkpt><trkpt lat="44.0376023" lon="12.4573944"><ele>44.0</ele><time>2026-04-19T08:19:58.384Z</time></trkpt><trkpt lat="44.0375375" lon="12.4573169"><ele>44.0</ele><time>2026-04-19T08:19:59.385Z</time></trkpt><trkpt lat="44.0374731" lon="12.4572353"><ele>44.0</ele><time>2026-04-19T08:20:00.383Z</time></trkpt><trkpt lat="44.03741" lon="12.4571545"><ele>44.0</ele><time>2026-04-19T08:20:01.38Z</time></trkpt><trkpt lat="44.0373455" lon="12.4570685"><ele>44.0</ele><time>2026-04-19T08:20:02.386Z</time></trkpt><trkpt lat="44.037282" lon="12.456981"><ele>44.33333333333333</ele><time>2026-04-19T08:20:03.389Z</time></trkpt><trkpt lat="44.0372199" lon="12.456896"><ele>44.666666666666664</ele><time>2026-04-19T08:20:04.385Z</time></trkpt><trkpt lat="44.0371585" lon="12.4568099"><ele>45.0</ele><time>2026-04-19T08:20:05.388Z</time></trkpt><trkpt lat="44.0370967" lon="12.4567316"><ele>45.333333333333336</ele><time>2026-04-19T08:20:06.382Z</time></trkpt><trkpt lat="44.0370347" lon="12.4566557"><ele>45.66666666666667</ele><time>2026-04-19T08:20:07.388Z</time></trkpt><trkpt lat="44.0369751" lon="12.4565764"><ele>46.0</ele><time>2026-04-19T08:20:08.384Z</time></trkpt><trkpt lat="44.0369131" lon="12.4564963"><ele>46.0</ele><time>2026-04-19T08:20:09.386Z</time></trkpt><trkpt lat="44.0368531" lon="12.4564134"><ele>46.0</ele><time>2026-04-19T08:20:10.384Z</time></trkpt><trkpt lat="44.0367943" lon="12.4563307"><ele>46.0</ele><time>2026-04-19T08:20:11.385Z</time></trkpt><trkpt lat="44.0367341" lon="12.4562487"><ele>46.0</ele><time>2026-04-19T08:20:12.385Z</time></trkpt><trkpt lat="44.0366707" lon="12.4561648"><ele>46.0</ele><time>2026-04-19T08:20:13.389Z</time></trkpt><trkpt lat="44.0366096" lon="12.4560817"><ele>46.0</ele><time>2026-04-19T08:20:14.381Z</time></trkpt><trkpt lat="44.0365547" lon="12.456001"><ele>46.0</ele><time>2026-04-19T08:20:15.386Z</time></trkpt><trkpt lat="44.036498" lon="12.4559121"><ele>46.0</ele><time>2026-04-19T08:20:16.391Z</time></trkpt><trkpt lat="44.0364398" lon="12.4558266"><ele>46.0</ele><time>2026-04-19T08:20:17.379Z</time></trkpt><trkpt lat="44.0363773" lon="12.4557422"><ele>46.0</ele><time>2026-04-19T08:20:18.383Z</time></trkpt><trkpt lat="44.0363152" lon="12.4556575"><ele>46.0</ele><time>2026-04-19T08:20:19.385Z</time></trkpt><trkpt lat="44.0362561" lon="12.4555699"><ele>46.0</ele><time>2026-04-19T08:20:20.384Z</time></trkpt><trkpt lat="44.0361957" lon="12.4554881"><ele>45.833333333333336</ele><time>2026-04-19T08:20:21.385Z</time></trkpt><trkpt lat="44.0361329" lon="12.455404"><ele>45.66666666666667</ele><time>2026-04-19T08:20:22.389Z</time></trkpt><trkpt lat="44.0360755" lon="12.4553241"><ele>45.5</ele><time>2026-04-19T08:20:23.385Z</time></trkpt><trkpt lat="44.03602" lon="12.4552459"><ele>45.333333333333336</ele><time>2026-04-19T08:20:24.384Z</time></trkpt><trkpt lat="44.0359585" lon="12.4551748"><ele>45.166666666666664</ele><time>2026-04-19T08:20:25.383Z</time></trkpt><trkpt lat="44.0358995" lon="12.4551074"><ele>45.0</ele><time>2026-04-19T08:20:26.381Z</time></trkpt><trkpt lat="44.0358354" lon="12.4550395"><ele>45.14285714285714</ele><time>2026-04-19T08:20:27.383Z</time></trkpt><trkpt lat="44.0357761" lon="12.4549652"><ele>45.28571428571429</ele><time>2026-04-19T08:20:28.38Z</time></trkpt><trkpt lat="44.0357217" lon="12.454892"><ele>45.42857142857143</ele><time>2026-04-19T08:20:29.384Z</time></trkpt><trkpt lat="44.0356638" lon="12.4548241"><ele>45.57142857142857</ele><time>2026-04-19T08:20:30.387Z</time></trkpt><trkpt lat="44.0356061" lon="12.4547565"><ele>45.71428571428571</ele><time>2026-04-19T08:20:31.386Z</time></trkpt><trkpt lat="44.0355524" lon="12.4546912"><ele>45.85714285714286</ele><time>2026-04-19T08:20:32.383Z</time></trkpt><trkpt lat="44.0355007" lon="12.454635"><ele>46.0</ele><time>2026-04-19T08:20:33.381Z</time></trkpt><trkpt lat="44.0354492" lon="12.4545822"><ele>46.0</ele><time>2026-04-19T08:20:34.381Z</time></trkpt><trkpt lat="44.0353662" lon="12.4544788"><ele>46.0</ele><time>2026-04-19T08:20:36.381Z</time></trkpt><trkpt lat="44.0352972" lon="12.4543634"><ele>46.0</ele><time>2026-04-19T08:20:38.389Z</time></trkpt><trkpt lat="44.0352284" lon="12.4542525"><ele>46.0</ele><time>2026-04-19T08:20:40.385Z</time></trkpt><trkpt lat="44.0351762" lon="12.454127"><ele>46.0</ele><time>2026-04-19T08:20:42.388Z</time></trkpt><trkpt lat="44.0351099" lon="12.4540016"><ele>46.0</ele><time>2026-04-19T08:20:44.38Z</time></trkpt><trkpt lat="44.0350528" lon="12.4538616"><ele>46.0</ele><time>2026-04-19T08:20:46.384Z</time></trkpt><trkpt lat="44.0349906" lon="12.4537106"><ele>46.0</ele><time>2026-04-19T08:20:48.39Z</time></trkpt><trkpt lat="44.0349604" lon="12.4536321"><ele>46.0</ele><time>2026-04-19T08:20:49.389Z</time></trkpt><trkpt lat="44.0349326" lon="12.4535517"><ele>46.0</ele><time>2026-04-19T08:20:50.383Z</time></trkpt><trkpt lat="44.0349071" lon="12.4534677"><ele>46.0</ele><time>2026-04-19T08:20:51.386Z</time></trkpt><trkpt lat="44.0348808" lon="12.4533822"><ele>46.333333333333336</ele><time>2026-04-19T08:20:52.385Z</time></trkpt><trkpt lat="44.0348548" lon="12.4532963"><ele>46.66666666666667</ele><time>2026-04-19T08:20:53.384Z</time></trkpt><trkpt lat="44.0348314" lon="12.4532073"><ele>47.0</ele><time>2026-04-19T08:20:54.382Z</time></trkpt><trkpt lat="44.0348073" lon="12.4531189"><ele>47.333333333333336</ele><time>2026-04-19T08:20:55.383Z</time></trkpt><trkpt lat="44.0347837" lon="12.4530292"><ele>47.666666666666664</ele><time>2026-04-19T08:20:56.383Z</time></trkpt><trkpt lat="44.0347355" lon="12.452857"><ele>48.0</ele><time>2026-04-19T08:20:58.385Z</time></trkpt><trkpt lat="44.0347123" lon="12.4527663"><ele>48.166666666666664</ele><time>2026-04-19T08:20:59.383Z</time></trkpt><trkpt lat="44.0346893" lon="12.4526789"><ele>48.33333333333333</ele><time>2026-04-19T08:21:00.387Z</time></trkpt><trkpt lat="44.0346628" lon="12.4525938"><ele>48.5</ele><time>2026-04-19T08:21:01.38Z</time></trkpt><trkpt lat="44.0346327" lon="12.4525121"><ele>48.666666666666664</ele><time>2026-04-19T08:21:02.382Z</time></trkpt><trkpt lat="44.0345972" lon="12.4524364"><ele>48.83333333333333</ele><time>2026-04-19T08:21:03.386Z</time></trkpt><trkpt lat="44.0345073" lon="12.4523471"><ele>49.0</ele><time>2026-04-19T08:21:05.383Z</time></trkpt><trkpt lat="44.0344298" lon="12.4523501"><ele>48.99999999999999</ele><time>2026-04-19T08:21:07.386Z</time></trkpt><trkpt lat="44.0343452" lon="12.4524199"><ele>49.0</ele><time>2026-04-19T08:21:09.392Z</time></trkpt><trkpt lat="44.0342399" lon="12.4525205"><ele>49.0</ele><time>2026-04-19T08:21:11.381Z</time></trkpt><trkpt lat="44.0341773" lon="12.4525736"><ele>49.0</ele><time>2026-04-19T08:21:12.387Z</time></trkpt><trkpt lat="44.0341163" lon="12.4526232"><ele>48.99999999999999</ele><time>2026-04-19T08:21:13.389Z</time></trkpt><trkpt lat="44.0340591" lon="12.4526767"><ele>49.0</ele><time>2026-04-19T08:21:14.385Z</time></trkpt><trkpt lat="44.0340053" lon="12.4527237"><ele>49.0</ele><time>2026-04-19T08:21:15.384Z</time></trkpt><trkpt lat="44.0338934" lon="12.4528064"><ele>49.0</ele><time>2026-04-19T08:21:17.388Z</time></trkpt><trkpt lat="44.0338334" lon="12.4528415"><ele>49.0</ele><time>2026-04-19T08:21:18.384Z</time></trkpt><trkpt lat="44.0337753" lon="12.4528785"><ele>49.0</ele><time>2026-04-19T08:21:19.383Z</time></trkpt><trkpt lat="44.0337145" lon="12.4529027"><ele>49.0</ele><time>2026-04-19T08:21:20.388Z</time></trkpt><trkpt lat="44.0336502" lon="12.4529185"><ele>49.0</ele><time>2026-04-19T08:21:21.387Z</time></trkpt><trkpt lat="44.0335878" lon="12.4529423"><ele>49.0</ele><time>2026-04-19T08:21:22.385Z</time></trkpt><trkpt lat="44.03352" lon="12.4529732"><ele>49.0</ele><time>2026-04-19T08:21:23.387Z</time></trkpt><trkpt lat="44.0334517" lon="12.4529969"><ele>49.0</ele><time>2026-04-19T08:21:24.381Z</time></trkpt><trkpt lat="44.0333823" lon="12.4530221"><ele>49.0</ele><time>2026-04-19T08:21:25.385Z</time></trkpt><trkpt lat="44.0333141" lon="12.4530562"><ele>49.0</ele><time>2026-04-19T08:21:26.38Z</time></trkpt><trkpt lat="44.0332453" lon="12.4530881"><ele>49.0</ele><time>2026-04-19T08:21:27.387Z</time></trkpt><trkpt lat="44.0331761" lon="12.4531236"><ele>49.0</ele><time>2026-04-19T08:21:28.389Z</time></trkpt><trkpt lat="44.0331116" lon="12.4531564"><ele>49.0</ele><time>2026-04-19T08:21:29.382Z</time></trkpt><trkpt lat="44.0330503" lon="12.4531847"><ele>49.0</ele><time>2026-04-19T08:21:30.383Z</time></trkpt><trkpt lat="44.0329853" lon="12.4532134"><ele>49.0</ele><time>2026-04-19T08:21:31.387Z</time></trkpt><trkpt lat="44.0329215" lon="12.4532504"><ele>49.0</ele><time>2026-04-19T08:21:32.389Z</time></trkpt><trkpt lat="44.0328624" lon="12.4532909"><ele>49.0</ele><time>2026-04-19T08:21:33.387Z</time></trkpt><trkpt lat="44.032807" lon="12.4533337"><ele>49.0</ele><time>2026-04-19T08:21:34.383Z</time></trkpt><trkpt lat="44.0327527" lon="12.453382"><ele>49.0</ele><time>2026-04-19T08:21:35.387Z</time></trkpt><trkpt lat="44.0327009" lon="12.4534406"><ele>49.0</ele><time>2026-04-19T08:21:36.388Z</time></trkpt><trkpt lat="44.0326537" lon="12.4535041"><ele>49.0</ele><time>2026-04-19T08:21:37.385Z</time></trkpt><trkpt lat="44.0326004" lon="12.4535629"><ele>49.0</ele><time>2026-04-19T08:21:38.386Z</time></trkpt><trkpt lat="44.0325513" lon="12.4536232"><ele>49.0</ele><time>2026-04-19T08:21:39.384Z</time></trkpt><trkpt lat="44.0325012" lon="12.4536824"><ele>49.0</ele><time>2026-04-19T08:21:40.384Z</time></trkpt><trkpt lat="44.0324507" lon="12.4537458"><ele>49.0</ele><time>2026-04-19T08:21:41.388Z</time></trkpt><trkpt lat="44.0324012" lon="12.4538103"><ele>49.0</ele><time>2026-04-19T08:21:42.386Z</time></trkpt><trkpt lat="44.0323478" lon="12.4538689"><ele>49.0</ele><time>2026-04-19T08:21:43.389Z</time></trkpt><trkpt lat="44.0322927" lon="12.4539206"><ele>49.33333333333333</ele><time>2026-04-19T08:21:44.382Z</time></trkpt><trkpt lat="44.032236" lon="12.4539754"><ele>49.666666666666664</ele><time>2026-04-19T08:21:45.384Z</time></trkpt><trkpt lat="44.0321898" lon="12.4540376"><ele>50.0</ele><time>2026-04-19T08:21:46.386Z</time></trkpt><trkpt lat="44.0321399" lon="12.454171"><ele>50.33333333333333</ele><time>2026-04-19T08:21:48.386Z</time></trkpt><trkpt lat="44.0321717" lon="12.4542921"><ele>50.666666666666664</ele><time>2026-04-19T08:21:50.39Z</time></trkpt><trkpt lat="44.0322486" lon="12.4544102"><ele>51.0</ele><time>2026-04-19T08:21:52.382Z</time></trkpt><trkpt lat="44.0322924" lon="12.4544736"><ele>51.0</ele><time>2026-04-19T08:21:53.388Z</time></trkpt><trkpt lat="44.0323323" lon="12.4545434"><ele>51.0</ele><time>2026-04-19T08:21:54.385Z</time></trkpt><trkpt lat="44.0323655" lon="12.4546216"><ele>51.0</ele><time>2026-04-19T08:21:55.386Z</time></trkpt><trkpt lat="44.0323933" lon="12.4547052"><ele>51.0</ele><time>2026-04-19T08:21:56.385Z</time></trkpt><trkpt lat="44.0324297" lon="12.4547864"><ele>51.0</ele><time>2026-04-19T08:21:57.389Z</time></trkpt><trkpt lat="44.0324654" lon="12.454875"><ele>51.0</ele><time>2026-04-19T08:21:58.386Z</time></trkpt><trkpt lat="44.0325017" lon="12.4549664"><ele>51.0</ele><time>2026-04-19T08:21:59.38Z</time></trkpt><trkpt lat="44.0325377" lon="12.45507"><ele>50.8</ele><time>2026-04-19T08:22:00.381Z</time></trkpt><trkpt lat="44.0325821" lon="12.45518"><ele>50.599999999999994</ele><time>2026-04-19T08:22:01.384Z</time></trkpt><trkpt lat="44.0326222" lon="12.455296"><ele>50.4</ele><time>2026-04-19T08:22:02.385Z</time></trkpt><trkpt lat="44.0326666" lon="12.4554163"><ele>50.2</ele><time>2026-04-19T08:22:03.384Z</time></trkpt><trkpt lat="44.0327125" lon="12.4555367"><ele>50.0</ele><time>2026-04-19T08:22:04.386Z</time></trkpt><trkpt lat="44.0327612" lon="12.4556635"><ele>50.0</ele><time>2026-04-19T08:22:05.383Z</time></trkpt><trkpt lat="44.0328116" lon="12.4557974"><ele>50.0</ele><time>2026-04-19T08:22:06.383Z</time></trkpt><trkpt lat="44.032862" lon="12.4559312"><ele>50.0</ele><time>2026-04-19T08:22:07.386Z</time></trkpt><trkpt lat="44.0329107" lon="12.4560617"><ele>50.0</ele><time>2026-04-19T08:22:08.385Z</time></trkpt><trkpt lat="44.0329592" lon="12.4561922"><ele>50.0</ele><time>2026-04-19T08:22:09.379Z</time></trkpt><trkpt lat="44.0330105" lon="12.4563243"><ele>50.0</ele><time>2026-04-19T08:22:10.384Z</time></trkpt><trkpt lat="44.0330567" lon="12.4564546"><ele>50.0</ele><time>2026-04-19T08:22:11.387Z</time></trkpt><trkpt lat="44.0331036" lon="12.4565875"><ele>50.0</ele><time>2026-04-19T08:22:12.38Z</time></trkpt><trkpt lat="44.0331543" lon="12.4567239"><ele>50.0</ele><time>2026-04-19T08:22:13.391Z</time></trkpt><trkpt lat="44.0332074" lon="12.4568585"><ele>50.0</ele><time>2026-04-19T08:22:14.388Z</time></trkpt><trkpt lat="44.0332575" lon="12.4569932"><ele>50.2</ele><time>2026-04-19T08:22:15.386Z</time></trkpt><trkpt lat="44.0333059" lon="12.4571253"><ele>50.4</ele><time>2026-04-19T08:22:16.392Z</time></trkpt><trkpt lat="44.0333518" lon="12.4572604"><ele>50.599999999999994</ele><time>2026-04-19T08:22:17.383Z</time></trkpt><trkpt lat="44.0333965" lon="12.4573948"><ele>50.8</ele><time>2026-04-19T08:22:18.383Z</time></trkpt><trkpt lat="44.0334403" lon="12.4575291"><ele>51.0</ele><time>2026-04-19T08:22:19.382Z</time></trkpt><trkpt lat="44.0334801" lon="12.4576708"><ele>51.0</ele><time>2026-04-19T08:22:20.386Z</time></trkpt><trkpt lat="44.0335124" lon="12.4578169"><ele>51.0</ele><time>2026-04-19T08:22:21.385Z</time></trkpt><trkpt lat="44.033548" lon="12.4579625"><ele>51.0</ele><time>2026-04-19T08:22:22.386Z</time></trkpt><trkpt lat="44.0335731" lon="12.4581152"><ele>51.0</ele><time>2026-04-19T08:22:23.389Z</time></trkpt><trkpt lat="44.0335922" lon="12.4582672"><ele>51.0</ele><time>2026-04-19T08:22:24.38Z</time></trkpt><trkpt lat="44.0336018" lon="12.4584195"><ele>50.666666666666664</ele><time>2026-04-19T08:22:25.382Z</time></trkpt><trkpt lat="44.0336024" lon="12.4585686"><ele>50.33333333333333</ele><time>2026-04-19T08:22:26.386Z</time></trkpt><trkpt lat="44.0336014" lon="12.4586992"><ele>50.0</ele><time>2026-04-19T08:22:27.39Z</time></trkpt><trkpt lat="44.0336037" lon="12.4588159"><ele>49.666666666666664</ele><time>2026-04-19T08:22:28.384Z</time></trkpt><trkpt lat="44.0336095" lon="12.4589242"><ele>49.33333333333333</ele><time>2026-04-19T08:22:29.395Z</time></trkpt><trkpt lat="44.0336107" lon="12.4590177"><ele>49.0</ele><time>2026-04-19T08:22:30.381Z</time></trkpt><trkpt lat="44.0335394" lon="12.4591469"><ele>48.99999999999999</ele><time>2026-04-19T08:22:32.381Z</time></trkpt><trkpt lat="44.0334702" lon="12.4591861"><ele>49.0</ele><time>2026-04-19T08:22:33.384Z</time></trkpt><trkpt lat="44.0333957" lon="12.459226"><ele>49.0</ele><time>2026-04-19T08:22:34.386Z</time></trkpt><trkpt lat="44.0333276" lon="12.459279"><ele>49.0</ele><time>2026-04-19T08:22:35.386Z</time></trkpt><trkpt lat="44.0332638" lon="12.45935"><ele>48.99999999999999</ele><time>2026-04-19T08:22:36.385Z</time></trkpt><trkpt lat="44.033204" lon="12.4594367"><ele>49.0</ele><time>2026-04-19T08:22:37.386Z</time></trkpt><trkpt lat="44.0331515" lon="12.459535"><ele>48.99999999999999</ele><time>2026-04-19T08:22:38.382Z</time></trkpt><trkpt lat="44.0330954" lon="12.4596317"><ele>49.0</ele><time>2026-04-19T08:22:39.382Z</time></trkpt><trkpt lat="44.0330359" lon="12.4597239"><ele>49.0</ele><time>2026-04-19T08:22:40.38Z</time></trkpt><trkpt lat="44.0329779" lon="12.4597986"><ele>49.0</ele><time>2026-04-19T08:22:41.391Z</time></trkpt><trkpt lat="44.0329203" lon="12.459864"><ele>48.99999999999999</ele><time>2026-04-19T08:22:42.38Z</time></trkpt><trkpt lat="44.0328631" lon="12.4599226"><ele>49.0</ele><time>2026-04-19T08:22:43.386Z</time></trkpt><trkpt lat="44.0328044" lon="12.4599774"><ele>48.99999999999999</ele><time>2026-04-19T08:22:44.381Z</time></trkpt><trkpt lat="44.0327403" lon="12.4600354"><ele>49.0</ele><time>2026-04-19T08:22:45.382Z</time></trkpt><trkpt lat="44.0326703" lon="12.4600987"><ele>49.0</ele><time>2026-04-19T08:22:46.38Z</time></trkpt><trkpt lat="44.0325943" lon="12.4601645"><ele>49.0</ele><time>2026-04-19T08:22:47.389Z</time></trkpt><trkpt lat="44.0325209" lon="12.4602248"><ele>48.99999999999999</ele><time>2026-04-19T08:22:48.384Z</time></trkpt><trkpt lat="44.0324513" lon="12.4602862"><ele>49.0</ele><time>2026-04-19T08:22:49.385Z</time></trkpt><trkpt lat="44.0323906" lon="12.4603408"><ele>48.99999999999999</ele><time>2026-04-19T08:22:50.385Z</time></trkpt><trkpt lat="44.0323127" lon="12.4604347"><ele>49.0</ele><time>2026-04-19T08:22:52.387Z</time></trkpt><trkpt lat="44.0323154" lon="12.4605594"><ele>49.0</ele><time>2026-04-19T08:22:55.38Z</time></trkpt><trkpt lat="44.0323735" lon="12.4606806"><ele>49.0</ele><time>2026-04-19T08:22:57.397Z</time></trkpt><trkpt lat="44.0324183" lon="12.4607658"><ele>48.99999999999999</ele><time>2026-04-19T08:22:58.386Z</time></trkpt><trkpt lat="44.0324595" lon="12.4608511"><ele>49.0</ele><time>2026-04-19T08:22:59.38Z</time></trkpt><trkpt lat="44.0324988" lon="12.460945"><ele>49.0</ele><time>2026-04-19T08:23:00.384Z</time></trkpt><trkpt lat="44.032553" lon="12.4610476"><ele>49.0</ele><time>2026-04-19T08:23:01.385Z</time></trkpt><trkpt lat="44.0326112" lon="12.4611545"><ele>49.0</ele><time>2026-04-19T08:23:02.381Z</time></trkpt><trkpt lat="44.0326673" lon="12.4612594"><ele>49.0</ele><time>2026-04-19T08:23:03.382Z</time></trkpt><trkpt lat="44.0327257" lon="12.461364"><ele>49.0</ele><time>2026-04-19T08:23:04.387Z</time></trkpt><trkpt lat="44.0327849" lon="12.461468"><ele>48.6</ele><time>2026-04-19T08:23:05.39Z</time></trkpt><trkpt lat="44.0328518" lon="12.4615699"><ele>48.2</ele><time>2026-04-19T08:23:06.385Z</time></trkpt><trkpt lat="44.0329223" lon="12.4616727"><ele>47.800000000000004</ele><time>2026-04-19T08:23:07.383Z</time></trkpt><trkpt lat="44.0329894" lon="12.4617723"><ele>47.400000000000006</ele><time>2026-04-19T08:23:08.383Z</time></trkpt><trkpt lat="44.0330569" lon="12.4618681"><ele>47.0</ele><time>2026-04-19T08:23:09.39Z</time></trkpt><trkpt lat="44.0331111" lon="12.4619555"><ele>47.0</ele><time>2026-04-19T08:23:10.386Z</time></trkpt><trkpt lat="44.0331545" lon="12.4620211"><ele>47.0</ele><time>2026-04-19T08:23:11.383Z</time></trkpt><trkpt lat="44.0332062" lon="12.4621169"><ele>47.0</ele><time>2026-04-19T08:23:13.382Z</time></trkpt><trkpt lat="44.0331899" lon="12.4622213"><ele>47.0</ele><time>2026-04-19T08:23:15.382Z</time></trkpt><trkpt lat="44.0330929" lon="12.4623479"><ele>47.0</ele><time>2026-04-19T08:23:17.388Z</time></trkpt><trkpt lat="44.0330307" lon="12.462422"><ele>47.0</ele><time>2026-04-19T08:23:18.384Z</time></trkpt><trkpt lat="44.0329681" lon="12.462506"><ele>46.8</ele><time>2026-04-19T08:23:19.385Z</time></trkpt><trkpt lat="44.0329031" lon="12.4626022"><ele>46.6</ele><time>2026-04-19T08:23:20.389Z</time></trkpt><trkpt lat="44.0328317" lon="12.4627012"><ele>46.4</ele><time>2026-04-19T08:23:21.385Z</time></trkpt><trkpt lat="44.0327574" lon="12.4628035"><ele>46.199999999999996</ele><time>2026-04-19T08:23:22.381Z</time></trkpt><trkpt lat="44.0326804" lon="12.4629058"><ele>46.0</ele><time>2026-04-19T08:23:23.387Z</time></trkpt><trkpt lat="44.0326092" lon="12.4630088"><ele>46.0</ele><time>2026-04-19T08:23:24.383Z</time></trkpt><trkpt lat="44.0325395" lon="12.4631051"><ele>46.0</ele><time>2026-04-19T08:23:25.382Z</time></trkpt><trkpt lat="44.0324729" lon="12.4631978"><ele>46.0</ele><time>2026-04-19T08:23:26.383Z</time></trkpt><trkpt lat="44.0324061" lon="12.4632908"><ele>46.0</ele><time>2026-04-19T08:23:27.383Z</time></trkpt><trkpt lat="44.0323445" lon="12.463385"><ele>46.0</ele><time>2026-04-19T08:23:28.385Z</time></trkpt><trkpt lat="44.0322803" lon="12.4634718"><ele>46.0</ele><time>2026-04-19T08:23:29.389Z</time></trkpt><trkpt lat="44.0322168" lon="12.4635578"><ele>46.0</ele><time>2026-04-19T08:23:30.387Z</time></trkpt><trkpt lat="44.0321593" lon="12.4636346"><ele>46.0</ele><time>2026-04-19T08:23:31.386Z</time></trkpt><trkpt lat="44.0321039" lon="12.4637055"><ele>46.0</ele><time>2026-04-19T08:23:32.383Z</time></trkpt><trkpt lat="44.0320522" lon="12.4637675"><ele>46.0</ele><time>2026-04-19T08:23:33.391Z</time></trkpt><trkpt lat="44.0319665" lon="12.4638653"><ele>46.0</ele><time>2026-04-19T08:23:35.387Z</time></trkpt><trkpt lat="44.0318922" lon="12.4639628"><ele>46.0</ele><time>2026-04-19T08:23:37.384Z</time></trkpt><trkpt lat="44.0318214" lon="12.4640693"><ele>46.0</ele><time>2026-04-19T08:23:39.385Z</time></trkpt><trkpt lat="44.031746" lon="12.4641748"><ele>46.0</ele><time>2026-04-19T08:23:41.388Z</time></trkpt><trkpt lat="44.0316774" lon="12.464288"><ele>46.0</ele><time>2026-04-19T08:23:43.39Z</time></trkpt><trkpt lat="44.0316095" lon="12.4644117"><ele>46.0</ele><time>2026-04-19T08:23:45.38Z</time></trkpt><trkpt lat="44.0315385" lon="12.4645278"><ele>46.25</ele><time>2026-04-19T08:23:47.386Z</time></trkpt><trkpt lat="44.0314604" lon="12.4646348"><ele>46.5</ele><time>2026-04-19T08:23:49.387Z</time></trkpt><trkpt lat="44.0313805" lon="12.4647428"><ele>46.75</ele><time>2026-04-19T08:23:51.391Z</time></trkpt><trkpt lat="44.031288" lon="12.4648425"><ele>47.0</ele><time>2026-04-19T08:23:53.385Z</time></trkpt><trkpt lat="44.0311949" lon="12.4649294"><ele>47.0</ele><time>2026-04-19T08:23:55.386Z</time></trkpt><trkpt lat="44.0311026" lon="12.4650184"><ele>47.0</ele><time>2026-04-19T08:23:57.384Z</time></trkpt><trkpt lat="44.0309942" lon="12.4650683"><ele>47.0</ele><time>2026-04-19T08:23:59.383Z</time></trkpt><trkpt lat="44.0308811" lon="12.4650668"><ele>47.0</ele><time>2026-04-19T08:24:01.384Z</time></trkpt><trkpt lat="44.030773" lon="12.4650329"><ele>47.0</ele><time>2026-04-19T08:24:03.384Z</time></trkpt><trkpt lat="44.0306735" lon="12.4649831"><ele>47.0</ele><time>2026-04-19T08:24:05.385Z</time></trkpt><trkpt lat="44.0305721" lon="12.4649356"><ele>47.0</ele><time>2026-04-19T08:24:07.385Z</time></trkpt><trkpt lat="44.0304704" lon="12.4649033"><ele>47.0</ele><time>2026-04-19T08:24:09.384Z</time></trkpt><trkpt lat="44.0303628" lon="12.4649036"><ele>47.0</ele><time>2026-04-19T08:24:11.379Z</time></trkpt><trkpt lat="44.0302447" lon="12.4649254"><ele>47.0</ele><time>2026-04-19T08:24:13.386Z</time></trkpt><trkpt lat="44.0301238" lon="12.4649665"><ele>47.0</ele><time>2026-04-19T08:24:15.38Z</time></trkpt><trkpt lat="44.0300027" lon="12.4650257"><ele>47.0</ele><time>2026-04-19T08:24:17.384Z</time></trkpt><trkpt lat="44.0299413" lon="12.4650607"><ele>47.0</ele><time>2026-04-19T08:24:18.385Z</time></trkpt><trkpt lat="44.0298799" lon="12.4650981"><ele>47.0</ele><time>2026-04-19T08:24:19.382Z</time></trkpt><trkpt lat="44.0298181" lon="12.4651388"><ele>47.166666666666664</ele><time>2026-04-19T08:24:20.382Z</time></trkpt><trkpt lat="44.0297555" lon="12.4651835"><ele>47.33333333333333</ele><time>2026-04-19T08:24:21.378Z</time></trkpt><trkpt lat="44.0296965" lon="12.465226"><ele>47.5</ele><time>2026-04-19T08:24:22.378Z</time></trkpt><trkpt lat="44.0296308" lon="12.4652894"><ele>47.666666666666664</ele><time>2026-04-19T08:24:23.381Z</time></trkpt><trkpt lat="44.0295684" lon="12.4653541"><ele>47.833333333333336</ele><time>2026-04-19T08:24:24.388Z</time></trkpt><trkpt lat="44.0295073" lon="12.4654224"><ele>48.0</ele><time>2026-04-19T08:24:25.38Z</time></trkpt><trkpt lat="44.0294476" lon="12.4654923"><ele>48.0</ele><time>2026-04-19T08:24:26.387Z</time></trkpt><trkpt lat="44.0293894" lon="12.4655666"><ele>48.0</ele><time>2026-04-19T08:24:27.382Z</time></trkpt><trkpt lat="44.0293299" lon="12.4656459"><ele>48.0</ele><time>2026-04-19T08:24:28.387Z</time></trkpt><trkpt lat="44.0292692" lon="12.465721"><ele>48.0</ele><time>2026-04-19T08:24:29.384Z</time></trkpt><trkpt lat="44.0292021" lon="12.4657999"><ele>48.0</ele><time>2026-04-19T08:24:30.388Z</time></trkpt><trkpt lat="44.0291352" lon="12.46588"><ele>48.0</ele><time>2026-04-19T08:24:31.38Z</time></trkpt><trkpt lat="44.0290746" lon="12.4659627"><ele>48.0</ele><time>2026-04-19T08:24:32.382Z</time></trkpt><trkpt lat="44.0290099" lon="12.4660379"><ele>48.0</ele><time>2026-04-19T08:24:33.385Z</time></trkpt><trkpt lat="44.0289477" lon="12.4661038"><ele>48.0</ele><time>2026-04-19T08:24:34.383Z</time></trkpt><trkpt lat="44.0288995" lon="12.4661701"><ele>48.0</ele><time>2026-04-19T08:24:35.389Z</time></trkpt><trkpt lat="44.0288307" lon="12.4662827"><ele>48.0</ele><time>2026-04-19T08:24:37.381Z</time></trkpt><trkpt lat="44.028782" lon="12.4663582"><ele>48.0</ele><time>2026-04-19T08:24:39.382Z</time></trkpt><trkpt lat="44.0287444" lon="12.4664327"><ele>47.8</ele><time>2026-04-19T08:24:43.388Z</time></trkpt><trkpt lat="44.0286915" lon="12.4665648"><ele>47.599999999999994</ele><time>2026-04-19T08:24:46.385Z</time></trkpt><trkpt lat="44.0285962" lon="12.4666872"><ele>47.400000000000006</ele><time>2026-04-19T08:24:48.38Z</time></trkpt><trkpt lat="44.0285341" lon="12.4667511"><ele>47.2</ele><time>2026-04-19T08:24:49.382Z</time></trkpt><trkpt lat="44.0284592" lon="12.4668181"><ele>47.0</ele><time>2026-04-19T08:24:50.388Z</time></trkpt><trkpt lat="44.0283784" lon="12.4668891"><ele>47.2</ele><time>2026-04-19T08:24:51.384Z</time></trkpt><trkpt lat="44.0282909" lon="12.4669588"><ele>47.400000000000006</ele><time>2026-04-19T08:24:52.391Z</time></trkpt><trkpt lat="44.0282014" lon="12.4670356"><ele>47.599999999999994</ele><time>2026-04-19T08:24:53.384Z</time></trkpt><trkpt lat="44.028111" lon="12.4671196"><ele>47.8</ele><time>2026-04-19T08:24:54.384Z</time></trkpt><trkpt lat="44.0280271" lon="12.4672077"><ele>48.0</ele><time>2026-04-19T08:24:55.385Z</time></trkpt><trkpt lat="44.0279435" lon="12.4673038"><ele>48.4</ele><time>2026-04-19T08:24:56.383Z</time></trkpt><trkpt lat="44.0278605" lon="12.4673986"><ele>48.8</ele><time>2026-04-19T08:24:57.386Z</time></trkpt><trkpt lat="44.0277784" lon="12.4674869"><ele>49.2</ele><time>2026-04-19T08:24:58.385Z</time></trkpt><trkpt lat="44.0277001" lon="12.4675649"><ele>49.6</ele><time>2026-04-19T08:24:59.381Z</time></trkpt><trkpt lat="44.0276281" lon="12.4676438"><ele>50.0</ele><time>2026-04-19T08:25:00.381Z</time></trkpt><trkpt lat="44.0275639" lon="12.4677107"><ele>50.00000000000001</ele><time>2026-04-19T08:25:01.383Z</time></trkpt><trkpt lat="44.0275064" lon="12.4677745"><ele>50.0</ele><time>2026-04-19T08:25:02.387Z</time></trkpt><trkpt lat="44.0274188" lon="12.4678728"><ele>50.0</ele><time>2026-04-19T08:25:04.383Z</time></trkpt><trkpt lat="44.0273251" lon="12.4679656"><ele>50.0</ele><time>2026-04-19T08:25:06.387Z</time></trkpt><trkpt lat="44.0272715" lon="12.4680158"><ele>50.00000000000001</ele><time>2026-04-19T08:25:07.382Z</time></trkpt><trkpt lat="44.0272138" lon="12.4680681"><ele>50.0</ele><time>2026-04-19T08:25:08.385Z</time></trkpt><trkpt lat="44.0271506" lon="12.4681235"><ele>50.333333333333336</ele><time>2026-04-19T08:25:09.388Z</time></trkpt><trkpt lat="44.0270866" lon="12.4681844"><ele>50.66666666666667</ele><time>2026-04-19T08:25:10.381Z</time></trkpt><trkpt lat="44.0270222" lon="12.4682581"><ele>51.0</ele><time>2026-04-19T08:25:11.381Z</time></trkpt><trkpt lat="44.0269556" lon="12.4683345"><ele>51.33333333333333</ele><time>2026-04-19T08:25:12.382Z</time></trkpt><trkpt lat="44.0268871" lon="12.4684151"><ele>51.666666666666664</ele><time>2026-04-19T08:25:13.385Z</time></trkpt><trkpt lat="44.0268251" lon="12.4685022"><ele>52.0</ele><time>2026-04-19T08:25:14.387Z</time></trkpt><trkpt lat="44.0267634" lon="12.468595"><ele>52.0</ele><time>2026-04-19T08:25:15.381Z</time></trkpt><trkpt lat="44.0267007" lon="12.4686837"><ele>52.0</ele><time>2026-04-19T08:25:16.387Z</time></trkpt><trkpt lat="44.0266375" lon="12.4687751"><ele>52.0</ele><time>2026-04-19T08:25:17.381Z</time></trkpt><trkpt lat="44.026579" lon="12.4688687"><ele>52.0</ele><time>2026-04-19T08:25:18.386Z</time></trkpt><trkpt lat="44.0265255" lon="12.46897"><ele>52.0</ele><time>2026-04-19T08:25:19.379Z</time></trkpt><trkpt lat="44.0264779" lon="12.4690802"><ele>52.0</ele><time>2026-04-19T08:25:20.385Z</time></trkpt><trkpt lat="44.026437" lon="12.4692007"><ele>52.0</ele><time>2026-04-19T08:25:21.383Z</time></trkpt><trkpt lat="44.0264022" lon="12.4693263"><ele>52.0</ele><time>2026-04-19T08:25:22.383Z</time></trkpt><trkpt lat="44.0263732" lon="12.4694511"><ele>52.0</ele><time>2026-04-19T08:25:23.39Z</time></trkpt><trkpt lat="44.0263407" lon="12.4695697"><ele>52.0</ele><time>2026-04-19T08:25:24.385Z</time></trkpt><trkpt lat="44.026303" lon="12.4696882"><ele>51.8</ele><time>2026-04-19T08:25:25.381Z</time></trkpt><trkpt lat="44.0262583" lon="12.4697982"><ele>51.6</ele><time>2026-04-19T08:25:26.382Z</time></trkpt><trkpt lat="44.0262087" lon="12.4699018"><ele>51.4</ele><time>2026-04-19T08:25:27.39Z</time></trkpt><trkpt lat="44.0261518" lon="12.4700065"><ele>51.199999999999996</ele><time>2026-04-19T08:25:28.385Z</time></trkpt><trkpt lat="44.0260897" lon="12.4701099"><ele>51.0</ele><time>2026-04-19T08:25:29.388Z</time></trkpt><trkpt lat="44.0260242" lon="12.4702145"><ele>51.0</ele><time>2026-04-19T08:25:30.384Z</time></trkpt><trkpt lat="44.0259554" lon="12.4703198"><ele>51.0</ele><time>2026-04-19T08:25:31.384Z</time></trkpt><trkpt lat="44.0258868" lon="12.4704255"><ele>51.0</ele><time>2026-04-19T08:25:32.38Z</time></trkpt><trkpt lat="44.025818" lon="12.4705253"><ele>51.0</ele><time>2026-04-19T08:25:33.385Z</time></trkpt><trkpt lat="44.0257448" lon="12.4706205"><ele>51.0</ele><time>2026-04-19T08:25:34.383Z</time></trkpt><trkpt lat="44.0256722" lon="12.4707216"><ele>51.0</ele><time>2026-04-19T08:25:35.388Z</time></trkpt><trkpt lat="44.0255939" lon="12.4708202"><ele>51.0</ele><time>2026-04-19T08:25:36.384Z</time></trkpt><trkpt lat="44.0255164" lon="12.470919"><ele>51.0</ele><time>2026-04-19T08:25:37.381Z</time></trkpt><trkpt lat="44.0254422" lon="12.4710091"><ele>51.0</ele><time>2026-04-19T08:25:38.387Z</time></trkpt><trkpt lat="44.0253725" lon="12.4710949"><ele>51.0</ele><time>2026-04-19T08:25:39.381Z</time></trkpt><trkpt lat="44.0253082" lon="12.4711723"><ele>51.0</ele><time>2026-04-19T08:25:40.382Z</time></trkpt><trkpt lat="44.0252554" lon="12.4712468"><ele>51.0</ele><time>2026-04-19T08:25:41.387Z</time></trkpt><trkpt lat="44.0252136" lon="12.4713178"><ele>51.0</ele><time>2026-04-19T08:25:42.392Z</time></trkpt><trkpt lat="44.0251527" lon="12.4714243"><ele>51.0</ele><time>2026-04-19T08:25:44.38Z</time></trkpt><trkpt lat="44.0251097" lon="12.4715096"><ele>51.0</ele><time>2026-04-19T08:25:47.384Z</time></trkpt><trkpt lat="44.0250518" lon="12.4715536"><ele>51.0</ele><time>2026-04-19T08:26:50.38Z</time></trkpt><trkpt lat="44.0249853" lon="12.4716236"><ele>51.0</ele><time>2026-04-19T08:26:52.383Z</time></trkpt><trkpt lat="44.0249212" lon="12.4717183"><ele>51.0</ele><time>2026-04-19T08:26:54.388Z</time></trkpt><trkpt lat="44.0248469" lon="12.4718209"><ele>51.0</ele><time>2026-04-19T08:26:56.379Z</time></trkpt><trkpt lat="44.0247881" lon="12.4719031"><ele>51.0</ele><time>2026-04-19T08:26:58.383Z</time></trkpt><trkpt lat="44.0247665" lon="12.4720001"><ele>51.0</ele><time>2026-04-19T08:27:00.384Z</time></trkpt><trkpt lat="44.0247816" lon="12.4721038"><ele>51.0</ele><time>2026-04-19T08:27:02.382Z</time></trkpt><trkpt lat="44.0247908" lon="12.4722439"><ele>51.0</ele><time>2026-04-19T08:27:04.393Z</time></trkpt><trkpt lat="44.0247906" lon="12.472383"><ele>51.0</ele><time>2026-04-19T08:27:06.383Z</time></trkpt><trkpt lat="44.0247884" lon="12.4725405"><ele>51.0</ele><time>2026-04-19T08:27:08.385Z</time></trkpt><trkpt lat="44.0247744" lon="12.4727063"><ele>51.0</ele><time>2026-04-19T08:27:10.377Z</time></trkpt><trkpt lat="44.0247644" lon="12.4728608"><ele>51.0</ele><time>2026-04-19T08:27:12.386Z</time></trkpt><trkpt lat="44.0247526" lon="12.4730113"><ele>51.0</ele><time>2026-04-19T08:27:14.388Z</time></trkpt><trkpt lat="44.0247442" lon="12.4731647"><ele>51.0</ele><time>2026-04-19T08:27:16.386Z</time></trkpt><trkpt lat="44.0247486" lon="12.4733151"><ele>51.0</ele><time>2026-04-19T08:27:18.386Z</time></trkpt><trkpt lat="44.024754" lon="12.4734719"><ele>51.0</ele><time>2026-04-19T08:27:20.392Z</time></trkpt><trkpt lat="44.0247564" lon="12.4736241"><ele>51.0</ele><time>2026-04-19T08:27:22.382Z</time></trkpt><trkpt lat="44.0247341" lon="12.4737838"><ele>51.5</ele><time>2026-04-19T08:27:24.381Z</time></trkpt><trkpt lat="44.0246837" lon="12.4739326"><ele>52.0</ele><time>2026-04-19T08:27:26.384Z</time></trkpt><trkpt lat="44.0246119" lon="12.4740541"><ele>52.5</ele><time>2026-04-19T08:27:28.39Z</time></trkpt><trkpt lat="44.0245291" lon="12.4741701"><ele>53.0</ele><time>2026-04-19T08:27:30.382Z</time></trkpt><trkpt lat="44.0244528" lon="12.4742769"><ele>53.0</ele><time>2026-04-19T08:27:32.386Z</time></trkpt><trkpt lat="44.024386" lon="12.4743775"><ele>53.0</ele><time>2026-04-19T08:27:34.391Z</time></trkpt><trkpt lat="44.024301" lon="12.4744478"><ele>53.0</ele><time>2026-04-19T08:27:36.388Z</time></trkpt><trkpt lat="44.0242067" lon="12.4745168"><ele>53.0</ele><time>2026-04-19T08:27:38.383Z</time></trkpt><trkpt lat="44.0241224" lon="12.4746056"><ele>53.0</ele><time>2026-04-19T08:27:40.385Z</time></trkpt><trkpt lat="44.0240349" lon="12.4746878"><ele>54.66666666666667</ele><time>2026-04-19T08:27:42.386Z</time></trkpt><trkpt lat="44.0239556" lon="12.4747599"><ele>56.333333333333336</ele><time>2026-04-19T08:27:44.382Z</time></trkpt><trkpt lat="44.0238992" lon="12.4748183"><ele>58.0</ele><time>2026-04-19T08:27:46.386Z</time></trkpt><trkpt lat="44.0238414" lon="12.4749039"><ele>59.66666666666667</ele><time>2026-04-19T08:27:55.378Z</time></trkpt><trkpt lat="44.023793" lon="12.4749927"><ele>61.333333333333336</ele><time>2026-04-19T08:27:58.386Z</time></trkpt><trkpt lat="44.0237411" lon="12.4750982"><ele>63.0</ele><time>2026-04-19T08:28:01.386Z</time></trkpt><trkpt lat="44.0237098" lon="12.4751906"><ele>63.0</ele><time>2026-04-19T08:28:09.387Z</time></trkpt><trkpt lat="44.0237761" lon="12.47518"><ele>63.0</ele><time>2026-04-19T08:28:13.38Z</time></trkpt><trkpt lat="44.0238012" lon="12.4750537"><ele>63.0</ele><time>2026-04-19T08:28:15.381Z</time></trkpt><trkpt lat="44.0238393" lon="12.4749491"><ele>63.0</ele><time>2026-04-19T08:28:17.383Z</time></trkpt><trkpt lat="44.0238918" lon="12.4748633"><ele>63.0</ele><time>2026-04-19T08:28:19.391Z</time></trkpt><trkpt lat="44.023966" lon="12.4747781"><ele>63.0</ele><time>2026-04-19T08:28:21.385Z</time></trkpt><trkpt lat="44.0240177" lon="12.4747242"><ele>63.0</ele><time>2026-04-19T08:28:22.384Z</time></trkpt><trkpt lat="44.0240718" lon="12.4746666"><ele>63.0</ele><time>2026-04-19T08:28:23.383Z</time></trkpt><trkpt lat="44.0241279" lon="12.474611"><ele>63.0</ele><time>2026-04-19T08:28:24.384Z</time></trkpt><trkpt lat="44.0241822" lon="12.474559"><ele>63.0</ele><time>2026-04-19T08:28:25.385Z</time></trkpt><trkpt lat="44.0242923" lon="12.4744837"><ele>63.0</ele><time>2026-04-19T08:28:27.385Z</time></trkpt><trkpt lat="44.0243998" lon="12.4744928"><ele>63.0</ele><time>2026-04-19T08:28:29.386Z</time></trkpt><trkpt lat="44.0244904" lon="12.4745998"><ele>61.8</ele><time>2026-04-19T08:28:31.387Z</time></trkpt><trkpt lat="44.0245322" lon="12.4746678"><ele>60.599999999999994</ele><time>2026-04-19T08:28:32.38Z</time></trkpt><trkpt lat="44.0246139" lon="12.4747984"><ele>59.400000000000006</ele><time>2026-04-19T08:28:34.386Z</time></trkpt><trkpt lat="44.0246899" lon="12.4749096"><ele>58.2</ele><time>2026-04-19T08:28:36.383Z</time></trkpt><trkpt lat="44.0247528" lon="12.4750029"><ele>57.0</ele><time>2026-04-19T08:28:38.388Z</time></trkpt><trkpt lat="44.0248209" lon="12.4751098"><ele>57.0</ele><time>2026-04-19T08:28:40.391Z</time></trkpt><trkpt lat="44.0249031" lon="12.4752448"><ele>57.0</ele><time>2026-04-19T08:28:42.383Z</time></trkpt><trkpt lat="44.0249461" lon="12.4753146"><ele>57.0</ele><time>2026-04-19T08:28:43.383Z</time></trkpt><trkpt lat="44.0249915" lon="12.4753904"><ele>57.0</ele><time>2026-04-19T08:28:44.385Z</time></trkpt><trkpt lat="44.0250409" lon="12.4754715"><ele>57.0</ele><time>2026-04-19T08:28:45.387Z</time></trkpt><trkpt lat="44.025095" lon="12.4755616"><ele>57.0</ele><time>2026-04-19T08:28:46.386Z</time></trkpt><trkpt lat="44.0251481" lon="12.4756509"><ele>56.400000000000006</ele><time>2026-04-19T08:28:47.381Z</time></trkpt><trkpt lat="44.0252055" lon="12.475746"><ele>55.800000000000004</ele><time>2026-04-19T08:28:48.385Z</time></trkpt><trkpt lat="44.0252662" lon="12.4758452"><ele>55.2</ele><time>2026-04-19T08:28:49.382Z</time></trkpt><trkpt lat="44.0253269" lon="12.4759489"><ele>54.6</ele><time>2026-04-19T08:28:50.389Z</time></trkpt><trkpt lat="44.0253914" lon="12.476057"><ele>54.0</ele><time>2026-04-19T08:28:51.38Z</time></trkpt><trkpt lat="44.0254581" lon="12.4761667"><ele>54.2</ele><time>2026-04-19T08:28:52.381Z</time></trkpt><trkpt lat="44.0255296" lon="12.4762757"><ele>54.400000000000006</ele><time>2026-04-19T08:28:53.384Z</time></trkpt><trkpt lat="44.0256003" lon="12.4763837"><ele>54.6</ele><time>2026-04-19T08:28:54.386Z</time></trkpt><trkpt lat="44.0256702" lon="12.4764943"><ele>54.8</ele><time>2026-04-19T08:28:55.385Z</time></trkpt><trkpt lat="44.0257372" lon="12.4766044"><ele>55.0</ele><time>2026-04-19T08:28:56.385Z</time></trkpt><trkpt lat="44.0258021" lon="12.4767167"><ele>54.2</ele><time>2026-04-19T08:28:57.385Z</time></trkpt><trkpt lat="44.0258709" lon="12.4768274"><ele>53.4</ele><time>2026-04-19T08:28:58.387Z</time></trkpt><trkpt lat="44.0259405" lon="12.4769413"><ele>52.599999999999994</ele><time>2026-04-19T08:28:59.388Z</time></trkpt><trkpt lat="44.026008" lon="12.4770584"><ele>51.8</ele><time>2026-04-19T08:29:00.387Z</time></trkpt><trkpt lat="44.0260769" lon="12.4771709"><ele>51.0</ele><time>2026-04-19T08:29:01.382Z</time></trkpt><trkpt lat="44.0261452" lon="12.4772837"><ele>51.0</ele><time>2026-04-19T08:29:02.389Z</time></trkpt><trkpt lat="44.0262125" lon="12.4773953"><ele>51.0</ele><time>2026-04-19T08:29:03.382Z</time></trkpt><trkpt lat="44.0262777" lon="12.4775121"><ele>51.0</ele><time>2026-04-19T08:29:04.39Z</time></trkpt><trkpt lat="44.0263455" lon="12.4776257"><ele>51.0</ele><time>2026-04-19T08:29:05.384Z</time></trkpt><trkpt lat="44.0264124" lon="12.4777373"><ele>51.0</ele><time>2026-04-19T08:29:06.394Z</time></trkpt><trkpt lat="44.0264811" lon="12.4778453"><ele>50.599999999999994</ele><time>2026-04-19T08:29:07.387Z</time></trkpt><trkpt lat="44.0265446" lon="12.477954"><ele>50.2</ele><time>2026-04-19T08:29:08.381Z</time></trkpt><trkpt lat="44.0266083" lon="12.4780585"><ele>49.8</ele><time>2026-04-19T08:29:09.383Z</time></trkpt><trkpt lat="44.0266688" lon="12.478157"><ele>49.400000000000006</ele><time>2026-04-19T08:29:10.384Z</time></trkpt><trkpt lat="44.0267243" lon="12.4782503"><ele>49.0</ele><time>2026-04-19T08:29:11.383Z</time></trkpt><trkpt lat="44.0267766" lon="12.4783305"><ele>49.0</ele><time>2026-04-19T08:29:12.386Z</time></trkpt><trkpt lat="44.0268244" lon="12.4784063"><ele>49.0</ele><time>2026-04-19T08:29:13.388Z</time></trkpt><trkpt lat="44.0269028" lon="12.4785238"><ele>49.0</ele><time>2026-04-19T08:29:15.387Z</time></trkpt><trkpt lat="44.0269277" lon="12.4786502"><ele>49.0</ele><time>2026-04-19T08:29:17.384Z</time></trkpt><trkpt lat="44.0268852" lon="12.4788153"><ele>49.0</ele><time>2026-04-19T08:29:19.385Z</time></trkpt><trkpt lat="44.0268546" lon="12.4789142"><ele>49.2</ele><time>2026-04-19T08:29:20.385Z</time></trkpt><trkpt lat="44.0268205" lon="12.4790182"><ele>49.400000000000006</ele><time>2026-04-19T08:29:21.388Z</time></trkpt><trkpt lat="44.0267837" lon="12.4791299"><ele>49.6</ele><time>2026-04-19T08:29:22.387Z</time></trkpt><trkpt lat="44.0267474" lon="12.4792497"><ele>49.8</ele><time>2026-04-19T08:29:23.387Z</time></trkpt><trkpt lat="44.026711" lon="12.4793783"><ele>50.0</ele><time>2026-04-19T08:29:24.387Z</time></trkpt><trkpt lat="44.0266751" lon="12.479509"><ele>51.6</ele><time>2026-04-19T08:29:25.387Z</time></trkpt><trkpt lat="44.0266412" lon="12.4796423"><ele>53.2</ele><time>2026-04-19T08:29:26.387Z</time></trkpt><trkpt lat="44.0266081" lon="12.4797755"><ele>54.8</ele><time>2026-04-19T08:29:27.387Z</time></trkpt><trkpt lat="44.0265737" lon="12.4799028"><ele>56.4</ele><time>2026-04-19T08:29:28.384Z</time></trkpt><trkpt lat="44.0265403" lon="12.4800323"><ele>58.0</ele><time>2026-04-19T08:29:29.386Z</time></trkpt><trkpt lat="44.0265047" lon="12.4801591"><ele>58.0</ele><time>2026-04-19T08:29:30.384Z</time></trkpt><trkpt lat="44.0264705" lon="12.480285"><ele>58.0</ele><time>2026-04-19T08:29:31.383Z</time></trkpt><trkpt lat="44.0264379" lon="12.4804112"><ele>58.0</ele><time>2026-04-19T08:29:32.383Z</time></trkpt><trkpt lat="44.0264047" lon="12.4805415"><ele>58.0</ele><time>2026-04-19T08:29:33.384Z</time></trkpt><trkpt lat="44.0263743" lon="12.4806663"><ele>58.0</ele><time>2026-04-19T08:29:34.385Z</time></trkpt><trkpt lat="44.0263435" lon="12.4807904"><ele>57.599999999999994</ele><time>2026-04-19T08:29:35.386Z</time></trkpt><trkpt lat="44.0263162" lon="12.4809029"><ele>57.199999999999996</ele><time>2026-04-19T08:29:36.386Z</time></trkpt><trkpt lat="44.0262926" lon="12.4810001"><ele>56.8</ele><time>2026-04-19T08:29:37.385Z</time></trkpt><trkpt lat="44.0262344" lon="12.4811397"><ele>56.4</ele><time>2026-04-19T08:29:39.388Z</time></trkpt><trkpt lat="44.0261237" lon="12.4811459"><ele>56.0</ele><time>2026-04-19T08:29:41.386Z</time></trkpt><trkpt lat="44.0260479" lon="12.4811126"><ele>56.0</ele><time>2026-04-19T08:29:42.384Z</time></trkpt><trkpt lat="44.0259684" lon="12.4810634"><ele>55.99999999999999</ele><time>2026-04-19T08:29:43.389Z</time></trkpt><trkpt lat="44.0258839" lon="12.4810081"><ele>55.99999999999999</ele><time>2026-04-19T08:29:44.385Z</time></trkpt><trkpt lat="44.0257954" lon="12.4809523"><ele>56.0</ele><time>2026-04-19T08:29:45.385Z</time></trkpt><trkpt lat="44.0257005" lon="12.4808977"><ele>56.0</ele><time>2026-04-19T08:29:46.385Z</time></trkpt><trkpt lat="44.0256062" lon="12.4808447"><ele>58.4</ele><time>2026-04-19T08:29:47.39Z</time></trkpt><trkpt lat="44.0255119" lon="12.4807872"><ele>60.8</ele><time>2026-04-19T08:29:48.388Z</time></trkpt><trkpt lat="44.0254207" lon="12.4807263"><ele>63.199999999999996</ele><time>2026-04-19T08:29:49.381Z</time></trkpt><trkpt lat="44.0253285" lon="12.4806633"><ele>65.6</ele><time>2026-04-19T08:29:50.388Z</time></trkpt><trkpt lat="44.0252356" lon="12.4806014"><ele>68.0</ele><time>2026-04-19T08:29:51.385Z</time></trkpt><trkpt lat="44.0251421" lon="12.4805406"><ele>68.0</ele><time>2026-04-19T08:29:52.39Z</time></trkpt><trkpt lat="44.0250529" lon="12.4804746"><ele>68.0</ele><time>2026-04-19T08:29:53.389Z</time></trkpt><trkpt lat="44.0249638" lon="12.4804055"><ele>68.0</ele><time>2026-04-19T08:29:54.382Z</time></trkpt><trkpt lat="44.0248786" lon="12.4803307"><ele>68.0</ele><time>2026-04-19T08:29:55.387Z</time></trkpt><trkpt lat="44.0247956" lon="12.4802523"><ele>68.0</ele><time>2026-04-19T08:29:56.384Z</time></trkpt><trkpt lat="44.0247129" lon="12.4801708"><ele>71.0</ele><time>2026-04-19T08:29:57.38Z</time></trkpt><trkpt lat="44.0246347" lon="12.4800862"><ele>74.0</ele><time>2026-04-19T08:29:58.385Z</time></trkpt><trkpt lat="44.0245574" lon="12.4800108"><ele>77.0</ele><time>2026-04-19T08:29:59.384Z</time></trkpt><trkpt lat="44.0244813" lon="12.4799431"><ele>80.0</ele><time>2026-04-19T08:30:00.388Z</time></trkpt><trkpt lat="44.024409" lon="12.4798734"><ele>83.0</ele><time>2026-04-19T08:30:01.385Z</time></trkpt><trkpt lat="44.0243432" lon="12.479807"><ele>83.0</ele><time>2026-04-19T08:30:02.389Z</time></trkpt><trkpt lat="44.0242794" lon="12.4797473"><ele>83.0</ele><time>2026-04-19T08:30:03.382Z</time></trkpt><trkpt lat="44.0242242" lon="12.4796967"><ele>83.0</ele><time>2026-04-19T08:30:04.381Z</time></trkpt><trkpt lat="44.0241754" lon="12.4796347"><ele>83.0</ele><time>2026-04-19T08:30:05.385Z</time></trkpt><trkpt lat="44.024133" lon="12.4795647"><ele>83.0</ele><time>2026-04-19T08:30:06.382Z</time></trkpt><trkpt lat="44.0241158" lon="12.4794656"><ele>83.0</ele><time>2026-04-19T08:30:07.381Z</time></trkpt><trkpt lat="44.024088" lon="12.4793761"><ele>83.0</ele><time>2026-04-19T08:30:08.387Z</time></trkpt><trkpt lat="44.0240665" lon="12.4792768"><ele>84.5</ele><time>2026-04-19T08:30:09.384Z</time></trkpt><trkpt lat="44.024039" lon="12.4791855"><ele>86.0</ele><time>2026-04-19T08:30:10.387Z</time></trkpt><trkpt lat="44.0239997" lon="12.479087"><ele>87.5</ele><time>2026-04-19T08:30:11.381Z</time></trkpt><trkpt lat="44.0239655" lon="12.4790073"><ele>89.0</ele><time>2026-04-19T08:30:12.38Z</time></trkpt><trkpt lat="44.0238875" lon="12.4788988"><ele>90.5</ele><time>2026-04-19T08:30:14.385Z</time></trkpt><trkpt lat="44.0237942" lon="12.4788791"><ele>92.0</ele><time>2026-04-19T08:30:16.385Z</time></trkpt><trkpt lat="44.0236965" lon="12.4789216"><ele>92.0</ele><time>2026-04-19T08:30:18.385Z</time></trkpt><trkpt lat="44.0235993" lon="12.4790008"><ele>92.0</ele><time>2026-04-19T08:30:20.383Z</time></trkpt><trkpt lat="44.0235484" lon="12.4790524"><ele>92.0</ele><time>2026-04-19T08:30:21.386Z</time></trkpt><trkpt lat="44.0234944" lon="12.4791059"><ele>92.0</ele><time>2026-04-19T08:30:22.381Z</time></trkpt><trkpt lat="44.0233992" lon="12.4791757"><ele>92.0</ele><time>2026-04-19T08:30:24.388Z</time></trkpt><trkpt lat="44.0235044" lon="12.4791166"><ele>92.0</ele><time>2026-04-19T08:30:30.382Z</time></trkpt><trkpt lat="44.0235685" lon="12.4790548"><ele>92.0</ele><time>2026-04-19T08:30:31.381Z</time></trkpt><trkpt lat="44.0236327" lon="12.4790039"><ele>92.0</ele><time>2026-04-19T08:30:32.386Z</time></trkpt><trkpt lat="44.0236915" lon="12.4789527"><ele>92.0</ele><time>2026-04-19T08:30:33.383Z</time></trkpt><trkpt lat="44.0237723" lon="12.4788668"><ele>92.0</ele><time>2026-04-19T08:30:35.381Z</time></trkpt><trkpt lat="44.0238158" lon="12.4787991"><ele>92.0</ele><time>2026-04-19T08:30:37.381Z</time></trkpt><trkpt lat="44.023854" lon="12.478727"><ele>91.19999999999999</ele><time>2026-04-19T08:30:54.383Z</time></trkpt><trkpt lat="44.023925" lon="12.4786841"><ele>90.4</ele><time>2026-04-19T08:31:15.388Z</time></trkpt><trkpt lat="44.0239961" lon="12.4786171"><ele>89.6</ele><time>2026-04-19T08:31:17.386Z</time></trkpt><trkpt lat="44.0240733" lon="12.4785377"><ele>88.80000000000001</ele><time>2026-04-19T08:31:19.384Z</time></trkpt><trkpt lat="44.0241554" lon="12.4784757"><ele>88.0</ele><time>2026-04-19T08:31:21.389Z</time></trkpt><trkpt lat="44.0242393" lon="12.4783947"><ele>86.4</ele><time>2026-04-19T08:31:23.381Z</time></trkpt><trkpt lat="44.0243202" lon="12.4783215"><ele>84.80000000000001</ele><time>2026-04-19T08:31:25.381Z</time></trkpt><trkpt lat="44.0244024" lon="12.4782644"><ele>83.2</ele><time>2026-04-19T08:31:27.39Z</time></trkpt><trkpt lat="44.0244855" lon="12.4781926"><ele>81.6</ele><time>2026-04-19T08:31:29.383Z</time></trkpt><trkpt lat="44.0245652" lon="12.4781223"><ele>80.0</ele><time>2026-04-19T08:31:31.386Z</time></trkpt><trkpt lat="44.0246453" lon="12.4780589"><ele>80.0</ele><time>2026-04-19T08:31:33.388Z</time></trkpt><trkpt lat="44.0247317" lon="12.4779929"><ele>80.0</ele><time>2026-04-19T08:31:35.38Z</time></trkpt><trkpt lat="44.0248268" lon="12.4779087"><ele>80.0</ele><time>2026-04-19T08:31:37.383Z</time></trkpt><trkpt lat="44.0249134" lon="12.4778329"><ele>80.0</ele><time>2026-04-19T08:31:39.383Z</time></trkpt><trkpt lat="44.0250016" lon="12.4777556"><ele>80.0</ele><time>2026-04-19T08:31:41.382Z</time></trkpt><trkpt lat="44.0250952" lon="12.4776679"><ele>75.8</ele><time>2026-04-19T08:31:43.393Z</time></trkpt><trkpt lat="44.0251866" lon="12.4775847"><ele>71.6</ele><time>2026-04-19T08:31:45.388Z</time></trkpt><trkpt lat="44.0252736" lon="12.4775066"><ele>67.4</ele><time>2026-04-19T08:31:47.386Z</time></trkpt><trkpt lat="44.0253669" lon="12.4774175"><ele>63.2</ele><time>2026-04-19T08:31:49.382Z</time></trkpt><trkpt lat="44.0254682" lon="12.4773279"><ele>59.0</ele><time>2026-04-19T08:31:51.386Z</time></trkpt><trkpt lat="44.0255675" lon="12.4772317"><ele>59.0</ele><time>2026-04-19T08:31:53.383Z</time></trkpt><trkpt lat="44.0256623" lon="12.477146"><ele>59.00000000000001</ele><time>2026-04-19T08:31:55.385Z</time></trkpt><trkpt lat="44.0257515" lon="12.4770625"><ele>59.00000000000001</ele><time>2026-04-19T08:31:57.387Z</time></trkpt><trkpt lat="44.0258344" lon="12.4769922"><ele>59.0</ele><time>2026-04-19T08:31:59.387Z</time></trkpt><trkpt lat="44.0258876" lon="12.4769417"><ele>59.0</ele><time>2026-04-19T08:32:01.382Z</time></trkpt><trkpt lat="44.0258148" lon="12.4769778"><ele>59.00000000000001</ele><time>2026-04-19T08:32:12.385Z</time></trkpt><trkpt lat="44.025718" lon="12.4770852"><ele>59.0</ele><time>2026-04-19T08:32:14.39Z</time></trkpt><trkpt lat="44.0256597" lon="12.4771298"><ele>59.0</ele><time>2026-04-19T08:32:15.387Z</time></trkpt><trkpt lat="44.0256052" lon="12.4771773"><ele>59.0</ele><time>2026-04-19T08:32:16.384Z</time></trkpt><trkpt lat="44.0255503" lon="12.4772305"><ele>59.00000000000001</ele><time>2026-04-19T08:32:17.385Z</time></trkpt><trkpt lat="44.0254925" lon="12.4772823"><ele>59.0</ele><time>2026-04-19T08:32:18.386Z</time></trkpt><trkpt lat="44.0254374" lon="12.4773304"><ele>59.0</ele><time>2026-04-19T08:32:19.387Z</time></trkpt><trkpt lat="44.025377" lon="12.4773872"><ele>59.0</ele><time>2026-04-19T08:32:20.388Z</time></trkpt><trkpt lat="44.0253191" lon="12.4774433"><ele>59.0</ele><time>2026-04-19T08:32:21.385Z</time></trkpt><trkpt lat="44.0252627" lon="12.4775002"><ele>59.0</ele><time>2026-04-19T08:32:22.382Z</time></trkpt><trkpt lat="44.0252048" lon="12.4775596"><ele>59.0</ele><time>2026-04-19T08:32:23.384Z</time></trkpt><trkpt lat="44.0251449" lon="12.4776151"><ele>59.0</ele><time>2026-04-19T08:32:24.391Z</time></trkpt><trkpt lat="44.0250856" lon="12.4776708"><ele>59.0</ele><time>2026-04-19T08:32:25.382Z</time></trkpt><trkpt lat="44.0250204" lon="12.4777319"><ele>61.16666666666667</ele><time>2026-04-19T08:32:26.381Z</time></trkpt><trkpt lat="44.0249491" lon="12.4777964"><ele>63.333333333333336</ele><time>2026-04-19T08:32:27.388Z</time></trkpt><trkpt lat="44.0248835" lon="12.4778547"><ele>65.5</ele><time>2026-04-19T08:32:28.388Z</time></trkpt><trkpt lat="44.0248208" lon="12.4779122"><ele>67.66666666666667</ele><time>2026-04-19T08:32:29.38Z</time></trkpt><trkpt lat="44.0247585" lon="12.4779638"><ele>69.83333333333333</ele><time>2026-04-19T08:32:30.383Z</time></trkpt><trkpt lat="44.0246938" lon="12.4780134"><ele>72.0</ele><time>2026-04-19T08:32:31.386Z</time></trkpt><trkpt lat="44.0246309" lon="12.478064"><ele>73.14285714285715</ele><time>2026-04-19T08:32:32.385Z</time></trkpt><trkpt lat="44.024565" lon="12.478113"><ele>74.28571428571429</ele><time>2026-04-19T08:32:33.385Z</time></trkpt><trkpt lat="44.0245054" lon="12.4781547"><ele>75.42857142857143</ele><time>2026-04-19T08:32:34.386Z</time></trkpt><trkpt lat="44.0244504" lon="12.4782025"><ele>76.57142857142858</ele><time>2026-04-19T08:32:35.384Z</time></trkpt><trkpt lat="44.0243959" lon="12.4782486"><ele>77.71428571428572</ele><time>2026-04-19T08:32:36.383Z</time></trkpt><trkpt lat="44.0243413" lon="12.4783012"><ele>78.85714285714286</ele><time>2026-04-19T08:32:37.384Z</time></trkpt><trkpt lat="44.0242819" lon="12.4783514"><ele>80.0</ele><time>2026-04-19T08:32:38.379Z</time></trkpt><trkpt lat="44.0242291" lon="12.4784032"><ele>81.6</ele><time>2026-04-19T08:32:39.383Z</time></trkpt><trkpt lat="44.0241289" lon="12.478494"><ele>83.2</ele><time>2026-04-19T08:32:41.383Z</time></trkpt><trkpt lat="44.0240745" lon="12.4785384"><ele>84.80000000000001</ele><time>2026-04-19T08:32:42.384Z</time></trkpt><trkpt lat="44.0239688" lon="12.478631"><ele>86.4</ele><time>2026-04-19T08:32:44.381Z</time></trkpt><trkpt lat="44.0238824" lon="12.4786969"><ele>88.0</ele><time>2026-04-19T08:32:46.384Z</time></trkpt><trkpt lat="44.0238144" lon="12.4786709"><ele>88.0</ele><time>2026-04-19T08:32:49.381Z</time></trkpt><trkpt lat="44.0237884" lon="12.4785905"><ele>88.0</ele><time>2026-04-19T08:32:51.379Z</time></trkpt><trkpt lat="44.0237628" lon="12.4784812"><ele>88.0</ele><time>2026-04-19T08:32:53.384Z</time></trkpt><trkpt lat="44.0237256" lon="12.4783611"><ele>88.0</ele><time>2026-04-19T08:32:55.38Z</time></trkpt><trkpt lat="44.0236859" lon="12.4782649"><ele>88.0</ele><time>2026-04-19T08:32:57.388Z</time></trkpt><trkpt lat="44.0236457" lon="12.4781721"><ele>88.0</ele><time>2026-04-19T08:32:59.379Z</time></trkpt><trkpt lat="44.0236149" lon="12.478091"><ele>88.0</ele><time>2026-04-19T08:33:01.382Z</time></trkpt><trkpt lat="44.02364" lon="12.4781944"><ele>88.0</ele><time>2026-04-19T08:33:09.382Z</time></trkpt><trkpt lat="44.023691" lon="12.4782874"><ele>88.0</ele><time>2026-04-19T08:33:11.382Z</time></trkpt><trkpt lat="44.0237341" lon="12.4784008"><ele>88.0</ele><time>2026-04-19T08:33:13.382Z</time></trkpt><trkpt lat="44.0237723" lon="12.47853"><ele>88.0</ele><time>2026-04-19T08:33:15.383Z</time></trkpt><trkpt lat="44.0238048" lon="12.4786664"><ele>88.66666666666666</ele><time>2026-04-19T08:33:17.384Z</time></trkpt><trkpt lat="44.0238185" lon="12.4787949"><ele>89.33333333333333</ele><time>2026-04-19T08:33:19.387Z</time></trkpt><trkpt lat="44.0238644" lon="12.4788991"><ele>90.0</ele><time>2026-04-19T08:33:21.383Z</time></trkpt><trkpt lat="44.0239548" lon="12.4790229"><ele>90.66666666666667</ele><time>2026-04-19T08:33:23.383Z</time></trkpt><trkpt lat="44.023991" lon="12.4790983"><ele>91.33333333333334</ele><time>2026-04-19T08:33:24.383Z</time></trkpt><trkpt lat="44.0240284" lon="12.4791735"><ele>92.0</ele><time>2026-04-19T08:33:25.39Z</time></trkpt><trkpt lat="44.0240594" lon="12.4792677"><ele>92.0</ele><time>2026-04-19T08:33:26.385Z</time></trkpt><trkpt lat="44.0240887" lon="12.4794214"><ele>92.0</ele><time>2026-04-19T08:33:28.387Z</time></trkpt><trkpt lat="44.0241224" lon="12.4795458"><ele>92.0</ele><time>2026-04-19T08:33:30.384Z</time></trkpt><trkpt lat="44.0241507" lon="12.4796572"><ele>92.0</ele><time>2026-04-19T08:33:33.379Z</time></trkpt><trkpt lat="44.0240972" lon="12.4797477"><ele>92.0</ele><time>2026-04-19T08:33:42.384Z</time></trkpt><trkpt lat="44.0240358" lon="12.4798053"><ele>92.16666666666667</ele><time>2026-04-19T08:33:44.388Z</time></trkpt><trkpt lat="44.0239788" lon="12.4798795"><ele>92.33333333333334</ele><time>2026-04-19T08:33:46.389Z</time></trkpt><trkpt lat="44.0239323" lon="12.4799469"><ele>92.5</ele><time>2026-04-19T08:33:48.387Z</time></trkpt><trkpt lat="44.0238885" lon="12.4800176"><ele>92.66666666666667</ele><time>2026-04-19T08:34:41.381Z</time></trkpt><trkpt lat="44.0238422" lon="12.4800863"><ele>92.83333333333333</ele><time>2026-04-19T08:34:43.389Z</time></trkpt><trkpt lat="44.0237574" lon="12.480203"><ele>93.0</ele><time>2026-04-19T08:34:45.379Z</time></trkpt><trkpt lat="44.0236931" lon="12.4803201"><ele>92.0</ele><time>2026-04-19T08:34:47.399Z</time></trkpt><trkpt lat="44.0236293" lon="12.4804466"><ele>91.0</ele><time>2026-04-19T08:34:49.385Z</time></trkpt><trkpt lat="44.0235695" lon="12.4805825"><ele>90.0</ele><time>2026-04-19T08:34:51.386Z</time></trkpt><trkpt lat="44.0235099" lon="12.4807323"><ele>89.0</ele><time>2026-04-19T08:34:53.378Z</time></trkpt><trkpt lat="44.0234514" lon="12.4808859"><ele>88.99999999999999</ele><time>2026-04-19T08:34:55.388Z</time></trkpt><trkpt lat="44.0234293" lon="12.4809681"><ele>89.0</ele><time>2026-04-19T08:34:56.382Z</time></trkpt><trkpt lat="44.0234016" lon="12.4810501"><ele>89.0</ele><time>2026-04-19T08:34:57.387Z</time></trkpt><trkpt lat="44.0233726" lon="12.4811294"><ele>89.0</ele><time>2026-04-19T08:34:58.386Z</time></trkpt><trkpt lat="44.0233418" lon="12.4812127"><ele>89.0</ele><time>2026-04-19T08:34:59.385Z</time></trkpt><trkpt lat="44.0233058" lon="12.4812921"><ele>88.99999999999999</ele><time>2026-04-19T08:35:00.382Z</time></trkpt><trkpt lat="44.0232597" lon="12.4813649"><ele>89.0</ele><time>2026-04-19T08:35:01.386Z</time></trkpt><trkpt lat="44.023204" lon="12.4814272"><ele>88.5</ele><time>2026-04-19T08:35:02.387Z</time></trkpt><trkpt lat="44.0231403" lon="12.4814844"><ele>88.0</ele><time>2026-04-19T08:35:03.38Z</time></trkpt><trkpt lat="44.0230755" lon="12.4815331"><ele>87.5</ele><time>2026-04-19T08:35:04.38Z</time></trkpt><trkpt lat="44.0230107" lon="12.4815887"><ele>87.0</ele><time>2026-04-19T08:35:05.386Z</time></trkpt><trkpt lat="44.0229583" lon="12.4816394"><ele>86.5</ele><time>2026-04-19T08:35:06.386Z</time></trkpt><trkpt lat="44.0228676" lon="12.481709"><ele>86.0</ele><time>2026-04-19T08:35:08.386Z</time></trkpt><trkpt lat="44.0227818" lon="12.4817683"><ele>86.0</ele><time>2026-04-19T08:35:10.387Z</time></trkpt><trkpt lat="44.0227034" lon="12.4818343"><ele>86.0</ele><time>2026-04-19T08:35:12.387Z</time></trkpt><trkpt lat="44.0226253" lon="12.4818853"><ele>86.0</ele><time>2026-04-19T08:35:14.386Z</time></trkpt><trkpt lat="44.0225398" lon="12.4819323"><ele>86.0</ele><time>2026-04-19T08:35:16.385Z</time></trkpt><trkpt lat="44.0224492" lon="12.4819849"><ele>86.0</ele><time>2026-04-19T08:35:18.386Z</time></trkpt><trkpt lat="44.0223537" lon="12.4820434"><ele>86.0</ele><time>2026-04-19T08:35:20.385Z</time></trkpt><trkpt lat="44.0222666" lon="12.4820946"><ele>86.0</ele><time>2026-04-19T08:35:22.381Z</time></trkpt><trkpt lat="44.0221684" lon="12.4821521"><ele>86.0</ele><time>2026-04-19T08:35:24.383Z</time></trkpt><trkpt lat="44.022077" lon="12.4822135"><ele>86.0</ele><time>2026-04-19T08:35:26.385Z</time></trkpt><trkpt lat="44.0219819" lon="12.4822781"><ele>86.0</ele><time>2026-04-19T08:35:28.379Z</time></trkpt><trkpt lat="44.0218917" lon="12.4823532"><ele>86.0</ele><time>2026-04-19T08:35:30.39Z</time></trkpt><trkpt lat="44.021809" lon="12.4823933"><ele>86.0</ele><time>2026-04-19T08:35:32.38Z</time></trkpt><trkpt lat="44.0217308" lon="12.4823581"><ele>86.0</ele><time>2026-04-19T08:35:34.383Z</time></trkpt><trkpt lat="44.0216627" lon="12.482288"><ele>86.0</ele><time>2026-04-19T08:35:36.388Z</time></trkpt><trkpt lat="44.0216017" lon="12.4822122"><ele>86.0</ele><time>2026-04-19T08:35:38.386Z</time></trkpt><trkpt lat="44.0215334" lon="12.4821836"><ele>86.0</ele><time>2026-04-19T08:35:40.381Z</time></trkpt><trkpt lat="44.021458" lon="12.4822019"><ele>87.33333333333334</ele><time>2026-04-19T08:35:42.381Z</time></trkpt><trkpt lat="44.02138" lon="12.4822144"><ele>88.66666666666667</ele><time>2026-04-19T08:35:44.381Z</time></trkpt><trkpt lat="44.0213002" lon="12.482216"><ele>90.0</ele><time>2026-04-19T08:35:46.384Z</time></trkpt><trkpt lat="44.0212292" lon="12.4821874"><ele>91.33333333333333</ele><time>2026-04-19T08:35:48.387Z</time></trkpt><trkpt lat="44.0211789" lon="12.4821052"><ele>92.66666666666666</ele><time>2026-04-19T08:35:50.387Z</time></trkpt><trkpt lat="44.0211404" lon="12.4819843"><ele>94.0</ele><time>2026-04-19T08:35:52.382Z</time></trkpt><trkpt lat="44.0210938" lon="12.4818623"><ele>95.6</ele><time>2026-04-19T08:35:54.383Z</time></trkpt><trkpt lat="44.0210471" lon="12.4817468"><ele>97.2</ele><time>2026-04-19T08:35:56.382Z</time></trkpt><trkpt lat="44.0210006" lon="12.4816306"><ele>98.8</ele><time>2026-04-19T08:35:58.382Z</time></trkpt><trkpt lat="44.0209736" lon="12.4815132"><ele>100.39999999999999</ele><time>2026-04-19T08:36:00.386Z</time></trkpt><trkpt lat="44.020977" lon="12.4813816"><ele>102.0</ele><time>2026-04-19T08:36:02.387Z</time></trkpt><trkpt lat="44.0209848" lon="12.4812532"><ele>103.19999999999999</ele><time>2026-04-19T08:36:04.388Z</time></trkpt><trkpt lat="44.0209954" lon="12.4811133"><ele>104.4</ele><time>2026-04-19T08:36:06.387Z</time></trkpt><trkpt lat="44.0210053" lon="12.480968"><ele>105.60000000000001</ele><time>2026-04-19T08:36:08.385Z</time></trkpt><trkpt lat="44.0210148" lon="12.4808223"><ele>106.80000000000001</ele><time>2026-04-19T08:36:10.385Z</time></trkpt><trkpt lat="44.0210231" lon="12.4806822"><ele>108.0</ele><time>2026-04-19T08:36:12.383Z</time></trkpt><trkpt lat="44.0210291" lon="12.4805446"><ele>109.66666666666667</ele><time>2026-04-19T08:36:14.383Z</time></trkpt><trkpt lat="44.0210312" lon="12.4804154"><ele>111.33333333333334</ele><time>2026-04-19T08:36:16.387Z</time></trkpt><trkpt lat="44.0210315" lon="12.4802947"><ele>113.0</ele><time>2026-04-19T08:36:18.382Z</time></trkpt><trkpt lat="44.0210508" lon="12.4801864"><ele>114.66666666666667</ele><time>2026-04-19T08:36:20.384Z</time></trkpt><trkpt lat="44.0210975" lon="12.4801151"><ele>116.33333333333334</ele><time>2026-04-19T08:36:22.38Z</time></trkpt><trkpt lat="44.0210354" lon="12.4800553"><ele>118.0</ele><time>2026-04-19T08:36:26.387Z</time></trkpt><trkpt lat="44.0209721" lon="12.4800601"><ele>118.0</ele><time>2026-04-19T08:36:27.382Z</time></trkpt><trkpt lat="44.0208386" lon="12.480069"><ele>118.00000000000001</ele><time>2026-04-19T08:36:29.383Z</time></trkpt><trkpt lat="44.0207699" lon="12.4800797"><ele>118.00000000000001</ele><time>2026-04-19T08:36:30.389Z</time></trkpt><trkpt lat="44.0206906" lon="12.4801135"><ele>118.0</ele><time>2026-04-19T08:36:31.386Z</time></trkpt><trkpt lat="44.0206097" lon="12.4801597"><ele>118.0</ele><time>2026-04-19T08:36:32.379Z</time></trkpt><trkpt lat="44.0205381" lon="12.4802109"><ele>117.50000000000001</ele><time>2026-04-19T08:36:33.379Z</time></trkpt><trkpt lat="44.0204691" lon="12.4802663"><ele>117.0</ele><time>2026-04-19T08:36:34.392Z</time></trkpt><trkpt lat="44.0204072" lon="12.4803224"><ele>116.5</ele><time>2026-04-19T08:36:35.379Z</time></trkpt><trkpt lat="44.020344" lon="12.480379"><ele>116.0</ele><time>2026-04-19T08:36:36.381Z</time></trkpt><trkpt lat="44.0202842" lon="12.4804419"><ele>115.50000000000001</ele><time>2026-04-19T08:36:37.381Z</time></trkpt><trkpt lat="44.0202217" lon="12.4805227"><ele>115.0</ele><time>2026-04-19T08:36:38.383Z</time></trkpt><trkpt lat="44.0201593" lon="12.4806039"><ele>114.8</ele><time>2026-04-19T08:36:39.385Z</time></trkpt><trkpt lat="44.0200995" lon="12.480691"><ele>114.6</ele><time>2026-04-19T08:36:40.383Z</time></trkpt><trkpt lat="44.020047" lon="12.4807818"><ele>114.4</ele><time>2026-04-19T08:36:41.385Z</time></trkpt><trkpt lat="44.0199936" lon="12.4808879"><ele>114.2</ele><time>2026-04-19T08:36:42.389Z</time></trkpt><trkpt lat="44.0199381" lon="12.4809899"><ele>114.0</ele><time>2026-04-19T08:36:43.385Z</time></trkpt><trkpt lat="44.0198823" lon="12.481096"><ele>114.0</ele><time>2026-04-19T08:36:44.384Z</time></trkpt><trkpt lat="44.0198282" lon="12.4812027"><ele>114.0</ele><time>2026-04-19T08:36:45.386Z</time></trkpt><trkpt lat="44.0197759" lon="12.4813064"><ele>114.0</ele><time>2026-04-19T08:36:46.386Z</time></trkpt><trkpt lat="44.0197212" lon="12.4814129"><ele>114.0</ele><time>2026-04-19T08:36:47.386Z</time></trkpt><trkpt lat="44.0196735" lon="12.481521"><ele>114.0</ele><time>2026-04-19T08:36:48.383Z</time></trkpt><trkpt lat="44.019619" lon="12.4816233"><ele>115.2</ele><time>2026-04-19T08:36:49.384Z</time></trkpt><trkpt lat="44.0195647" lon="12.4817244"><ele>116.4</ele><time>2026-04-19T08:36:50.383Z</time></trkpt><trkpt lat="44.0195137" lon="12.4818299"><ele>117.6</ele><time>2026-04-19T08:36:51.383Z</time></trkpt><trkpt lat="44.0194668" lon="12.4819357"><ele>118.8</ele><time>2026-04-19T08:36:52.388Z</time></trkpt><trkpt lat="44.0194189" lon="12.4820464"><ele>120.0</ele><time>2026-04-19T08:36:53.388Z</time></trkpt><trkpt lat="44.0193721" lon="12.4821565"><ele>120.8</ele><time>2026-04-19T08:36:54.38Z</time></trkpt><trkpt lat="44.0193227" lon="12.4822722"><ele>121.6</ele><time>2026-04-19T08:36:55.388Z</time></trkpt><trkpt lat="44.0192686" lon="12.4823887"><ele>122.4</ele><time>2026-04-19T08:36:56.384Z</time></trkpt><trkpt lat="44.0192141" lon="12.4825102"><ele>123.2</ele><time>2026-04-19T08:36:57.387Z</time></trkpt><trkpt lat="44.0191627" lon="12.4826386"><ele>124.0</ele><time>2026-04-19T08:36:58.383Z</time></trkpt><trkpt lat="44.0191149" lon="12.482771"><ele>125.6</ele><time>2026-04-19T08:36:59.384Z</time></trkpt><trkpt lat="44.0190688" lon="12.4829051"><ele>127.2</ele><time>2026-04-19T08:37:00.381Z</time></trkpt><trkpt lat="44.0190129" lon="12.4830327"><ele>128.79999999999998</ele><time>2026-04-19T08:37:01.381Z</time></trkpt><trkpt lat="44.0189564" lon="12.4831592"><ele>130.4</ele><time>2026-04-19T08:37:02.38Z</time></trkpt><trkpt lat="44.0189057" lon="12.483282"><ele>132.0</ele><time>2026-04-19T08:37:03.381Z</time></trkpt><trkpt lat="44.0188521" lon="12.4833952"><ele>133.0</ele><time>2026-04-19T08:37:04.381Z</time></trkpt><trkpt lat="44.0187865" lon="12.4834823"><ele>134.0</ele><time>2026-04-19T08:37:05.379Z</time></trkpt><trkpt lat="44.0187256" lon="12.4835689"><ele>135.0</ele><time>2026-04-19T08:37:06.397Z</time></trkpt><trkpt lat="44.0186676" lon="12.4836545"><ele>136.0</ele><time>2026-04-19T08:37:07.384Z</time></trkpt><trkpt lat="44.0186145" lon="12.4837525"><ele>137.0</ele><time>2026-04-19T08:37:08.379Z</time></trkpt><trkpt lat="44.0185705" lon="12.4838609"><ele>138.0</ele><time>2026-04-19T08:37:09.382Z</time></trkpt><trkpt lat="44.0185295" lon="12.483972"><ele>138.16666666666666</ele><time>2026-04-19T08:37:10.382Z</time></trkpt><trkpt lat="44.0184875" lon="12.4840821"><ele>138.33333333333334</ele><time>2026-04-19T08:37:11.382Z</time></trkpt><trkpt lat="44.0184417" lon="12.4841819"><ele>138.5</ele><time>2026-04-19T08:37:12.378Z</time></trkpt><trkpt lat="44.0183944" lon="12.4842743"><ele>138.66666666666669</ele><time>2026-04-19T08:37:13.388Z</time></trkpt><trkpt lat="44.0183457" lon="12.4843689"><ele>138.83333333333334</ele><time>2026-04-19T08:37:14.383Z</time></trkpt><trkpt lat="44.018291" lon="12.4844534"><ele>139.0</ele><time>2026-04-19T08:37:15.387Z</time></trkpt><trkpt lat="44.0182442" lon="12.4845298"><ele>139.5</ele><time>2026-04-19T08:37:16.388Z</time></trkpt><trkpt lat="44.0182055" lon="12.4846117"><ele>140.0</ele><time>2026-04-19T08:37:17.385Z</time></trkpt><trkpt lat="44.0181657" lon="12.4847037"><ele>140.5</ele><time>2026-04-19T08:37:18.383Z</time></trkpt><trkpt lat="44.0181183" lon="12.4847998"><ele>141.0</ele><time>2026-04-19T08:37:19.384Z</time></trkpt><trkpt lat="44.0180688" lon="12.484895"><ele>141.5</ele><time>2026-04-19T08:37:20.382Z</time></trkpt><trkpt lat="44.0180236" lon="12.4849823"><ele>142.0</ele><time>2026-04-19T08:37:21.387Z</time></trkpt><trkpt lat="44.0179844" lon="12.4850643"><ele>142.0</ele><time>2026-04-19T08:37:22.385Z</time></trkpt><trkpt lat="44.017949" lon="12.4851401"><ele>142.0</ele><time>2026-04-19T08:37:23.381Z</time></trkpt><trkpt lat="44.0179135" lon="12.4853082"><ele>142.0</ele><time>2026-04-19T08:37:25.382Z</time></trkpt><trkpt lat="44.017917" lon="12.4854044"><ele>142.0</ele><time>2026-04-19T08:37:26.383Z</time></trkpt><trkpt lat="44.0179267" lon="12.4855093"><ele>142.0</ele><time>2026-04-19T08:37:27.384Z</time></trkpt><trkpt lat="44.0179387" lon="12.485618"><ele>142.0</ele><time>2026-04-19T08:37:28.381Z</time></trkpt><trkpt lat="44.0179486" lon="12.4857286"><ele>143.0</ele><time>2026-04-19T08:37:29.38Z</time></trkpt><trkpt lat="44.0179579" lon="12.4858405"><ele>144.0</ele><time>2026-04-19T08:37:30.379Z</time></trkpt><trkpt lat="44.0179758" lon="12.4859482"><ele>145.0</ele><time>2026-04-19T08:37:31.383Z</time></trkpt><trkpt lat="44.0179901" lon="12.4860589"><ele>146.0</ele><time>2026-04-19T08:37:32.381Z</time></trkpt><trkpt lat="44.0180054" lon="12.4861727"><ele>147.0</ele><time>2026-04-19T08:37:33.392Z</time></trkpt><trkpt lat="44.0180211" lon="12.486286"><ele>148.0</ele><time>2026-04-19T08:37:34.379Z</time></trkpt><trkpt lat="44.0180342" lon="12.4863984"><ele>148.16666666666669</ele><time>2026-04-19T08:37:35.383Z</time></trkpt><trkpt lat="44.018047" lon="12.4865119"><ele>148.33333333333334</ele><time>2026-04-19T08:37:36.388Z</time></trkpt><trkpt lat="44.0180616" lon="12.4866324"><ele>148.5</ele><time>2026-04-19T08:37:37.386Z</time></trkpt><trkpt lat="44.0180737" lon="12.486751"><ele>148.66666666666666</ele><time>2026-04-19T08:37:38.381Z</time></trkpt><trkpt lat="44.0180857" lon="12.486862"><ele>148.83333333333331</ele><time>2026-04-19T08:37:39.381Z</time></trkpt><trkpt lat="44.0181205" lon="12.4869726"><ele>149.0</ele><time>2026-04-19T08:37:40.381Z</time></trkpt><trkpt lat="44.0181638" lon="12.4870827"><ele>147.6</ele><time>2026-04-19T08:37:41.385Z</time></trkpt><trkpt lat="44.018218" lon="12.487196"><ele>146.2</ele><time>2026-04-19T08:37:42.388Z</time></trkpt><trkpt lat="44.0182766" lon="12.4873116"><ele>144.79999999999998</ele><time>2026-04-19T08:37:43.387Z</time></trkpt><trkpt lat="44.0183391" lon="12.4874266"><ele>143.4</ele><time>2026-04-19T08:37:44.382Z</time></trkpt><trkpt lat="44.0184022" lon="12.4875442"><ele>142.0</ele><time>2026-04-19T08:37:45.379Z</time></trkpt><trkpt lat="44.0184692" lon="12.4876627"><ele>142.0</ele><time>2026-04-19T08:37:46.382Z</time></trkpt><trkpt lat="44.0185391" lon="12.4877811"><ele>142.0</ele><time>2026-04-19T08:37:47.385Z</time></trkpt><trkpt lat="44.0186063" lon="12.4879021"><ele>142.0</ele><time>2026-04-19T08:37:48.384Z</time></trkpt><trkpt lat="44.0186768" lon="12.4880195"><ele>142.0</ele><time>2026-04-19T08:37:49.383Z</time></trkpt><trkpt lat="44.0187453" lon="12.4881392"><ele>142.0</ele><time>2026-04-19T08:37:50.383Z</time></trkpt><trkpt lat="44.0188185" lon="12.48826"><ele>140.75</ele><time>2026-04-19T08:37:51.391Z</time></trkpt><trkpt lat="44.0188888" lon="12.4883854"><ele>139.5</ele><time>2026-04-19T08:37:52.381Z</time></trkpt><trkpt lat="44.0189594" lon="12.4885132"><ele>138.25</ele><time>2026-04-19T08:37:53.388Z</time></trkpt><trkpt lat="44.019032" lon="12.4886411"><ele>137.0</ele><time>2026-04-19T08:37:54.382Z</time></trkpt><trkpt lat="44.0191048" lon="12.4887661"><ele>136.75</ele><time>2026-04-19T08:37:55.38Z</time></trkpt><trkpt lat="44.0191788" lon="12.48889"><ele>136.5</ele><time>2026-04-19T08:37:56.378Z</time></trkpt><trkpt lat="44.0192527" lon="12.4890176"><ele>136.25</ele><time>2026-04-19T08:37:57.384Z</time></trkpt><trkpt lat="44.0193298" lon="12.489147"><ele>136.0</ele><time>2026-04-19T08:37:58.38Z</time></trkpt><trkpt lat="44.0194018" lon="12.489275"><ele>136.0</ele><time>2026-04-19T08:37:59.385Z</time></trkpt><trkpt lat="44.0194796" lon="12.4894039"><ele>136.0</ele><time>2026-04-19T08:38:00.383Z</time></trkpt><trkpt lat="44.0195559" lon="12.4895317"><ele>136.0</ele><time>2026-04-19T08:38:01.387Z</time></trkpt><trkpt lat="44.0196306" lon="12.4896598"><ele>136.0</ele><time>2026-04-19T08:38:02.382Z</time></trkpt><trkpt lat="44.0197061" lon="12.4897833"><ele>136.2</ele><time>2026-04-19T08:38:03.385Z</time></trkpt><trkpt lat="44.0197791" lon="12.4899123"><ele>136.39999999999998</ele><time>2026-04-19T08:38:04.381Z</time></trkpt><trkpt lat="44.019848" lon="12.4900344"><ele>136.6</ele><time>2026-04-19T08:38:05.383Z</time></trkpt><trkpt lat="44.0199063" lon="12.4901649"><ele>136.79999999999998</ele><time>2026-04-19T08:38:06.385Z</time></trkpt><trkpt lat="44.019953" lon="12.4902995"><ele>137.0</ele><time>2026-04-19T08:38:07.384Z</time></trkpt><trkpt lat="44.0199881" lon="12.4904345"><ele>137.0</ele><time>2026-04-19T08:38:08.381Z</time></trkpt><trkpt lat="44.0200181" lon="12.4905733"><ele>137.0</ele><time>2026-04-19T08:38:09.383Z</time></trkpt><trkpt lat="44.0200396" lon="12.490715"><ele>137.0</ele><time>2026-04-19T08:38:10.383Z</time></trkpt><trkpt lat="44.0200594" lon="12.4908532"><ele>137.0</ele><time>2026-04-19T08:38:11.382Z</time></trkpt><trkpt lat="44.0200753" lon="12.4909925"><ele>137.0</ele><time>2026-04-19T08:38:12.381Z</time></trkpt><trkpt lat="44.0200905" lon="12.4911082"><ele>137.0</ele><time>2026-04-19T08:38:13.383Z</time></trkpt><trkpt lat="44.0201046" lon="12.4912194"><ele>137.0</ele><time>2026-04-19T08:38:14.381Z</time></trkpt><trkpt lat="44.0201164" lon="12.4913248"><ele>137.0</ele><time>2026-04-19T08:38:15.386Z</time></trkpt><trkpt lat="44.0201288" lon="12.4914258"><ele>137.0</ele><time>2026-04-19T08:38:16.387Z</time></trkpt><trkpt lat="44.0201413" lon="12.4915293"><ele>137.0</ele><time>2026-04-19T08:38:17.383Z</time></trkpt><trkpt lat="44.0201556" lon="12.4916289"><ele>137.0</ele><time>2026-04-19T08:38:18.384Z</time></trkpt><trkpt lat="44.0201682" lon="12.4917334"><ele>136.66666666666666</ele><time>2026-04-19T08:38:19.384Z</time></trkpt><trkpt lat="44.0201833" lon="12.4918318"><ele>136.33333333333331</ele><time>2026-04-19T08:38:20.382Z</time></trkpt><trkpt lat="44.0201974" lon="12.4919276"><ele>136.0</ele><time>2026-04-19T08:38:21.384Z</time></trkpt><trkpt lat="44.0202065" lon="12.4920147"><ele>135.66666666666666</ele><time>2026-04-19T08:38:22.384Z</time></trkpt><trkpt lat="44.0202073" lon="12.4921729"><ele>135.33333333333334</ele><time>2026-04-19T08:38:24.382Z</time></trkpt><trkpt lat="44.0201922" lon="12.4922757"><ele>135.0</ele><time>2026-04-19T08:38:26.386Z</time></trkpt><trkpt lat="44.0201508" lon="12.4923966"><ele>134.83333333333334</ele><time>2026-04-19T08:38:31.38Z</time></trkpt><trkpt lat="44.020096" lon="12.4924441"><ele>134.66666666666666</ele><time>2026-04-19T08:38:32.386Z</time></trkpt><trkpt lat="44.0200209" lon="12.4925016"><ele>134.5</ele><time>2026-04-19T08:38:33.38Z</time></trkpt><trkpt lat="44.0199515" lon="12.4925725"><ele>134.33333333333331</ele><time>2026-04-19T08:38:34.386Z</time></trkpt><trkpt lat="44.0198812" lon="12.4926406"><ele>134.16666666666666</ele><time>2026-04-19T08:38:35.379Z</time></trkpt><trkpt lat="44.0197967" lon="12.4927158"><ele>134.0</ele><time>2026-04-19T08:38:36.383Z</time></trkpt><trkpt lat="44.019742" lon="12.4928407"><ele>133.75</ele><time>2026-04-19T08:38:37.385Z</time></trkpt><trkpt lat="44.019691" lon="12.4929593"><ele>133.5</ele><time>2026-04-19T08:38:38.381Z</time></trkpt><trkpt lat="44.0196448" lon="12.4931029"><ele>133.25</ele><time>2026-04-19T08:38:39.381Z</time></trkpt><trkpt lat="44.0195989" lon="12.4932496"><ele>133.0</ele><time>2026-04-19T08:38:40.384Z</time></trkpt><trkpt lat="44.0195525" lon="12.4934067"><ele>133.0</ele><time>2026-04-19T08:38:41.383Z</time></trkpt><trkpt lat="44.0195012" lon="12.4935638"><ele>133.0</ele><time>2026-04-19T08:38:42.382Z</time></trkpt><trkpt lat="44.0194511" lon="12.4937287"><ele>133.0</ele><time>2026-04-19T08:38:43.388Z</time></trkpt><trkpt lat="44.0194099" lon="12.4938979"><ele>133.0</ele><time>2026-04-19T08:38:44.381Z</time></trkpt><trkpt lat="44.0193796" lon="12.4940692"><ele>132.5</ele><time>2026-04-19T08:38:45.384Z</time></trkpt><trkpt lat="44.0193711" lon="12.4942466"><ele>132.0</ele><time>2026-04-19T08:38:46.383Z</time></trkpt><trkpt lat="44.0193716" lon="12.4944251"><ele>131.5</ele><time>2026-04-19T08:38:47.384Z</time></trkpt><trkpt lat="44.0193811" lon="12.4946023"><ele>131.0</ele><time>2026-04-19T08:38:48.382Z</time></trkpt><trkpt lat="44.0193978" lon="12.4947692"><ele>130.6</ele><time>2026-04-19T08:38:49.382Z</time></trkpt><trkpt lat="44.0194199" lon="12.494925"><ele>130.2</ele><time>2026-04-19T08:38:50.384Z</time></trkpt><trkpt lat="44.0194463" lon="12.4950742"><ele>129.8</ele><time>2026-04-19T08:38:51.378Z</time></trkpt><trkpt lat="44.019466" lon="12.495225"><ele>129.4</ele><time>2026-04-19T08:38:52.387Z</time></trkpt><trkpt lat="44.0194677" lon="12.4953732"><ele>129.0</ele><time>2026-04-19T08:38:53.385Z</time></trkpt><trkpt lat="44.0194345" lon="12.4955202"><ele>128.5</ele><time>2026-04-19T08:38:54.384Z</time></trkpt><trkpt lat="44.0193699" lon="12.4956587"><ele>128.0</ele><time>2026-04-19T08:38:55.381Z</time></trkpt><trkpt lat="44.0193002" lon="12.495786"><ele>127.5</ele><time>2026-04-19T08:38:56.387Z</time></trkpt><trkpt lat="44.0192269" lon="12.4959101"><ele>127.0</ele><time>2026-04-19T08:38:57.385Z</time></trkpt><trkpt lat="44.0191513" lon="12.4960262"><ele>128.2</ele><time>2026-04-19T08:38:58.378Z</time></trkpt><trkpt lat="44.0190719" lon="12.4961358"><ele>129.39999999999998</ele><time>2026-04-19T08:38:59.379Z</time></trkpt><trkpt lat="44.0189908" lon="12.4962383"><ele>130.60000000000002</ele><time>2026-04-19T08:39:00.384Z</time></trkpt><trkpt lat="44.0189139" lon="12.4963366"><ele>131.8</ele><time>2026-04-19T08:39:01.383Z</time></trkpt><trkpt lat="44.0188412" lon="12.496436"><ele>133.0</ele><time>2026-04-19T08:39:02.385Z</time></trkpt><trkpt lat="44.0187643" lon="12.4965298"><ele>133.0</ele><time>2026-04-19T08:39:03.384Z</time></trkpt><trkpt lat="44.01869" lon="12.4966242"><ele>133.0</ele><time>2026-04-19T08:39:04.381Z</time></trkpt><trkpt lat="44.0186218" lon="12.496716"><ele>133.0</ele><time>2026-04-19T08:39:05.389Z</time></trkpt><trkpt lat="44.0185544" lon="12.4968052"><ele>133.0</ele><time>2026-04-19T08:39:06.383Z</time></trkpt><trkpt lat="44.018496" lon="12.4968875"><ele>133.0</ele><time>2026-04-19T08:39:07.384Z</time></trkpt><trkpt lat="44.0184386" lon="12.4969726"><ele>133.0</ele><time>2026-04-19T08:39:08.382Z</time></trkpt><trkpt lat="44.018384" lon="12.4970374"><ele>133.0</ele><time>2026-04-19T08:39:09.383Z</time></trkpt><trkpt lat="44.0183331" lon="12.4971048"><ele>133.0</ele><time>2026-04-19T08:39:10.384Z</time></trkpt><trkpt lat="44.0182428" lon="12.4971999"><ele>133.0</ele><time>2026-04-19T08:39:12.403Z</time></trkpt><trkpt lat="44.0181858" lon="12.4972929"><ele>133.0</ele><time>2026-04-19T08:39:14.385Z</time></trkpt><trkpt lat="44.0181518" lon="12.4974041"><ele>133.0</ele><time>2026-04-19T08:39:16.392Z</time></trkpt><trkpt lat="44.0181045" lon="12.4975072"><ele>131.5</ele><time>2026-04-19T08:39:18.385Z</time></trkpt><trkpt lat="44.0180878" lon="12.4976115"><ele>130.0</ele><time>2026-04-19T08:39:20.385Z</time></trkpt><trkpt lat="44.0180355" lon="12.4976717"><ele>128.5</ele><time>2026-04-19T08:39:23.387Z</time></trkpt><trkpt lat="44.0180522" lon="12.4975741"><ele>127.0</ele><time>2026-04-19T08:40:41.381Z</time></trkpt><trkpt lat="44.0181407" lon="12.4974809"><ele>125.50000000000001</ele><time>2026-04-19T08:40:43.386Z</time></trkpt><trkpt lat="44.0182194" lon="12.4973989"><ele>124.0</ele><time>2026-04-19T08:40:45.383Z</time></trkpt><trkpt lat="44.018307" lon="12.4973757"><ele>124.00000000000001</ele><time>2026-04-19T08:40:47.381Z</time></trkpt><trkpt lat="44.0183699" lon="12.4973999"><ele>124.0</ele><time>2026-04-19T08:40:48.393Z</time></trkpt><trkpt lat="44.0184375" lon="12.4974293"><ele>124.0</ele><time>2026-04-19T08:40:49.382Z</time></trkpt><trkpt lat="44.0185139" lon="12.4974521"><ele>124.0</ele><time>2026-04-19T08:40:50.382Z</time></trkpt><trkpt lat="44.0185993" lon="12.4974757"><ele>124.00000000000001</ele><time>2026-04-19T08:40:51.384Z</time></trkpt><trkpt lat="44.0186865" lon="12.4975004"><ele>124.0</ele><time>2026-04-19T08:40:52.387Z</time></trkpt><trkpt lat="44.0187782" lon="12.4975272"><ele>124.0</ele><time>2026-04-19T08:40:53.384Z</time></trkpt><trkpt lat="44.0188768" lon="12.4975587"><ele>124.0</ele><time>2026-04-19T08:40:54.387Z</time></trkpt><trkpt lat="44.0189733" lon="12.4975889"><ele>124.0</ele><time>2026-04-19T08:40:55.385Z</time></trkpt><trkpt lat="44.0190668" lon="12.4976337"><ele>124.0</ele><time>2026-04-19T08:40:56.386Z</time></trkpt><trkpt lat="44.0191563" lon="12.4977043"><ele>124.0</ele><time>2026-04-19T08:40:57.381Z</time></trkpt><trkpt lat="44.0192351" lon="12.4977968"><ele>122.75</ele><time>2026-04-19T08:40:58.382Z</time></trkpt><trkpt lat="44.0193062" lon="12.4979107"><ele>121.5</ele><time>2026-04-19T08:40:59.381Z</time></trkpt><trkpt lat="44.0193729" lon="12.4980372"><ele>120.25</ele><time>2026-04-19T08:41:00.385Z</time></trkpt><trkpt lat="44.0194349" lon="12.4981723"><ele>119.0</ele><time>2026-04-19T08:41:01.385Z</time></trkpt><trkpt lat="44.0195004" lon="12.4983087"><ele>117.5</ele><time>2026-04-19T08:41:02.383Z</time></trkpt><trkpt lat="44.0195691" lon="12.4984424"><ele>116.0</ele><time>2026-04-19T08:41:03.383Z</time></trkpt><trkpt lat="44.0196436" lon="12.4985789"><ele>114.5</ele><time>2026-04-19T08:41:04.387Z</time></trkpt><trkpt lat="44.0197289" lon="12.4987086"><ele>113.0</ele><time>2026-04-19T08:41:05.386Z</time></trkpt><trkpt lat="44.0198244" lon="12.4988328"><ele>112.25</ele><time>2026-04-19T08:41:06.383Z</time></trkpt><trkpt lat="44.0199265" lon="12.4989502"><ele>111.5</ele><time>2026-04-19T08:41:07.389Z</time></trkpt><trkpt lat="44.0200301" lon="12.4990655"><ele>110.75</ele><time>2026-04-19T08:41:08.386Z</time></trkpt><trkpt lat="44.0201324" lon="12.4991759"><ele>110.0</ele><time>2026-04-19T08:41:09.384Z</time></trkpt><trkpt lat="44.0202338" lon="12.4992888"><ele>110.0</ele><time>2026-04-19T08:41:10.385Z</time></trkpt><trkpt lat="44.0203358" lon="12.4993979"><ele>110.0</ele><time>2026-04-19T08:41:11.384Z</time></trkpt><trkpt lat="44.0204353" lon="12.4995057"><ele>110.0</ele><time>2026-04-19T08:41:12.384Z</time></trkpt><trkpt lat="44.0205339" lon="12.4996124"><ele>110.0</ele><time>2026-04-19T08:41:13.382Z</time></trkpt><trkpt lat="44.0206233" lon="12.4997247"><ele>108.5</ele><time>2026-04-19T08:41:14.384Z</time></trkpt><trkpt lat="44.0207156" lon="12.499836"><ele>107.0</ele><time>2026-04-19T08:41:15.382Z</time></trkpt><trkpt lat="44.0208074" lon="12.4999529"><ele>105.5</ele><time>2026-04-19T08:41:16.381Z</time></trkpt><trkpt lat="44.0209003" lon="12.500073"><ele>104.0</ele><time>2026-04-19T08:41:17.381Z</time></trkpt><trkpt lat="44.0209923" lon="12.5001962"><ele>104.0</ele><time>2026-04-19T08:41:18.385Z</time></trkpt><trkpt lat="44.0210838" lon="12.5003274"><ele>104.0</ele><time>2026-04-19T08:41:19.385Z</time></trkpt><trkpt lat="44.0211781" lon="12.5004549"><ele>104.0</ele><time>2026-04-19T08:41:20.386Z</time></trkpt><trkpt lat="44.0212677" lon="12.5005904"><ele>104.0</ele><time>2026-04-19T08:41:21.38Z</time></trkpt><trkpt lat="44.0213587" lon="12.5007236"><ele>104.25</ele><time>2026-04-19T08:41:22.386Z</time></trkpt><trkpt lat="44.0214497" lon="12.50085"><ele>104.5</ele><time>2026-04-19T08:41:23.384Z</time></trkpt><trkpt lat="44.0215392" lon="12.5009764"><ele>104.75</ele><time>2026-04-19T08:41:24.382Z</time></trkpt><trkpt lat="44.0216325" lon="12.5011042"><ele>105.0</ele><time>2026-04-19T08:41:25.384Z</time></trkpt><trkpt lat="44.021725" lon="12.5012319"><ele>103.25</ele><time>2026-04-19T08:41:26.388Z</time></trkpt><trkpt lat="44.0218173" lon="12.5013607"><ele>101.5</ele><time>2026-04-19T08:41:27.393Z</time></trkpt><trkpt lat="44.0219077" lon="12.5014879"><ele>99.75</ele><time>2026-04-19T08:41:28.382Z</time></trkpt><trkpt lat="44.0219995" lon="12.5016111"><ele>98.0</ele><time>2026-04-19T08:41:29.382Z</time></trkpt><trkpt lat="44.0220879" lon="12.5017337"><ele>98.0</ele><time>2026-04-19T08:41:30.382Z</time></trkpt><trkpt lat="44.0221734" lon="12.5018547"><ele>98.0</ele><time>2026-04-19T08:41:31.38Z</time></trkpt><trkpt lat="44.0222555" lon="12.5019737"><ele>98.0</ele><time>2026-04-19T08:41:32.397Z</time></trkpt><trkpt lat="44.0223336" lon="12.5020859"><ele>98.0</ele><time>2026-04-19T08:41:33.381Z</time></trkpt><trkpt lat="44.0223965" lon="12.5021973"><ele>97.0</ele><time>2026-04-19T08:41:34.386Z</time></trkpt><trkpt lat="44.0224503" lon="12.5023143"><ele>96.0</ele><time>2026-04-19T08:41:35.385Z</time></trkpt><trkpt lat="44.0224932" lon="12.5024344"><ele>95.0</ele><time>2026-04-19T08:41:36.386Z</time></trkpt><trkpt lat="44.0225396" lon="12.5025544"><ele>94.0</ele><time>2026-04-19T08:41:37.389Z</time></trkpt><trkpt lat="44.0225901" lon="12.5026815"><ele>93.0</ele><time>2026-04-19T08:41:38.389Z</time></trkpt><trkpt lat="44.0226454" lon="12.5028161"><ele>92.5</ele><time>2026-04-19T08:41:39.385Z</time></trkpt><trkpt lat="44.0227032" lon="12.5029578"><ele>92.0</ele><time>2026-04-19T08:41:40.384Z</time></trkpt><trkpt lat="44.0227571" lon="12.5030994"><ele>91.5</ele><time>2026-04-19T08:41:41.381Z</time></trkpt><trkpt lat="44.0228085" lon="12.5032432"><ele>91.0</ele><time>2026-04-19T08:41:42.384Z</time></trkpt><trkpt lat="44.02284" lon="12.5034023"><ele>91.0</ele><time>2026-04-19T08:41:43.388Z</time></trkpt><trkpt lat="44.0228568" lon="12.5035646"><ele>91.0</ele><time>2026-04-19T08:41:44.385Z</time></trkpt><trkpt lat="44.022861" lon="12.5037261"><ele>91.0</ele><time>2026-04-19T08:41:45.399Z</time></trkpt><trkpt lat="44.0228579" lon="12.5038909"><ele>91.0</ele><time>2026-04-19T08:41:46.39Z</time></trkpt><trkpt lat="44.0228471" lon="12.5040535"><ele>90.8</ele><time>2026-04-19T08:41:47.381Z</time></trkpt><trkpt lat="44.0228388" lon="12.5042111"><ele>90.6</ele><time>2026-04-19T08:41:48.385Z</time></trkpt><trkpt lat="44.0228348" lon="12.5043648"><ele>90.4</ele><time>2026-04-19T08:41:49.388Z</time></trkpt><trkpt lat="44.0228362" lon="12.5045197"><ele>90.2</ele><time>2026-04-19T08:41:50.387Z</time></trkpt><trkpt lat="44.0228466" lon="12.5046741"><ele>90.0</ele><time>2026-04-19T08:41:51.384Z</time></trkpt><trkpt lat="44.0228652" lon="12.5048306"><ele>90.0</ele><time>2026-04-19T08:41:52.382Z</time></trkpt><trkpt lat="44.0228876" lon="12.5049836"><ele>90.0</ele><time>2026-04-19T08:41:53.385Z</time></trkpt><trkpt lat="44.022917" lon="12.5051397"><ele>90.0</ele><time>2026-04-19T08:41:54.385Z</time></trkpt><trkpt lat="44.0229554" lon="12.5052896"><ele>90.0</ele><time>2026-04-19T08:41:55.38Z</time></trkpt><trkpt lat="44.0229883" lon="12.5054411"><ele>90.2</ele><time>2026-04-19T08:41:56.384Z</time></trkpt><trkpt lat="44.0230252" lon="12.5055819"><ele>90.4</ele><time>2026-04-19T08:41:57.39Z</time></trkpt><trkpt lat="44.0230652" lon="12.50572"><ele>90.6</ele><time>2026-04-19T08:41:58.387Z</time></trkpt><trkpt lat="44.0231012" lon="12.5058565"><ele>90.8</ele><time>2026-04-19T08:41:59.386Z</time></trkpt><trkpt lat="44.0231366" lon="12.5059883"><ele>91.0</ele><time>2026-04-19T08:42:00.384Z</time></trkpt><trkpt lat="44.0231735" lon="12.5061253"><ele>91.8</ele><time>2026-04-19T08:42:01.382Z</time></trkpt><trkpt lat="44.0232096" lon="12.5062541"><ele>92.6</ele><time>2026-04-19T08:42:02.382Z</time></trkpt><trkpt lat="44.0232411" lon="12.5063857"><ele>93.4</ele><time>2026-04-19T08:42:03.388Z</time></trkpt><trkpt lat="44.0232702" lon="12.5065296"><ele>94.2</ele><time>2026-04-19T08:42:04.38Z</time></trkpt><trkpt lat="44.0233007" lon="12.5066698"><ele>95.0</ele><time>2026-04-19T08:42:05.38Z</time></trkpt><trkpt lat="44.0233393" lon="12.5068126"><ele>95.0</ele><time>2026-04-19T08:42:06.381Z</time></trkpt><trkpt lat="44.0233774" lon="12.506949"><ele>95.0</ele><time>2026-04-19T08:42:07.385Z</time></trkpt><trkpt lat="44.0234091" lon="12.5070903"><ele>95.0</ele><time>2026-04-19T08:42:08.386Z</time></trkpt><trkpt lat="44.0234418" lon="12.5072219"><ele>95.0</ele><time>2026-04-19T08:42:09.381Z</time></trkpt><trkpt lat="44.0234641" lon="12.5073367"><ele>95.0</ele><time>2026-04-19T08:42:10.381Z</time></trkpt><trkpt lat="44.0234705" lon="12.5074351"><ele>95.33333333333334</ele><time>2026-04-19T08:42:11.382Z</time></trkpt><trkpt lat="44.0234563" lon="12.5075225"><ele>95.66666666666667</ele><time>2026-04-19T08:42:12.385Z</time></trkpt><trkpt lat="44.0233683" lon="12.5076245"><ele>96.0</ele><time>2026-04-19T08:42:14.387Z</time></trkpt><trkpt lat="44.0233012" lon="12.5076493"><ele>96.33333333333334</ele><time>2026-04-19T08:42:15.384Z</time></trkpt><trkpt lat="44.0232257" lon="12.5076679"><ele>96.66666666666667</ele><time>2026-04-19T08:42:16.384Z</time></trkpt><trkpt lat="44.0231509" lon="12.5076949"><ele>97.0</ele><time>2026-04-19T08:42:17.382Z</time></trkpt><trkpt lat="44.0230685" lon="12.5077323"><ele>98.00000000000001</ele><time>2026-04-19T08:42:18.387Z</time></trkpt><trkpt lat="44.0229891" lon="12.5077656"><ele>99.0</ele><time>2026-04-19T08:42:19.381Z</time></trkpt><trkpt lat="44.0229084" lon="12.5078015"><ele>100.0</ele><time>2026-04-19T08:42:20.382Z</time></trkpt><trkpt lat="44.022832" lon="12.507833"><ele>101.0</ele><time>2026-04-19T08:42:21.385Z</time></trkpt><trkpt lat="44.0227692" lon="12.5078599"><ele>102.00000000000001</ele><time>2026-04-19T08:42:22.385Z</time></trkpt><trkpt lat="44.0226881" lon="12.5079103"><ele>103.0</ele><time>2026-04-19T08:42:24.389Z</time></trkpt><trkpt lat="44.0226617" lon="12.5080035"><ele>103.33333333333334</ele><time>2026-04-19T08:42:26.385Z</time></trkpt><trkpt lat="44.022682" lon="12.5081174"><ele>103.66666666666667</ele><time>2026-04-19T08:42:28.386Z</time></trkpt><trkpt lat="44.0227104" lon="12.5082229"><ele>104.0</ele><time>2026-04-19T08:42:30.379Z</time></trkpt><trkpt lat="44.0227495" lon="12.5083227"><ele>104.33333333333334</ele><time>2026-04-19T08:42:32.382Z</time></trkpt><trkpt lat="44.0227786" lon="12.5084364"><ele>104.66666666666667</ele><time>2026-04-19T08:42:34.383Z</time></trkpt><trkpt lat="44.0228029" lon="12.508561"><ele>105.0</ele><time>2026-04-19T08:42:36.38Z</time></trkpt><trkpt lat="44.0228255" lon="12.5086852"><ele>104.0</ele><time>2026-04-19T08:42:38.383Z</time></trkpt><trkpt lat="44.0228596" lon="12.5088224"><ele>103.0</ele><time>2026-04-19T08:42:40.384Z</time></trkpt><trkpt lat="44.0229195" lon="12.5089686"><ele>102.0</ele><time>2026-04-19T08:42:42.382Z</time></trkpt><trkpt lat="44.0229543" lon="12.509044"><ele>101.0</ele><time>2026-04-19T08:42:43.388Z</time></trkpt><trkpt lat="44.0229964" lon="12.509117"><ele>100.0</ele><time>2026-04-19T08:42:44.384Z</time></trkpt><trkpt lat="44.0230371" lon="12.5091894"><ele>99.0</ele><time>2026-04-19T08:42:45.384Z</time></trkpt><trkpt lat="44.0230779" lon="12.509266"><ele>99.0</ele><time>2026-04-19T08:42:46.382Z</time></trkpt><trkpt lat="44.0231122" lon="12.5093413"><ele>99.0</ele><time>2026-04-19T08:42:47.38Z</time></trkpt><trkpt lat="44.0231473" lon="12.5094158"><ele>99.0</ele><time>2026-04-19T08:42:48.381Z</time></trkpt><trkpt lat="44.0232049" lon="12.5095654"><ele>99.0</ele><time>2026-04-19T08:42:50.38Z</time></trkpt><trkpt lat="44.0232378" lon="12.5096439"><ele>99.0</ele><time>2026-04-19T08:42:51.384Z</time></trkpt><trkpt lat="44.023268" lon="12.5097248"><ele>99.0</ele><time>2026-04-19T08:42:52.382Z</time></trkpt><trkpt lat="44.0233266" lon="12.5098626"><ele>99.0</ele><time>2026-04-19T08:42:54.38Z</time></trkpt><trkpt lat="44.0233747" lon="12.5099886"><ele>99.0</ele><time>2026-04-19T08:42:56.385Z</time></trkpt><trkpt lat="44.0234302" lon="12.5101228"><ele>99.0</ele><time>2026-04-19T08:42:58.388Z</time></trkpt><trkpt lat="44.0234794" lon="12.510272"><ele>99.0</ele><time>2026-04-19T08:43:00.383Z</time></trkpt><trkpt lat="44.0235214" lon="12.5104057"><ele>99.0</ele><time>2026-04-19T08:43:02.388Z</time></trkpt><trkpt lat="44.0235817" lon="12.5105245"><ele>98.2</ele><time>2026-04-19T08:43:04.383Z</time></trkpt><trkpt lat="44.0236537" lon="12.5106291"><ele>97.4</ele><time>2026-04-19T08:43:06.384Z</time></trkpt><trkpt lat="44.02374" lon="12.510719"><ele>96.6</ele><time>2026-04-19T08:43:08.381Z</time></trkpt><trkpt lat="44.0238338" lon="12.5107745"><ele>95.8</ele><time>2026-04-19T08:43:10.382Z</time></trkpt><trkpt lat="44.0239402" lon="12.5108059"><ele>95.0</ele><time>2026-04-19T08:43:12.379Z</time></trkpt><trkpt lat="44.0240529" lon="12.510823"><ele>95.0</ele><time>2026-04-19T08:43:14.385Z</time></trkpt><trkpt lat="44.0241541" lon="12.5108252"><ele>95.0</ele><time>2026-04-19T08:43:16.384Z</time></trkpt><trkpt lat="44.0242238" lon="12.5108578"><ele>95.0</ele><time>2026-04-19T08:43:18.387Z</time></trkpt><trkpt lat="44.024254" lon="12.5109357"><ele>95.0</ele><time>2026-04-19T08:43:20.382Z</time></trkpt><trkpt lat="44.0242176" lon="12.5110334"><ele>95.0</ele><time>2026-04-19T08:43:22.388Z</time></trkpt><trkpt lat="44.024145" lon="12.5111581"><ele>95.0</ele><time>2026-04-19T08:43:24.388Z</time></trkpt><trkpt lat="44.024095" lon="12.5112319"><ele>94.83333333333334</ele><time>2026-04-19T08:43:25.38Z</time></trkpt><trkpt lat="44.0240464" lon="12.5113148"><ele>94.66666666666667</ele><time>2026-04-19T08:43:26.38Z</time></trkpt><trkpt lat="44.0239888" lon="12.5113993"><ele>94.5</ele><time>2026-04-19T08:43:27.381Z</time></trkpt><trkpt lat="44.0239235" lon="12.5114871"><ele>94.33333333333333</ele><time>2026-04-19T08:43:28.381Z</time></trkpt><trkpt lat="44.0238543" lon="12.5115823"><ele>94.16666666666666</ele><time>2026-04-19T08:43:29.38Z</time></trkpt><trkpt lat="44.0237848" lon="12.5116825"><ele>94.0</ele><time>2026-04-19T08:43:30.382Z</time></trkpt><trkpt lat="44.0237078" lon="12.5117742"><ele>94.0</ele><time>2026-04-19T08:43:31.382Z</time></trkpt><trkpt lat="44.0236256" lon="12.511871"><ele>94.0</ele><time>2026-04-19T08:43:32.383Z</time></trkpt><trkpt lat="44.0235433" lon="12.5119707"><ele>94.0</ele><time>2026-04-19T08:43:33.383Z</time></trkpt><trkpt lat="44.0234637" lon="12.5120783"><ele>94.0</ele><time>2026-04-19T08:43:34.382Z</time></trkpt><trkpt lat="44.02339" lon="12.5121972"><ele>94.0</ele><time>2026-04-19T08:43:35.387Z</time></trkpt><trkpt lat="44.0233222" lon="12.5123283"><ele>93.0</ele><time>2026-04-19T08:43:36.378Z</time></trkpt><trkpt lat="44.0232598" lon="12.5124574"><ele>92.0</ele><time>2026-04-19T08:43:37.384Z</time></trkpt><trkpt lat="44.0232074" lon="12.5126015"><ele>91.0</ele><time>2026-04-19T08:43:38.383Z</time></trkpt><trkpt lat="44.0231505" lon="12.5127438"><ele>90.0</ele><time>2026-04-19T08:43:39.381Z</time></trkpt><trkpt lat="44.0230903" lon="12.5128823"><ele>89.75</ele><time>2026-04-19T08:43:40.384Z</time></trkpt><trkpt lat="44.0230277" lon="12.5130123"><ele>89.5</ele><time>2026-04-19T08:43:41.384Z</time></trkpt><trkpt lat="44.0229557" lon="12.5131358"><ele>89.25</ele><time>2026-04-19T08:43:42.381Z</time></trkpt><trkpt lat="44.0228823" lon="12.5132585"><ele>89.0</ele><time>2026-04-19T08:43:43.387Z</time></trkpt><trkpt lat="44.0228083" lon="12.5133831"><ele>89.0</ele><time>2026-04-19T08:43:44.386Z</time></trkpt><trkpt lat="44.0227308" lon="12.513508"><ele>89.0</ele><time>2026-04-19T08:43:45.386Z</time></trkpt><trkpt lat="44.0226562" lon="12.5136342"><ele>89.0</ele><time>2026-04-19T08:43:46.387Z</time></trkpt><trkpt lat="44.0225847" lon="12.5137651"><ele>89.0</ele><time>2026-04-19T08:43:47.384Z</time></trkpt><trkpt lat="44.02251" lon="12.5138886"><ele>87.25</ele><time>2026-04-19T08:43:48.385Z</time></trkpt><trkpt lat="44.0224306" lon="12.5140034"><ele>85.5</ele><time>2026-04-19T08:43:49.383Z</time></trkpt><trkpt lat="44.0223393" lon="12.5141042"><ele>83.75</ele><time>2026-04-19T08:43:50.384Z</time></trkpt><trkpt lat="44.0222364" lon="12.5141948"><ele>82.0</ele><time>2026-04-19T08:43:51.379Z</time></trkpt><trkpt lat="44.0221298" lon="12.5142782"><ele>82.0</ele><time>2026-04-19T08:43:52.382Z</time></trkpt><trkpt lat="44.0220203" lon="12.5143631"><ele>82.0</ele><time>2026-04-19T08:43:53.378Z</time></trkpt><trkpt lat="44.0219055" lon="12.5144501"><ele>82.0</ele><time>2026-04-19T08:43:54.379Z</time></trkpt><trkpt lat="44.021792" lon="12.5145366"><ele>82.0</ele><time>2026-04-19T08:43:55.382Z</time></trkpt><trkpt lat="44.0216784" lon="12.5146205"><ele>81.0</ele><time>2026-04-19T08:43:56.385Z</time></trkpt><trkpt lat="44.0215648" lon="12.514714"><ele>80.0</ele><time>2026-04-19T08:43:57.38Z</time></trkpt><trkpt lat="44.0214517" lon="12.5148121"><ele>79.0</ele><time>2026-04-19T08:43:58.385Z</time></trkpt><trkpt lat="44.0213357" lon="12.51491"><ele>78.0</ele><time>2026-04-19T08:43:59.388Z</time></trkpt><trkpt lat="44.0212227" lon="12.5150063"><ele>78.0</ele><time>2026-04-19T08:44:00.379Z</time></trkpt><trkpt lat="44.0211118" lon="12.5151074"><ele>78.0</ele><time>2026-04-19T08:44:01.378Z</time></trkpt><trkpt lat="44.0210027" lon="12.515209"><ele>78.0</ele><time>2026-04-19T08:44:02.382Z</time></trkpt><trkpt lat="44.0208961" lon="12.5153043"><ele>78.0</ele><time>2026-04-19T08:44:03.384Z</time></trkpt><trkpt lat="44.0207931" lon="12.5153978"><ele>78.5</ele><time>2026-04-19T08:44:04.381Z</time></trkpt><trkpt lat="44.0207024" lon="12.5154959"><ele>79.0</ele><time>2026-04-19T08:44:05.38Z</time></trkpt><trkpt lat="44.0206121" lon="12.5155883"><ele>79.5</ele><time>2026-04-19T08:44:06.381Z</time></trkpt><trkpt lat="44.0205231" lon="12.5156843"><ele>80.0</ele><time>2026-04-19T08:44:07.382Z</time></trkpt><trkpt lat="44.0204344" lon="12.5157761"><ele>80.0</ele><time>2026-04-19T08:44:08.378Z</time></trkpt><trkpt lat="44.0203515" lon="12.515873"><ele>80.0</ele><time>2026-04-19T08:44:09.378Z</time></trkpt><trkpt lat="44.0202699" lon="12.5159683"><ele>80.0</ele><time>2026-04-19T08:44:10.384Z</time></trkpt><trkpt lat="44.0201859" lon="12.5160604"><ele>80.0</ele><time>2026-04-19T08:44:11.379Z</time></trkpt><trkpt lat="44.020101" lon="12.5161486"><ele>80.0</ele><time>2026-04-19T08:44:12.383Z</time></trkpt><trkpt lat="44.0200115" lon="12.5162379"><ele>81.0</ele><time>2026-04-19T08:44:13.384Z</time></trkpt><trkpt lat="44.0199193" lon="12.5163197"><ele>82.0</ele><time>2026-04-19T08:44:14.38Z</time></trkpt><trkpt lat="44.0198242" lon="12.5164035"><ele>83.0</ele><time>2026-04-19T08:44:15.38Z</time></trkpt><trkpt lat="44.0197271" lon="12.5164884"><ele>84.0</ele><time>2026-04-19T08:44:16.377Z</time></trkpt><trkpt lat="44.0196272" lon="12.5165746"><ele>84.0</ele><time>2026-04-19T08:44:17.382Z</time></trkpt><trkpt lat="44.0195278" lon="12.5166586"><ele>84.0</ele><time>2026-04-19T08:44:18.382Z</time></trkpt><trkpt lat="44.0194304" lon="12.5167451"><ele>84.0</ele><time>2026-04-19T08:44:19.384Z</time></trkpt><trkpt lat="44.0193368" lon="12.5168376"><ele>84.0</ele><time>2026-04-19T08:44:20.38Z</time></trkpt><trkpt lat="44.0192449" lon="12.5169339"><ele>84.0</ele><time>2026-04-19T08:44:21.38Z</time></trkpt><trkpt lat="44.0191525" lon="12.5170281"><ele>84.0</ele><time>2026-04-19T08:44:22.381Z</time></trkpt><trkpt lat="44.0190565" lon="12.5171176"><ele>84.0</ele><time>2026-04-19T08:44:23.383Z</time></trkpt><trkpt lat="44.0189639" lon="12.5172"><ele>84.0</ele><time>2026-04-19T08:44:24.38Z</time></trkpt><trkpt lat="44.0188775" lon="12.5172898"><ele>84.0</ele><time>2026-04-19T08:44:25.385Z</time></trkpt><trkpt lat="44.0187927" lon="12.5173855"><ele>85.0</ele><time>2026-04-19T08:44:26.38Z</time></trkpt><trkpt lat="44.018709" lon="12.5174889"><ele>86.0</ele><time>2026-04-19T08:44:27.386Z</time></trkpt><trkpt lat="44.0186279" lon="12.5175909"><ele>87.0</ele><time>2026-04-19T08:44:28.385Z</time></trkpt><trkpt lat="44.0185523" lon="12.5176954"><ele>88.0</ele><time>2026-04-19T08:44:29.383Z</time></trkpt><trkpt lat="44.0184701" lon="12.5177923"><ele>89.0</ele><time>2026-04-19T08:44:30.382Z</time></trkpt><trkpt lat="44.018385" lon="12.517881"><ele>90.4</ele><time>2026-04-19T08:44:31.38Z</time></trkpt><trkpt lat="44.0182976" lon="12.5179637"><ele>91.80000000000001</ele><time>2026-04-19T08:44:32.38Z</time></trkpt><trkpt lat="44.0182043" lon="12.518048"><ele>93.19999999999999</ele><time>2026-04-19T08:44:33.382Z</time></trkpt><trkpt lat="44.0181128" lon="12.5181329"><ele>94.6</ele><time>2026-04-19T08:44:34.379Z</time></trkpt><trkpt lat="44.018021" lon="12.5182159"><ele>96.0</ele><time>2026-04-19T08:44:35.383Z</time></trkpt><trkpt lat="44.0179293" lon="12.5182978"><ele>96.0</ele><time>2026-04-19T08:44:36.381Z</time></trkpt><trkpt lat="44.0178378" lon="12.5183742"><ele>96.0</ele><time>2026-04-19T08:44:37.378Z</time></trkpt><trkpt lat="44.0177466" lon="12.5184488"><ele>96.0</ele><time>2026-04-19T08:44:38.384Z</time></trkpt><trkpt lat="44.0176598" lon="12.5185253"><ele>96.0</ele><time>2026-04-19T08:44:39.386Z</time></trkpt><trkpt lat="44.0175751" lon="12.5185966"><ele>96.0</ele><time>2026-04-19T08:44:40.381Z</time></trkpt><trkpt lat="44.0174966" lon="12.5186638"><ele>96.5</ele><time>2026-04-19T08:44:41.382Z</time></trkpt><trkpt lat="44.017435" lon="12.5187202"><ele>97.0</ele><time>2026-04-19T08:44:42.38Z</time></trkpt><trkpt lat="44.0173434" lon="12.5187956"><ele>97.5</ele><time>2026-04-19T08:44:44.389Z</time></trkpt><trkpt lat="44.0173031" lon="12.5188844"><ele>98.0</ele><time>2026-04-19T08:44:47.385Z</time></trkpt><trkpt lat="44.0173253" lon="12.5190215"><ele>98.5</ele><time>2026-04-19T08:44:49.39Z</time></trkpt><trkpt lat="44.0173561" lon="12.5191182"><ele>99.0</ele><time>2026-04-19T08:44:50.38Z</time></trkpt><trkpt lat="44.0173912" lon="12.519222"><ele>99.0</ele><time>2026-04-19T08:44:51.389Z</time></trkpt><trkpt lat="44.0174312" lon="12.5193414"><ele>99.0</ele><time>2026-04-19T08:44:52.383Z</time></trkpt><trkpt lat="44.0174748" lon="12.5194716"><ele>99.0</ele><time>2026-04-19T08:44:53.391Z</time></trkpt><trkpt lat="44.0175215" lon="12.5196151"><ele>99.0</ele><time>2026-04-19T08:44:54.388Z</time></trkpt><trkpt lat="44.0175741" lon="12.5197587"><ele>99.0</ele><time>2026-04-19T08:44:55.383Z</time></trkpt><trkpt lat="44.017622" lon="12.5199032"><ele>97.25</ele><time>2026-04-19T08:44:56.383Z</time></trkpt><trkpt lat="44.0176706" lon="12.5200445"><ele>95.5</ele><time>2026-04-19T08:44:57.388Z</time></trkpt><trkpt lat="44.0177183" lon="12.5201904"><ele>93.75</ele><time>2026-04-19T08:44:58.388Z</time></trkpt><trkpt lat="44.0177662" lon="12.5203317"><ele>92.0</ele><time>2026-04-19T08:44:59.384Z</time></trkpt><trkpt lat="44.0178161" lon="12.5204718"><ele>90.8</ele><time>2026-04-19T08:45:00.382Z</time></trkpt><trkpt lat="44.0178681" lon="12.5206165"><ele>89.6</ele><time>2026-04-19T08:45:01.381Z</time></trkpt><trkpt lat="44.017923" lon="12.5207672"><ele>88.39999999999999</ele><time>2026-04-19T08:45:02.385Z</time></trkpt><trkpt lat="44.0179727" lon="12.5209038"><ele>87.19999999999999</ele><time>2026-04-19T08:45:03.381Z</time></trkpt><trkpt lat="44.0180213" lon="12.5210265"><ele>86.0</ele><time>2026-04-19T08:45:04.386Z</time></trkpt><trkpt lat="44.0180656" lon="12.5211356"><ele>84.5</ele><time>2026-04-19T08:45:05.379Z</time></trkpt><trkpt lat="44.0181075" lon="12.5212341"><ele>83.0</ele><time>2026-04-19T08:45:06.382Z</time></trkpt><trkpt lat="44.0181482" lon="12.5213225"><ele>81.5</ele><time>2026-04-19T08:45:07.383Z</time></trkpt><trkpt lat="44.01818" lon="12.5214034"><ele>80.0</ele><time>2026-04-19T08:45:08.385Z</time></trkpt><trkpt lat="44.0181838" lon="12.5215416"><ele>78.5</ele><time>2026-04-19T08:45:10.384Z</time></trkpt><trkpt lat="44.0181365" lon="12.5216803"><ele>77.0</ele><time>2026-04-19T08:45:12.382Z</time></trkpt><trkpt lat="44.0180915" lon="12.5218327"><ele>77.0</ele><time>2026-04-19T08:45:14.381Z</time></trkpt><trkpt lat="44.0180568" lon="12.5219954"><ele>77.0</ele><time>2026-04-19T08:45:16.384Z</time></trkpt><trkpt lat="44.0180363" lon="12.5221692"><ele>77.0</ele><time>2026-04-19T08:45:18.381Z</time></trkpt><trkpt lat="44.018026" lon="12.5222637"><ele>77.0</ele><time>2026-04-19T08:45:19.382Z</time></trkpt><trkpt lat="44.0180216" lon="12.5223611"><ele>77.0</ele><time>2026-04-19T08:45:20.383Z</time></trkpt><trkpt lat="44.0180195" lon="12.5224609"><ele>76.14285714285714</ele><time>2026-04-19T08:45:21.382Z</time></trkpt><trkpt lat="44.0180144" lon="12.5225563"><ele>75.28571428571428</ele><time>2026-04-19T08:45:22.383Z</time></trkpt><trkpt lat="44.0180107" lon="12.5226511"><ele>74.42857142857143</ele><time>2026-04-19T08:45:23.381Z</time></trkpt><trkpt lat="44.0180066" lon="12.5227468"><ele>73.57142857142857</ele><time>2026-04-19T08:45:24.383Z</time></trkpt><trkpt lat="44.0180029" lon="12.5228377"><ele>72.71428571428571</ele><time>2026-04-19T08:45:25.384Z</time></trkpt><trkpt lat="44.0179978" lon="12.5229307"><ele>71.85714285714286</ele><time>2026-04-19T08:45:26.383Z</time></trkpt><trkpt lat="44.0179925" lon="12.5230206"><ele>71.0</ele><time>2026-04-19T08:45:27.384Z</time></trkpt><trkpt lat="44.0179871" lon="12.5231089"><ele>70.8</ele><time>2026-04-19T08:45:28.383Z</time></trkpt><trkpt lat="44.0179703" lon="12.5232645"><ele>70.6</ele><time>2026-04-19T08:45:30.386Z</time></trkpt><trkpt lat="44.0179303" lon="12.5233752"><ele>70.4</ele><time>2026-04-19T08:45:32.382Z</time></trkpt><trkpt lat="44.0178907" lon="12.5234745"><ele>70.2</ele><time>2026-04-19T08:45:34.385Z</time></trkpt><trkpt lat="44.0178313" lon="12.5235648"><ele>70.0</ele><time>2026-04-19T08:45:36.389Z</time></trkpt><trkpt lat="44.0177524" lon="12.5236814"><ele>69.0</ele><time>2026-04-19T08:45:38.382Z</time></trkpt><trkpt lat="44.0176582" lon="12.5237837"><ele>68.0</ele><time>2026-04-19T08:45:40.383Z</time></trkpt><trkpt lat="44.017573" lon="12.5238822"><ele>67.0</ele><time>2026-04-19T08:45:42.383Z</time></trkpt><trkpt lat="44.017489" lon="12.5239806"><ele>66.0</ele><time>2026-04-19T08:45:44.385Z</time></trkpt><trkpt lat="44.0173984" lon="12.5240941"><ele>66.0</ele><time>2026-04-19T08:45:46.378Z</time></trkpt><trkpt lat="44.0173132" lon="12.5242308"><ele>66.0</ele><time>2026-04-19T08:45:48.377Z</time></trkpt><trkpt lat="44.0172354" lon="12.5243566"><ele>66.0</ele><time>2026-04-19T08:45:50.383Z</time></trkpt><trkpt lat="44.0171644" lon="12.5244725"><ele>66.0</ele><time>2026-04-19T08:45:52.387Z</time></trkpt><trkpt lat="44.0170948" lon="12.52457"><ele>67.33333333333333</ele><time>2026-04-19T08:45:54.38Z</time></trkpt><trkpt lat="44.017044" lon="12.524623"><ele>68.66666666666667</ele><time>2026-04-19T08:45:55.392Z</time></trkpt><trkpt lat="44.0169504" lon="12.5247321"><ele>70.0</ele><time>2026-04-19T08:45:57.388Z</time></trkpt><trkpt lat="44.0169069" lon="12.5248"><ele>71.33333333333334</ele><time>2026-04-19T08:45:58.381Z</time></trkpt><trkpt lat="44.016831" lon="12.5249159"><ele>72.66666666666667</ele><time>2026-04-19T08:46:00.385Z</time></trkpt><trkpt lat="44.0167872" lon="12.5249788"><ele>74.0</ele><time>2026-04-19T08:46:01.388Z</time></trkpt><trkpt lat="44.0167106" lon="12.5251076"><ele>74.0</ele><time>2026-04-19T08:46:03.385Z</time></trkpt><trkpt lat="44.0166742" lon="12.5251856"><ele>74.0</ele><time>2026-04-19T08:46:04.384Z</time></trkpt><trkpt lat="44.0165991" lon="12.5253218"><ele>74.0</ele><time>2026-04-19T08:46:06.381Z</time></trkpt><trkpt lat="44.0165574" lon="12.5253889"><ele>74.0</ele><time>2026-04-19T08:46:07.388Z</time></trkpt><trkpt lat="44.0165192" lon="12.5254606"><ele>74.0</ele><time>2026-04-19T08:46:08.385Z</time></trkpt><trkpt lat="44.0164497" lon="12.5255979"><ele>74.0</ele><time>2026-04-19T08:46:10.386Z</time></trkpt><trkpt lat="44.0163862" lon="12.5257317"><ele>74.2</ele><time>2026-04-19T08:46:12.387Z</time></trkpt><trkpt lat="44.0163193" lon="12.5258542"><ele>74.4</ele><time>2026-04-19T08:46:14.382Z</time></trkpt><trkpt lat="44.0162651" lon="12.5259877"><ele>74.6</ele><time>2026-04-19T08:46:16.385Z</time></trkpt><trkpt lat="44.0162072" lon="12.5261292"><ele>74.8</ele><time>2026-04-19T08:46:18.381Z</time></trkpt><trkpt lat="44.0161587" lon="12.5262636"><ele>75.0</ele><time>2026-04-19T08:46:20.387Z</time></trkpt><trkpt lat="44.0160934" lon="12.5264108"><ele>75.0</ele><time>2026-04-19T08:46:22.38Z</time></trkpt><trkpt lat="44.0160275" lon="12.5265472"><ele>75.0</ele><time>2026-04-19T08:46:24.376Z</time></trkpt><trkpt lat="44.0160026" lon="12.5266383"><ele>75.0</ele><time>2026-04-19T08:46:25.388Z</time></trkpt><trkpt lat="44.0159709" lon="12.5267168"><ele>75.0</ele><time>2026-04-19T08:46:26.381Z</time></trkpt><trkpt lat="44.0159242" lon="12.5268549"><ele>75.0</ele><time>2026-04-19T08:46:28.384Z</time></trkpt><trkpt lat="44.0158616" lon="12.526987"><ele>74.66666666666667</ele><time>2026-04-19T08:46:30.381Z</time></trkpt><trkpt lat="44.0158168" lon="12.5270488"><ele>74.33333333333333</ele><time>2026-04-19T08:46:31.381Z</time></trkpt><trkpt lat="44.0157666" lon="12.5271173"><ele>74.0</ele><time>2026-04-19T08:46:32.386Z</time></trkpt><trkpt lat="44.0157177" lon="12.5271935"><ele>73.66666666666666</ele><time>2026-04-19T08:46:33.383Z</time></trkpt><trkpt lat="44.015664" lon="12.5272803"><ele>73.33333333333333</ele><time>2026-04-19T08:46:34.381Z</time></trkpt><trkpt lat="44.0155956" lon="12.527358"><ele>73.0</ele><time>2026-04-19T08:46:35.377Z</time></trkpt><trkpt lat="44.0155328" lon="12.5274458"><ele>73.0</ele><time>2026-04-19T08:46:36.382Z</time></trkpt><trkpt lat="44.0154711" lon="12.5275406"><ele>73.0</ele><time>2026-04-19T08:46:37.383Z</time></trkpt><trkpt lat="44.0154112" lon="12.5276341"><ele>73.0</ele><time>2026-04-19T08:46:38.384Z</time></trkpt><trkpt lat="44.0153445" lon="12.5277306"><ele>73.0</ele><time>2026-04-19T08:46:39.38Z</time></trkpt><trkpt lat="44.0152715" lon="12.5278235"><ele>73.0</ele><time>2026-04-19T08:46:40.381Z</time></trkpt><trkpt lat="44.0151974" lon="12.5279166"><ele>73.25</ele><time>2026-04-19T08:46:41.386Z</time></trkpt><trkpt lat="44.0151206" lon="12.5280154"><ele>73.5</ele><time>2026-04-19T08:46:42.378Z</time></trkpt><trkpt lat="44.0150349" lon="12.5281212"><ele>73.75</ele><time>2026-04-19T08:46:43.384Z</time></trkpt><trkpt lat="44.0149482" lon="12.5282312"><ele>74.0</ele><time>2026-04-19T08:46:44.388Z</time></trkpt><trkpt lat="44.0148624" lon="12.5283398"><ele>72.5</ele><time>2026-04-19T08:46:45.383Z</time></trkpt><trkpt lat="44.0147784" lon="12.5284508"><ele>71.0</ele><time>2026-04-19T08:46:46.382Z</time></trkpt><trkpt lat="44.0146916" lon="12.5285647"><ele>69.5</ele><time>2026-04-19T08:46:47.382Z</time></trkpt><trkpt lat="44.0146042" lon="12.5286855"><ele>68.0</ele><time>2026-04-19T08:46:48.388Z</time></trkpt><trkpt lat="44.0145166" lon="12.5288059"><ele>68.0</ele><time>2026-04-19T08:46:49.379Z</time></trkpt><trkpt lat="44.0144251" lon="12.5289218"><ele>68.0</ele><time>2026-04-19T08:46:50.389Z</time></trkpt><trkpt lat="44.0143358" lon="12.5290339"><ele>68.0</ele><time>2026-04-19T08:46:51.381Z</time></trkpt><trkpt lat="44.0142509" lon="12.529141"><ele>68.0</ele><time>2026-04-19T08:46:52.383Z</time></trkpt><trkpt lat="44.0141682" lon="12.5292266"><ele>68.0</ele><time>2026-04-19T08:46:53.379Z</time></trkpt><trkpt lat="44.0140769" lon="12.5293061"><ele>68.0</ele><time>2026-04-19T08:46:54.381Z</time></trkpt><trkpt lat="44.0139785" lon="12.5293622"><ele>68.0</ele><time>2026-04-19T08:46:55.39Z</time></trkpt><trkpt lat="44.0138862" lon="12.5294009"><ele>68.0</ele><time>2026-04-19T08:46:56.385Z</time></trkpt><trkpt lat="44.0138108" lon="12.5294306"><ele>68.0</ele><time>2026-04-19T08:46:57.384Z</time></trkpt><trkpt lat="44.0137418" lon="12.529462"><ele>68.0</ele><time>2026-04-19T08:46:58.387Z</time></trkpt><trkpt lat="44.0136661" lon="12.5295051"><ele>68.0</ele><time>2026-04-19T08:46:59.38Z</time></trkpt><trkpt lat="44.0135873" lon="12.5295506"><ele>68.0</ele><time>2026-04-19T08:47:00.385Z</time></trkpt><trkpt lat="44.0134997" lon="12.5295982"><ele>68.0</ele><time>2026-04-19T08:47:01.382Z</time></trkpt><trkpt lat="44.0134117" lon="12.5296519"><ele>68.0</ele><time>2026-04-19T08:47:02.38Z</time></trkpt><trkpt lat="44.0133249" lon="12.5297127"><ele>68.0</ele><time>2026-04-19T08:47:03.38Z</time></trkpt><trkpt lat="44.0132374" lon="12.5297825"><ele>68.0</ele><time>2026-04-19T08:47:04.384Z</time></trkpt><trkpt lat="44.0131535" lon="12.5298568"><ele>68.0</ele><time>2026-04-19T08:47:05.38Z</time></trkpt><trkpt lat="44.0130667" lon="12.5299393"><ele>68.0</ele><time>2026-04-19T08:47:06.381Z</time></trkpt><trkpt lat="44.0129847" lon="12.530026"><ele>68.0</ele><time>2026-04-19T08:47:07.378Z</time></trkpt><trkpt lat="44.0129018" lon="12.5301084"><ele>68.0</ele><time>2026-04-19T08:47:08.381Z</time></trkpt><trkpt lat="44.0128151" lon="12.5301919"><ele>68.0</ele><time>2026-04-19T08:47:09.383Z</time></trkpt><trkpt lat="44.0127273" lon="12.5302726"><ele>68.0</ele><time>2026-04-19T08:47:10.379Z</time></trkpt><trkpt lat="44.0126382" lon="12.530356"><ele>68.0</ele><time>2026-04-19T08:47:11.381Z</time></trkpt><trkpt lat="44.012551" lon="12.5304383"><ele>68.0</ele><time>2026-04-19T08:47:12.379Z</time></trkpt><trkpt lat="44.0124657" lon="12.5305198"><ele>66.0</ele><time>2026-04-19T08:47:13.388Z</time></trkpt><trkpt lat="44.0123776" lon="12.5305973"><ele>64.0</ele><time>2026-04-19T08:47:14.376Z</time></trkpt><trkpt lat="44.0122918" lon="12.5306734"><ele>62.0</ele><time>2026-04-19T08:47:15.388Z</time></trkpt><trkpt lat="44.0122067" lon="12.5307491"><ele>60.0</ele><time>2026-04-19T08:47:16.383Z</time></trkpt><trkpt lat="44.0121296" lon="12.5308225"><ele>58.0</ele><time>2026-04-19T08:47:17.381Z</time></trkpt><trkpt lat="44.0120672" lon="12.5308983"><ele>58.0</ele><time>2026-04-19T08:47:18.381Z</time></trkpt><trkpt lat="44.0120169" lon="12.5309961"><ele>58.0</ele><time>2026-04-19T08:47:19.392Z</time></trkpt><trkpt lat="44.0119816" lon="12.531119"><ele>58.0</ele><time>2026-04-19T08:47:20.384Z</time></trkpt><trkpt lat="44.0119739" lon="12.5312615"><ele>58.0</ele><time>2026-04-19T08:47:21.383Z</time></trkpt><trkpt lat="44.0119712" lon="12.5314108"><ele>58.0</ele><time>2026-04-19T08:47:22.379Z</time></trkpt><trkpt lat="44.0119701" lon="12.5315585"><ele>57.0</ele><time>2026-04-19T08:47:23.384Z</time></trkpt><trkpt lat="44.0119643" lon="12.5316997"><ele>56.0</ele><time>2026-04-19T08:47:24.381Z</time></trkpt><trkpt lat="44.011965" lon="12.5318542"><ele>55.0</ele><time>2026-04-19T08:47:25.383Z</time></trkpt><trkpt lat="44.0119619" lon="12.5319997"><ele>54.0</ele><time>2026-04-19T08:47:26.383Z</time></trkpt><trkpt lat="44.011962" lon="12.5321329"><ele>53.0</ele><time>2026-04-19T08:47:27.382Z</time></trkpt><trkpt lat="44.0119608" lon="12.5322585"><ele>53.0</ele><time>2026-04-19T08:47:28.386Z</time></trkpt><trkpt lat="44.0119623" lon="12.5323641"><ele>53.0</ele><time>2026-04-19T08:47:29.387Z</time></trkpt><trkpt lat="44.0119572" lon="12.5324583"><ele>53.0</ele><time>2026-04-19T08:47:30.384Z</time></trkpt><trkpt lat="44.0119279" lon="12.5325683"><ele>53.0</ele><time>2026-04-19T08:47:32.389Z</time></trkpt><trkpt lat="44.0118669" lon="12.532614"><ele>53.0</ele><time>2026-04-19T08:47:43.386Z</time></trkpt><trkpt lat="44.0118077" lon="12.5326438"><ele>53.0</ele><time>2026-04-19T08:47:52.381Z</time></trkpt><trkpt lat="44.0118852" lon="12.5326494"><ele>53.0</ele><time>2026-04-19T08:47:56.382Z</time></trkpt><trkpt lat="44.0119569" lon="12.5326548"><ele>53.00000000000001</ele><time>2026-04-19T08:47:58.386Z</time></trkpt><trkpt lat="44.0120306" lon="12.5327524"><ele>53.0</ele><time>2026-04-19T08:48:00.382Z</time></trkpt><trkpt lat="44.0120724" lon="12.5328249"><ele>53.0</ele><time>2026-04-19T08:48:01.387Z</time></trkpt><trkpt lat="44.0121176" lon="12.5328979"><ele>53.0</ele><time>2026-04-19T08:48:02.38Z</time></trkpt><trkpt lat="44.0121721" lon="12.5329723"><ele>53.00000000000001</ele><time>2026-04-19T08:48:03.381Z</time></trkpt><trkpt lat="44.0122261" lon="12.53305"><ele>53.0</ele><time>2026-04-19T08:48:04.382Z</time></trkpt><trkpt lat="44.0122791" lon="12.5331216"><ele>53.16666666666667</ele><time>2026-04-19T08:48:05.381Z</time></trkpt><trkpt lat="44.0123261" lon="12.5331876"><ele>53.333333333333336</ele><time>2026-04-19T08:48:06.381Z</time></trkpt><trkpt lat="44.0123837" lon="12.5332542"><ele>53.5</ele><time>2026-04-19T08:48:07.383Z</time></trkpt><trkpt lat="44.0124415" lon="12.5333198"><ele>53.66666666666667</ele><time>2026-04-19T08:48:08.385Z</time></trkpt><trkpt lat="44.0125034" lon="12.5333934"><ele>53.833333333333336</ele><time>2026-04-19T08:48:09.38Z</time></trkpt><trkpt lat="44.0125664" lon="12.5334655"><ele>54.0</ele><time>2026-04-19T08:48:10.383Z</time></trkpt><trkpt lat="44.0126344" lon="12.5335422"><ele>52.6</ele><time>2026-04-19T08:48:11.383Z</time></trkpt><trkpt lat="44.0127058" lon="12.5336196"><ele>51.2</ele><time>2026-04-19T08:48:12.383Z</time></trkpt><trkpt lat="44.0127806" lon="12.5337012"><ele>49.800000000000004</ele><time>2026-04-19T08:48:13.378Z</time></trkpt><trkpt lat="44.0128509" lon="12.5337735"><ele>48.400000000000006</ele><time>2026-04-19T08:48:14.383Z</time></trkpt><trkpt lat="44.0129289" lon="12.533852"><ele>47.0</ele><time>2026-04-19T08:48:15.383Z</time></trkpt><trkpt lat="44.0130048" lon="12.5339304"><ele>45.666666666666664</ele><time>2026-04-19T08:48:16.384Z</time></trkpt><trkpt lat="44.0130846" lon="12.5340096"><ele>44.33333333333333</ele><time>2026-04-19T08:48:17.382Z</time></trkpt><trkpt lat="44.013162" lon="12.5340861"><ele>43.0</ele><time>2026-04-19T08:48:18.38Z</time></trkpt><trkpt lat="44.0132416" lon="12.534159"><ele>41.666666666666664</ele><time>2026-04-19T08:48:19.383Z</time></trkpt><trkpt lat="44.0133097" lon="12.5342259"><ele>40.333333333333336</ele><time>2026-04-19T08:48:20.377Z</time></trkpt><trkpt lat="44.0133666" lon="12.5342932"><ele>39.0</ele><time>2026-04-19T08:48:21.381Z</time></trkpt><trkpt lat="44.0134251" lon="12.5343619"><ele>37.833333333333336</ele><time>2026-04-19T08:48:22.388Z</time></trkpt><trkpt lat="44.0134829" lon="12.5344362"><ele>36.666666666666664</ele><time>2026-04-19T08:48:23.382Z</time></trkpt><trkpt lat="44.0135413" lon="12.534516"><ele>35.5</ele><time>2026-04-19T08:48:24.382Z</time></trkpt><trkpt lat="44.0136005" lon="12.5346073"><ele>34.33333333333333</ele><time>2026-04-19T08:48:25.382Z</time></trkpt><trkpt lat="44.0136615" lon="12.5347049"><ele>33.166666666666664</ele><time>2026-04-19T08:48:26.383Z</time></trkpt><trkpt lat="44.0137174" lon="12.5348043"><ele>32.0</ele><time>2026-04-19T08:48:27.383Z</time></trkpt><trkpt lat="44.0137719" lon="12.5349095"><ele>31.166666666666664</ele><time>2026-04-19T08:48:28.385Z</time></trkpt><trkpt lat="44.0138231" lon="12.5350051"><ele>30.333333333333332</ele><time>2026-04-19T08:48:29.381Z</time></trkpt><trkpt lat="44.0138713" lon="12.5350931"><ele>29.5</ele><time>2026-04-19T08:48:30.379Z</time></trkpt><trkpt lat="44.0139121" lon="12.5351717"><ele>28.666666666666664</ele><time>2026-04-19T08:48:31.382Z</time></trkpt><trkpt lat="44.0139755" lon="12.5352988"><ele>27.833333333333332</ele><time>2026-04-19T08:48:33.379Z</time></trkpt><trkpt lat="44.0139968" lon="12.5354067"><ele>27.0</ele><time>2026-04-19T08:48:36.381Z</time></trkpt><trkpt lat="44.0139303" lon="12.535479"><ele>27.0</ele><time>2026-04-19T08:48:39.386Z</time></trkpt><trkpt lat="44.0139866" lon="12.5353693"><ele>27.000000000000004</ele><time>2026-04-19T08:48:45.377Z</time></trkpt><trkpt lat="44.0139443" lon="12.5352047"><ele>27.000000000000004</ele><time>2026-04-19T08:48:47.385Z</time></trkpt><trkpt lat="44.0138942" lon="12.5351136"><ele>27.0</ele><time>2026-04-19T08:48:48.38Z</time></trkpt><trkpt lat="44.0138371" lon="12.5350081"><ele>27.0</ele><time>2026-04-19T08:48:49.379Z</time></trkpt><trkpt lat="44.0137754" lon="12.5348991"><ele>27.0</ele><time>2026-04-19T08:48:50.385Z</time></trkpt><trkpt lat="44.0137139" lon="12.5347843"><ele>27.000000000000004</ele><time>2026-04-19T08:48:51.388Z</time></trkpt><trkpt lat="44.0136492" lon="12.5346647"><ele>27.000000000000004</ele><time>2026-04-19T08:48:52.382Z</time></trkpt><trkpt lat="44.0135755" lon="12.5345426"><ele>27.0</ele><time>2026-04-19T08:48:53.386Z</time></trkpt><trkpt lat="44.0134934" lon="12.5344256"><ele>27.0</ele><time>2026-04-19T08:48:54.379Z</time></trkpt><trkpt lat="44.0134047" lon="12.534314"><ele>30.0</ele><time>2026-04-19T08:48:55.38Z</time></trkpt><trkpt lat="44.0133122" lon="12.5342144"><ele>33.0</ele><time>2026-04-19T08:48:56.384Z</time></trkpt><trkpt lat="44.0132183" lon="12.5341208"><ele>36.0</ele><time>2026-04-19T08:48:57.38Z</time></trkpt><trkpt lat="44.0131247" lon="12.5340296"><ele>39.0</ele><time>2026-04-19T08:48:58.386Z</time></trkpt><trkpt lat="44.0130311" lon="12.5339425"><ele>39.0</ele><time>2026-04-19T08:48:59.381Z</time></trkpt><trkpt lat="44.012945" lon="12.5338529"><ele>39.0</ele><time>2026-04-19T08:49:00.388Z</time></trkpt><trkpt lat="44.0128582" lon="12.5337628"><ele>39.0</ele><time>2026-04-19T08:49:01.387Z</time></trkpt><trkpt lat="44.0127699" lon="12.5336711"><ele>39.0</ele><time>2026-04-19T08:49:02.38Z</time></trkpt><trkpt lat="44.012687" lon="12.533582"><ele>39.0</ele><time>2026-04-19T08:49:03.382Z</time></trkpt><trkpt lat="44.0126005" lon="12.5334923"><ele>40.6</ele><time>2026-04-19T08:49:04.384Z</time></trkpt><trkpt lat="44.0125204" lon="12.5333959"><ele>42.2</ele><time>2026-04-19T08:49:05.381Z</time></trkpt><trkpt lat="44.012441" lon="12.5332983"><ele>43.800000000000004</ele><time>2026-04-19T08:49:06.39Z</time></trkpt><trkpt lat="44.0123647" lon="12.5331995"><ele>45.4</ele><time>2026-04-19T08:49:07.382Z</time></trkpt><trkpt lat="44.0122902" lon="12.533101"><ele>47.0</ele><time>2026-04-19T08:49:08.385Z</time></trkpt><trkpt lat="44.0122207" lon="12.5329997"><ele>48.0</ele><time>2026-04-19T08:49:09.385Z</time></trkpt><trkpt lat="44.0121545" lon="12.532901"><ele>49.0</ele><time>2026-04-19T08:49:10.384Z</time></trkpt><trkpt lat="44.0120953" lon="12.5328091"><ele>50.0</ele><time>2026-04-19T08:49:11.383Z</time></trkpt><trkpt lat="44.0120474" lon="12.5327173"><ele>51.0</ele><time>2026-04-19T08:49:12.384Z</time></trkpt><trkpt lat="44.012008" lon="12.5326257"><ele>52.00000000000001</ele><time>2026-04-19T08:49:13.384Z</time></trkpt><trkpt lat="44.0119863" lon="12.5325275"><ele>53.0</ele><time>2026-04-19T08:49:14.384Z</time></trkpt><trkpt lat="44.0119824" lon="12.5324115"><ele>53.0</ele><time>2026-04-19T08:49:15.381Z</time></trkpt><trkpt lat="44.0119816" lon="12.5322854"><ele>53.0</ele><time>2026-04-19T08:49:16.385Z</time></trkpt><trkpt lat="44.0119839" lon="12.5321531"><ele>53.0</ele><time>2026-04-19T08:49:17.381Z</time></trkpt><trkpt lat="44.0119837" lon="12.5319998"><ele>53.0</ele><time>2026-04-19T08:49:18.378Z</time></trkpt><trkpt lat="44.0119853" lon="12.5318509"><ele>53.0</ele><time>2026-04-19T08:49:19.386Z</time></trkpt><trkpt lat="44.0119862" lon="12.5316964"><ele>53.0</ele><time>2026-04-19T08:49:20.382Z</time></trkpt><trkpt lat="44.0119851" lon="12.5315425"><ele>53.0</ele><time>2026-04-19T08:49:21.378Z</time></trkpt><trkpt lat="44.0119874" lon="12.531382"><ele>53.0</ele><time>2026-04-19T08:49:22.387Z</time></trkpt><trkpt lat="44.0119949" lon="12.5312217"><ele>53.0</ele><time>2026-04-19T08:49:23.389Z</time></trkpt><trkpt lat="44.0120174" lon="12.5310754"><ele>53.0</ele><time>2026-04-19T08:49:24.385Z</time></trkpt><trkpt lat="44.0120635" lon="12.5309513"><ele>54.0</ele><time>2026-04-19T08:49:25.39Z</time></trkpt><trkpt lat="44.0121371" lon="12.5308466"><ele>55.0</ele><time>2026-04-19T08:49:26.378Z</time></trkpt><trkpt lat="44.012226" lon="12.5307586"><ele>56.0</ele><time>2026-04-19T08:49:27.381Z</time></trkpt><trkpt lat="44.012313" lon="12.5306736"><ele>57.0</ele><time>2026-04-19T08:49:28.38Z</time></trkpt><trkpt lat="44.012398" lon="12.5305938"><ele>58.0</ele><time>2026-04-19T08:49:29.385Z</time></trkpt><trkpt lat="44.0124697" lon="12.5305281"><ele>58.99999999999999</ele><time>2026-04-19T08:49:30.381Z</time></trkpt><trkpt lat="44.0125383" lon="12.5304644"><ele>60.0</ele><time>2026-04-19T08:49:31.382Z</time></trkpt><trkpt lat="44.0125971" lon="12.5304167"><ele>61.0</ele><time>2026-04-19T08:49:32.376Z</time></trkpt><trkpt lat="44.0126809" lon="12.5303394"><ele>62.0</ele><time>2026-04-19T08:49:34.38Z</time></trkpt><trkpt lat="44.0127346" lon="12.5302845"><ele>62.99999999999999</ele><time>2026-04-19T08:49:36.377Z</time></trkpt><trkpt lat="44.0128231" lon="12.5301977"><ele>64.0</ele><time>2026-04-19T08:49:39.397Z</time></trkpt><trkpt lat="44.0129216" lon="12.5301011"><ele>64.57142857142857</ele><time>2026-04-19T08:49:41.379Z</time></trkpt><trkpt lat="44.0129752" lon="12.5300494"><ele>65.14285714285714</ele><time>2026-04-19T08:49:42.377Z</time></trkpt><trkpt lat="44.0130316" lon="12.5299962"><ele>65.71428571428571</ele><time>2026-04-19T08:49:43.386Z</time></trkpt><trkpt lat="44.0130885" lon="12.529937"><ele>66.28571428571428</ele><time>2026-04-19T08:49:44.379Z</time></trkpt><trkpt lat="44.0131515" lon="12.529875"><ele>66.85714285714286</ele><time>2026-04-19T08:49:45.38Z</time></trkpt><trkpt lat="44.013218" lon="12.5298162"><ele>67.42857142857142</ele><time>2026-04-19T08:49:46.385Z</time></trkpt><trkpt lat="44.013288" lon="12.5297593"><ele>68.0</ele><time>2026-04-19T08:49:47.384Z</time></trkpt><trkpt lat="44.0133612" lon="12.5297092"><ele>68.0</ele><time>2026-04-19T08:49:48.389Z</time></trkpt><trkpt lat="44.0134327" lon="12.5296645"><ele>68.0</ele><time>2026-04-19T08:49:49.38Z</time></trkpt><trkpt lat="44.0134994" lon="12.5296274"><ele>68.0</ele><time>2026-04-19T08:49:50.382Z</time></trkpt><trkpt lat="44.0135997" lon="12.529577"><ele>68.0</ele><time>2026-04-19T08:49:52.379Z</time></trkpt><trkpt lat="44.0136509" lon="12.5295026"><ele>68.0</ele><time>2026-04-19T08:49:54.389Z</time></trkpt><trkpt lat="44.0136067" lon="12.5294093"><ele>68.0</ele><time>2026-04-19T08:49:56.395Z</time></trkpt><trkpt lat="44.0135453" lon="12.5293638"><ele>68.0</ele><time>2026-04-19T08:49:57.388Z</time></trkpt><trkpt lat="44.0134681" lon="12.5293134"><ele>68.0</ele><time>2026-04-19T08:49:58.378Z</time></trkpt><trkpt lat="44.0133813" lon="12.5292477"><ele>68.0</ele><time>2026-04-19T08:49:59.382Z</time></trkpt><trkpt lat="44.0132932" lon="12.5291764"><ele>68.0</ele><time>2026-04-19T08:50:00.379Z</time></trkpt><trkpt lat="44.0132007" lon="12.5291056"><ele>68.0</ele><time>2026-04-19T08:50:01.378Z</time></trkpt><trkpt lat="44.0131059" lon="12.5290357"><ele>68.6</ele><time>2026-04-19T08:50:02.384Z</time></trkpt><trkpt lat="44.0130096" lon="12.5289671"><ele>69.19999999999999</ele><time>2026-04-19T08:50:03.385Z</time></trkpt><trkpt lat="44.0129148" lon="12.5288975"><ele>69.8</ele><time>2026-04-19T08:50:04.382Z</time></trkpt><trkpt lat="44.0128196" lon="12.5288256"><ele>70.39999999999999</ele><time>2026-04-19T08:50:05.38Z</time></trkpt><trkpt lat="44.0127165" lon="12.5287651"><ele>71.0</ele><time>2026-04-19T08:50:06.383Z</time></trkpt><trkpt lat="44.0126111" lon="12.5287129"><ele>71.0</ele><time>2026-04-19T08:50:07.379Z</time></trkpt><trkpt lat="44.0125034" lon="12.5286658"><ele>71.0</ele><time>2026-04-19T08:50:08.385Z</time></trkpt><trkpt lat="44.012395" lon="12.5286235"><ele>71.0</ele><time>2026-04-19T08:50:09.389Z</time></trkpt><trkpt lat="44.0122863" lon="12.5285836"><ele>71.0</ele><time>2026-04-19T08:50:10.385Z</time></trkpt><trkpt lat="44.0121787" lon="12.5285481"><ele>71.0</ele><time>2026-04-19T08:50:11.388Z</time></trkpt><trkpt lat="44.0120675" lon="12.5285206"><ele>73.25</ele><time>2026-04-19T08:50:12.388Z</time></trkpt><trkpt lat="44.0119518" lon="12.5285115"><ele>75.5</ele><time>2026-04-19T08:50:13.391Z</time></trkpt><trkpt lat="44.0118401" lon="12.528514"><ele>77.75</ele><time>2026-04-19T08:50:14.383Z</time></trkpt><trkpt lat="44.0117233" lon="12.5285291"><ele>80.0</ele><time>2026-04-19T08:50:15.381Z</time></trkpt><trkpt lat="44.0116139" lon="12.5285338"><ele>82.0</ele><time>2026-04-19T08:50:16.383Z</time></trkpt><trkpt lat="44.0115057" lon="12.5285412"><ele>84.0</ele><time>2026-04-19T08:50:17.381Z</time></trkpt><trkpt lat="44.0113992" lon="12.5285533"><ele>86.0</ele><time>2026-04-19T08:50:18.377Z</time></trkpt><trkpt lat="44.0112926" lon="12.5285651"><ele>88.0</ele><time>2026-04-19T08:50:19.378Z</time></trkpt><trkpt lat="44.0111946" lon="12.5285824"><ele>90.0</ele><time>2026-04-19T08:50:20.383Z</time></trkpt><trkpt lat="44.0110974" lon="12.5285912"><ele>90.0</ele><time>2026-04-19T08:50:21.384Z</time></trkpt><trkpt lat="44.0110011" lon="12.5285938"><ele>90.0</ele><time>2026-04-19T08:50:22.386Z</time></trkpt><trkpt lat="44.0109115" lon="12.5286027"><ele>90.0</ele><time>2026-04-19T08:50:23.381Z</time></trkpt><trkpt lat="44.0108259" lon="12.5286115"><ele>90.0</ele><time>2026-04-19T08:50:24.382Z</time></trkpt><trkpt lat="44.0107378" lon="12.5286082"><ele>90.0</ele><time>2026-04-19T08:50:25.379Z</time></trkpt><trkpt lat="44.0106457" lon="12.5285815"><ele>90.0</ele><time>2026-04-19T08:50:26.387Z</time></trkpt><trkpt lat="44.0105585" lon="12.5285458"><ele>90.0</ele><time>2026-04-19T08:50:27.381Z</time></trkpt><trkpt lat="44.0104719" lon="12.528494"><ele>90.0</ele><time>2026-04-19T08:50:28.385Z</time></trkpt><trkpt lat="44.0103784" lon="12.5284426"><ele>90.0</ele><time>2026-04-19T08:50:29.379Z</time></trkpt><trkpt lat="44.0102884" lon="12.5283829"><ele>90.0</ele><time>2026-04-19T08:50:30.385Z</time></trkpt><trkpt lat="44.0102032" lon="12.5283149"><ele>90.0</ele><time>2026-04-19T08:50:31.383Z</time></trkpt><trkpt lat="44.0101085" lon="12.528254"><ele>90.0</ele><time>2026-04-19T08:50:32.384Z</time></trkpt><trkpt lat="44.0100154" lon="12.5281868"><ele>90.0</ele><time>2026-04-19T08:50:33.389Z</time></trkpt><trkpt lat="44.0099215" lon="12.5281282"><ele>90.0</ele><time>2026-04-19T08:50:34.389Z</time></trkpt><trkpt lat="44.0098323" lon="12.528068"><ele>90.0</ele><time>2026-04-19T08:50:35.387Z</time></trkpt><trkpt lat="44.0097453" lon="12.5280181"><ele>89.0</ele><time>2026-04-19T08:50:36.385Z</time></trkpt><trkpt lat="44.0096636" lon="12.5279695"><ele>88.0</ele><time>2026-04-19T08:50:37.382Z</time></trkpt><trkpt lat="44.009582" lon="12.5279173"><ele>87.0</ele><time>2026-04-19T08:50:38.39Z</time></trkpt><trkpt lat="44.009502" lon="12.5278676"><ele>86.0</ele><time>2026-04-19T08:50:39.384Z</time></trkpt><trkpt lat="44.009425" lon="12.5278082"><ele>85.0</ele><time>2026-04-19T08:50:40.386Z</time></trkpt><trkpt lat="44.0093507" lon="12.527745"><ele>84.0</ele><time>2026-04-19T08:50:41.393Z</time></trkpt><trkpt lat="44.0092804" lon="12.5276691"><ele>84.0</ele><time>2026-04-19T08:50:42.385Z</time></trkpt><trkpt lat="44.0092192" lon="12.5275804"><ele>84.0</ele><time>2026-04-19T08:50:43.38Z</time></trkpt><trkpt lat="44.0091586" lon="12.5274798"><ele>84.0</ele><time>2026-04-19T08:50:44.388Z</time></trkpt><trkpt lat="44.0090957" lon="12.5273777"><ele>84.0</ele><time>2026-04-19T08:50:45.379Z</time></trkpt><trkpt lat="44.0090322" lon="12.5272728"><ele>84.0</ele><time>2026-04-19T08:50:46.388Z</time></trkpt><trkpt lat="44.00897" lon="12.5271695"><ele>82.16666666666667</ele><time>2026-04-19T08:50:47.381Z</time></trkpt><trkpt lat="44.0089098" lon="12.5270703"><ele>80.33333333333333</ele><time>2026-04-19T08:50:48.385Z</time></trkpt><trkpt lat="44.0088499" lon="12.5269793"><ele>78.5</ele><time>2026-04-19T08:50:49.387Z</time></trkpt><trkpt lat="44.0087936" lon="12.5268873"><ele>76.66666666666666</ele><time>2026-04-19T08:50:50.382Z</time></trkpt><trkpt lat="44.008737" lon="12.5268051"><ele>74.83333333333333</ele><time>2026-04-19T08:50:51.381Z</time></trkpt><trkpt lat="44.008682" lon="12.5267403"><ele>73.0</ele><time>2026-04-19T08:50:52.389Z</time></trkpt><trkpt lat="44.0086222" lon="12.526698"><ele>73.0</ele><time>2026-04-19T08:50:53.38Z</time></trkpt><trkpt lat="44.0085389" lon="12.5267406"><ele>73.0</ele><time>2026-04-19T08:50:54.388Z</time></trkpt><trkpt lat="44.0084745" lon="12.5268061"><ele>73.0</ele><time>2026-04-19T08:50:55.392Z</time></trkpt><trkpt lat="44.0084048" lon="12.5268852"><ele>73.0</ele><time>2026-04-19T08:50:56.384Z</time></trkpt><trkpt lat="44.0083327" lon="12.526971"><ele>73.0</ele><time>2026-04-19T08:50:57.383Z</time></trkpt><trkpt lat="44.0082581" lon="12.5270638"><ele>71.6</ele><time>2026-04-19T08:50:58.382Z</time></trkpt><trkpt lat="44.0081811" lon="12.5271594"><ele>70.19999999999999</ele><time>2026-04-19T08:50:59.386Z</time></trkpt><trkpt lat="44.008105" lon="12.5272512"><ele>68.8</ele><time>2026-04-19T08:51:00.382Z</time></trkpt><trkpt lat="44.0080278" lon="12.5273382"><ele>67.39999999999999</ele><time>2026-04-19T08:51:01.384Z</time></trkpt><trkpt lat="44.0079539" lon="12.5274277"><ele>66.0</ele><time>2026-04-19T08:51:02.382Z</time></trkpt><trkpt lat="44.0078755" lon="12.5275174"><ele>66.0</ele><time>2026-04-19T08:51:03.381Z</time></trkpt><trkpt lat="44.0078047" lon="12.527611"><ele>66.0</ele><time>2026-04-19T08:51:04.379Z</time></trkpt><trkpt lat="44.0077343" lon="12.5277096"><ele>66.0</ele><time>2026-04-19T08:51:05.383Z</time></trkpt><trkpt lat="44.0076585" lon="12.5278052"><ele>66.0</ele><time>2026-04-19T08:51:06.38Z</time></trkpt><trkpt lat="44.0075818" lon="12.5279027"><ele>66.0</ele><time>2026-04-19T08:51:07.38Z</time></trkpt><trkpt lat="44.0075025" lon="12.5279992"><ele>65.8</ele><time>2026-04-19T08:51:08.385Z</time></trkpt><trkpt lat="44.0074266" lon="12.5281012"><ele>65.6</ele><time>2026-04-19T08:51:09.381Z</time></trkpt><trkpt lat="44.0073418" lon="12.5281959"><ele>65.4</ele><time>2026-04-19T08:51:10.382Z</time></trkpt><trkpt lat="44.0072607" lon="12.5282899"><ele>65.2</ele><time>2026-04-19T08:51:11.385Z</time></trkpt><trkpt lat="44.0071759" lon="12.5283888"><ele>65.0</ele><time>2026-04-19T08:51:12.387Z</time></trkpt><trkpt lat="44.0070919" lon="12.5284896"><ele>65.0</ele><time>2026-04-19T08:51:13.384Z</time></trkpt><trkpt lat="44.0070066" lon="12.5285946"><ele>65.0</ele><time>2026-04-19T08:51:14.382Z</time></trkpt><trkpt lat="44.0069239" lon="12.5287002"><ele>65.0</ele><time>2026-04-19T08:51:15.382Z</time></trkpt><trkpt lat="44.0068458" lon="12.5288047"><ele>65.0</ele><time>2026-04-19T08:51:16.384Z</time></trkpt><trkpt lat="44.0067703" lon="12.5289096"><ele>65.0</ele><time>2026-04-19T08:51:17.386Z</time></trkpt><trkpt lat="44.0067085" lon="12.5290236"><ele>65.0</ele><time>2026-04-19T08:51:18.382Z</time></trkpt><trkpt lat="44.0066509" lon="12.5291503"><ele>65.0</ele><time>2026-04-19T08:51:19.38Z</time></trkpt><trkpt lat="44.006603" lon="12.5292886"><ele>65.0</ele><time>2026-04-19T08:51:20.383Z</time></trkpt><trkpt lat="44.0065666" lon="12.5294394"><ele>65.0</ele><time>2026-04-19T08:51:21.386Z</time></trkpt><trkpt lat="44.0065296" lon="12.5295924"><ele>65.0</ele><time>2026-04-19T08:51:22.384Z</time></trkpt><trkpt lat="44.006496" lon="12.5297486"><ele>63.75</ele><time>2026-04-19T08:51:23.386Z</time></trkpt><trkpt lat="44.0064638" lon="12.5299004"><ele>62.5</ele><time>2026-04-19T08:51:24.383Z</time></trkpt><trkpt lat="44.0064227" lon="12.5300511"><ele>61.25</ele><time>2026-04-19T08:51:25.386Z</time></trkpt><trkpt lat="44.0063764" lon="12.5301875"><ele>60.0</ele><time>2026-04-19T08:51:26.386Z</time></trkpt><trkpt lat="44.0063293" lon="12.5303298"><ele>57.5</ele><time>2026-04-19T08:51:27.378Z</time></trkpt><trkpt lat="44.0062746" lon="12.5304673"><ele>55.0</ele><time>2026-04-19T08:51:28.387Z</time></trkpt><trkpt lat="44.0062198" lon="12.5306072"><ele>52.5</ele><time>2026-04-19T08:51:29.38Z</time></trkpt><trkpt lat="44.0061541" lon="12.5307451"><ele>50.0</ele><time>2026-04-19T08:51:30.38Z</time></trkpt><trkpt lat="44.0060856" lon="12.5308842"><ele>50.0</ele><time>2026-04-19T08:51:31.384Z</time></trkpt><trkpt lat="44.0060095" lon="12.5310226"><ele>50.0</ele><time>2026-04-19T08:51:32.384Z</time></trkpt><trkpt lat="44.005937" lon="12.5311677"><ele>50.0</ele><time>2026-04-19T08:51:33.378Z</time></trkpt><trkpt lat="44.0058628" lon="12.5313151"><ele>50.0</ele><time>2026-04-19T08:51:34.385Z</time></trkpt><trkpt lat="44.0057873" lon="12.5314634"><ele>47.75</ele><time>2026-04-19T08:51:35.378Z</time></trkpt><trkpt lat="44.0057125" lon="12.531611"><ele>45.5</ele><time>2026-04-19T08:51:36.383Z</time></trkpt><trkpt lat="44.0056464" lon="12.5317567"><ele>43.25</ele><time>2026-04-19T08:51:37.381Z</time></trkpt><trkpt lat="44.0055748" lon="12.5318922"><ele>41.0</ele><time>2026-04-19T08:51:38.388Z</time></trkpt><trkpt lat="44.0055114" lon="12.532022"><ele>39.599999999999994</ele><time>2026-04-19T08:51:39.384Z</time></trkpt><trkpt lat="44.0054505" lon="12.532137"><ele>38.199999999999996</ele><time>2026-04-19T08:51:40.386Z</time></trkpt><trkpt lat="44.0053919" lon="12.5322469"><ele>36.8</ele><time>2026-04-19T08:51:41.38Z</time></trkpt><trkpt lat="44.0053376" lon="12.5323584"><ele>35.4</ele><time>2026-04-19T08:51:42.382Z</time></trkpt><trkpt lat="44.0052897" lon="12.5324584"><ele>34.0</ele><time>2026-04-19T08:51:43.385Z</time></trkpt><trkpt lat="44.0052425" lon="12.5325521"><ele>34.0</ele><time>2026-04-19T08:51:44.388Z</time></trkpt><trkpt lat="44.0052048" lon="12.5326298"><ele>34.0</ele><time>2026-04-19T08:51:45.379Z</time></trkpt><trkpt lat="44.0051807" lon="12.5327603"><ele>34.0</ele><time>2026-04-19T08:51:47.383Z</time></trkpt><trkpt lat="44.005247" lon="12.5328502"><ele>34.0</ele><time>2026-04-19T08:51:49.389Z</time></trkpt><trkpt lat="44.0053059" lon="12.5328901"><ele>34.0</ele><time>2026-04-19T08:51:50.384Z</time></trkpt><trkpt lat="44.0053678" lon="12.5329296"><ele>34.0</ele><time>2026-04-19T08:51:51.384Z</time></trkpt><trkpt lat="44.0054381" lon="12.5330013"><ele>34.0</ele><time>2026-04-19T08:51:52.381Z</time></trkpt><trkpt lat="44.0055072" lon="12.5330656"><ele>34.0</ele><time>2026-04-19T08:51:53.381Z</time></trkpt><trkpt lat="44.0055772" lon="12.5331264"><ele>34.0</ele><time>2026-04-19T08:51:54.385Z</time></trkpt><trkpt lat="44.0056477" lon="12.5331931"><ele>34.0</ele><time>2026-04-19T08:51:55.38Z</time></trkpt><trkpt lat="44.0057137" lon="12.5332564"><ele>34.0</ele><time>2026-04-19T08:51:56.38Z</time></trkpt><trkpt lat="44.0057769" lon="12.5333225"><ele>34.0</ele><time>2026-04-19T08:51:57.381Z</time></trkpt><trkpt lat="44.0058466" lon="12.5333829"><ele>34.0</ele><time>2026-04-19T08:51:58.385Z</time></trkpt><trkpt lat="44.0059065" lon="12.5334268"><ele>34.0</ele><time>2026-04-19T08:51:59.379Z</time></trkpt><trkpt lat="44.0060208" lon="12.5334254"><ele>34.0</ele><time>2026-04-19T08:52:01.387Z</time></trkpt><trkpt lat="44.0061258" lon="12.5333077"><ele>34.0</ele><time>2026-04-19T08:52:03.386Z</time></trkpt><trkpt lat="44.0061781" lon="12.5332266"><ele>34.0</ele><time>2026-04-19T08:52:04.381Z</time></trkpt><trkpt lat="44.0062325" lon="12.5331401"><ele>34.0</ele><time>2026-04-19T08:52:05.385Z</time></trkpt><trkpt lat="44.0062868" lon="12.5330573"><ele>34.0</ele><time>2026-04-19T08:52:06.384Z</time></trkpt><trkpt lat="44.0063435" lon="12.5329677"><ele>34.0</ele><time>2026-04-19T08:52:07.384Z</time></trkpt><trkpt lat="44.006402" lon="12.5328766"><ele>34.0</ele><time>2026-04-19T08:52:08.38Z</time></trkpt><trkpt lat="44.0064625" lon="12.5327825"><ele>34.0</ele><time>2026-04-19T08:52:09.379Z</time></trkpt><trkpt lat="44.0065224" lon="12.5326877"><ele>34.0</ele><time>2026-04-19T08:52:10.38Z</time></trkpt><trkpt lat="44.006581" lon="12.5325923"><ele>34.0</ele><time>2026-04-19T08:52:11.386Z</time></trkpt><trkpt lat="44.0066404" lon="12.5324977"><ele>34.0</ele><time>2026-04-19T08:52:12.385Z</time></trkpt><trkpt lat="44.0067016" lon="12.5324024"><ele>34.0</ele><time>2026-04-19T08:52:13.379Z</time></trkpt><trkpt lat="44.0067626" lon="12.5323102"><ele>34.0</ele><time>2026-04-19T08:52:14.388Z</time></trkpt><trkpt lat="44.0068252" lon="12.5322228"><ele>34.0</ele><time>2026-04-19T08:52:15.388Z</time></trkpt><trkpt lat="44.0068878" lon="12.5321352"><ele>34.5</ele><time>2026-04-19T08:52:16.378Z</time></trkpt><trkpt lat="44.0069515" lon="12.5320482"><ele>35.0</ele><time>2026-04-19T08:52:17.388Z</time></trkpt><trkpt lat="44.0070156" lon="12.5319612"><ele>35.5</ele><time>2026-04-19T08:52:18.378Z</time></trkpt><trkpt lat="44.0070839" lon="12.5318846"><ele>36.0</ele><time>2026-04-19T08:52:19.379Z</time></trkpt><trkpt lat="44.0071552" lon="12.531813"><ele>36.5</ele><time>2026-04-19T08:52:20.38Z</time></trkpt><trkpt lat="44.0072285" lon="12.5317448"><ele>37.0</ele><time>2026-04-19T08:52:21.381Z</time></trkpt><trkpt lat="44.0073004" lon="12.5316801"><ele>37.0</ele><time>2026-04-19T08:52:22.382Z</time></trkpt><trkpt lat="44.0073705" lon="12.5316178"><ele>37.0</ele><time>2026-04-19T08:52:23.38Z</time></trkpt><trkpt lat="44.0074416" lon="12.5315564"><ele>37.0</ele><time>2026-04-19T08:52:24.386Z</time></trkpt><trkpt lat="44.0075072" lon="12.5314993"><ele>37.0</ele><time>2026-04-19T08:52:25.381Z</time></trkpt><trkpt lat="44.0075671" lon="12.5314426"><ele>37.0</ele><time>2026-04-19T08:52:26.384Z</time></trkpt><trkpt lat="44.0076222" lon="12.531389"><ele>37.0</ele><time>2026-04-19T08:52:27.384Z</time></trkpt><trkpt lat="44.0077238" lon="12.5313013"><ele>39.400000000000006</ele><time>2026-04-19T08:52:29.388Z</time></trkpt><trkpt lat="44.0078215" lon="12.5312109"><ele>41.800000000000004</ele><time>2026-04-19T08:52:31.386Z</time></trkpt><trkpt lat="44.0079164" lon="12.5311367"><ele>44.2</ele><time>2026-04-19T08:52:33.384Z</time></trkpt><trkpt lat="44.0080068" lon="12.5310551"><ele>46.6</ele><time>2026-04-19T08:52:35.387Z</time></trkpt><trkpt lat="44.0080868" lon="12.5309746"><ele>49.0</ele><time>2026-04-19T08:52:37.383Z</time></trkpt><trkpt lat="44.0081889" lon="12.5308787"><ele>49.0</ele><time>2026-04-19T08:52:39.381Z</time></trkpt><trkpt lat="44.0082657" lon="12.5308071"><ele>49.0</ele><time>2026-04-19T08:52:41.38Z</time></trkpt><trkpt lat="44.0083387" lon="12.5307651"><ele>49.0</ele><time>2026-04-19T08:52:43.381Z</time></trkpt><trkpt lat="44.0083961" lon="12.5307162"><ele>49.0</ele><time>2026-04-19T08:52:45.379Z</time></trkpt><trkpt lat="44.0084544" lon="12.5306785"><ele>49.0</ele><time>2026-04-19T08:52:50.388Z</time></trkpt><trkpt lat="44.0083917" lon="12.5307003"><ele>49.0</ele><time>2026-04-19T08:52:57.381Z</time></trkpt><trkpt lat="44.0083299" lon="12.5307504"><ele>49.0</ele><time>2026-04-19T08:52:59.381Z</time></trkpt><trkpt lat="44.0082672" lon="12.5307964"><ele>49.0</ele><time>2026-04-19T08:53:01.384Z</time></trkpt><trkpt lat="44.0082005" lon="12.5308495"><ele>49.0</ele><time>2026-04-19T08:53:03.386Z</time></trkpt><trkpt lat="44.0081378" lon="12.530901"><ele>49.0</ele><time>2026-04-19T08:53:05.378Z</time></trkpt><trkpt lat="44.0080804" lon="12.5309496"><ele>49.0</ele><time>2026-04-19T08:53:07.38Z</time></trkpt><trkpt lat="44.0080257" lon="12.5309967"><ele>49.0</ele><time>2026-04-19T08:53:09.382Z</time></trkpt><trkpt lat="44.0079781" lon="12.531062"><ele>49.0</ele><time>2026-04-19T08:53:12.384Z</time></trkpt><trkpt lat="44.0080046" lon="12.531142"><ele>49.0</ele><time>2026-04-19T08:53:14.384Z</time></trkpt><trkpt lat="44.0080555" lon="12.5312007"><ele>48.99999999999999</ele><time>2026-04-19T08:53:16.386Z</time></trkpt><trkpt lat="44.0080054" lon="12.531136"><ele>49.0</ele><time>2026-04-19T08:53:37.384Z</time></trkpt><trkpt lat="44.0079119" lon="12.5311402"><ele>49.0</ele><time>2026-04-19T08:53:40.381Z</time></trkpt><trkpt lat="44.0078006" lon="12.5312182"><ele>49.0</ele><time>2026-04-19T08:53:42.387Z</time></trkpt><trkpt lat="44.0077395" lon="12.5312759"><ele>48.99999999999999</ele><time>2026-04-19T08:53:43.381Z</time></trkpt><trkpt lat="44.0076724" lon="12.5313327"><ele>49.0</ele><time>2026-04-19T08:53:44.39Z</time></trkpt><trkpt lat="44.0076052" lon="12.5313884"><ele>48.49999999999999</ele><time>2026-04-19T08:53:45.378Z</time></trkpt><trkpt lat="44.0075351" lon="12.531454"><ele>48.0</ele><time>2026-04-19T08:53:46.389Z</time></trkpt><trkpt lat="44.0074667" lon="12.531521"><ele>47.5</ele><time>2026-04-19T08:53:47.381Z</time></trkpt><trkpt lat="44.0073936" lon="12.5315808"><ele>47.0</ele><time>2026-04-19T08:53:48.383Z</time></trkpt><trkpt lat="44.0073166" lon="12.5316452"><ele>46.5</ele><time>2026-04-19T08:53:49.385Z</time></trkpt><trkpt lat="44.0072408" lon="12.531711"><ele>46.0</ele><time>2026-04-19T08:53:50.381Z</time></trkpt><trkpt lat="44.0071674" lon="12.5317755"><ele>44.199999999999996</ele><time>2026-04-19T08:53:51.381Z</time></trkpt><trkpt lat="44.0070971" lon="12.5318404"><ele>42.4</ele><time>2026-04-19T08:53:52.385Z</time></trkpt><trkpt lat="44.0070276" lon="12.5319126"><ele>40.6</ele><time>2026-04-19T08:53:53.386Z</time></trkpt><trkpt lat="44.0069637" lon="12.5319911"><ele>38.8</ele><time>2026-04-19T08:53:54.378Z</time></trkpt><trkpt lat="44.0068952" lon="12.5320808"><ele>37.0</ele><time>2026-04-19T08:53:55.381Z</time></trkpt><trkpt lat="44.006828" lon="12.5321851"><ele>36.800000000000004</ele><time>2026-04-19T08:53:56.382Z</time></trkpt><trkpt lat="44.0067596" lon="12.5322856"><ele>36.6</ele><time>2026-04-19T08:53:57.382Z</time></trkpt><trkpt lat="44.0066986" lon="12.5323859"><ele>36.400000000000006</ele><time>2026-04-19T08:53:58.383Z</time></trkpt><trkpt lat="44.0066368" lon="12.5324899"><ele>36.2</ele><time>2026-04-19T08:53:59.382Z</time></trkpt><trkpt lat="44.0065779" lon="12.5325919"><ele>36.0</ele><time>2026-04-19T08:54:00.381Z</time></trkpt><trkpt lat="44.0065216" lon="12.5326911"><ele>35.666666666666664</ele><time>2026-04-19T08:54:01.381Z</time></trkpt><trkpt lat="44.0064682" lon="12.5327905"><ele>35.333333333333336</ele><time>2026-04-19T08:54:02.38Z</time></trkpt><trkpt lat="44.006415" lon="12.5328848"><ele>35.0</ele><time>2026-04-19T08:54:03.379Z</time></trkpt><trkpt lat="44.0063622" lon="12.5329674"><ele>34.66666666666667</ele><time>2026-04-19T08:54:04.383Z</time></trkpt><trkpt lat="44.006314" lon="12.53304"><ele>34.333333333333336</ele><time>2026-04-19T08:54:05.381Z</time></trkpt><trkpt lat="44.0062443" lon="12.533149"><ele>34.0</ele><time>2026-04-19T08:54:07.385Z</time></trkpt><trkpt lat="44.0061633" lon="12.5333046"><ele>34.0</ele><time>2026-04-19T08:57:04.381Z</time></trkpt><trkpt lat="44.0061004" lon="12.5333845"><ele>34.0</ele><time>2026-04-19T08:57:06.377Z</time></trkpt><trkpt lat="44.0060348" lon="12.5334356"><ele>34.0</ele><time>2026-04-19T08:57:08.377Z</time></trkpt><trkpt lat="44.0059644" lon="12.5334536"><ele>34.0</ele><time>2026-04-19T08:57:10.378Z</time></trkpt><trkpt lat="44.0058647" lon="12.5333965"><ele>34.0</ele><time>2026-04-19T08:57:12.383Z</time></trkpt><trkpt lat="44.0057632" lon="12.5332985"><ele>33.71428571428571</ele><time>2026-04-19T08:57:14.381Z</time></trkpt><trkpt lat="44.0057059" lon="12.533235"><ele>33.42857142857143</ele><time>2026-04-19T08:57:15.377Z</time></trkpt><trkpt lat="44.0056447" lon="12.5331799"><ele>33.14285714285714</ele><time>2026-04-19T08:57:16.381Z</time></trkpt><trkpt lat="44.0055816" lon="12.5331269"><ele>32.857142857142854</ele><time>2026-04-19T08:57:17.378Z</time></trkpt><trkpt lat="44.0055228" lon="12.533071"><ele>32.57142857142857</ele><time>2026-04-19T08:57:18.382Z</time></trkpt><trkpt lat="44.0054646" lon="12.533016"><ele>32.285714285714285</ele><time>2026-04-19T08:57:19.378Z</time></trkpt><trkpt lat="44.0054052" lon="12.5329656"><ele>32.0</ele><time>2026-04-19T08:57:20.38Z</time></trkpt><trkpt lat="44.0053433" lon="12.5329239"><ele>32.0</ele><time>2026-04-19T08:57:21.384Z</time></trkpt><trkpt lat="44.0052447" lon="12.5328458"><ele>32.0</ele><time>2026-04-19T08:57:23.387Z</time></trkpt><trkpt lat="44.0051759" lon="12.5328025"><ele>32.0</ele><time>2026-04-19T08:57:25.382Z</time></trkpt><trkpt lat="44.0051061" lon="12.5328531"><ele>32.0</ele><time>2026-04-19T08:57:27.38Z</time></trkpt><trkpt lat="44.0050525" lon="12.5329813"><ele>32.0</ele><time>2026-04-19T08:57:29.379Z</time></trkpt><trkpt lat="44.0050003" lon="12.533136"><ele>31.666666666666664</ele><time>2026-04-19T08:57:31.38Z</time></trkpt><trkpt lat="44.0049671" lon="12.5332305"><ele>31.333333333333332</ele><time>2026-04-19T08:57:32.382Z</time></trkpt><trkpt lat="44.004932" lon="12.5333326"><ele>31.0</ele><time>2026-04-19T08:57:33.384Z</time></trkpt><trkpt lat="44.0048969" lon="12.5334475"><ele>30.666666666666664</ele><time>2026-04-19T08:57:34.38Z</time></trkpt><trkpt lat="44.0048579" lon="12.5335559"><ele>30.333333333333332</ele><time>2026-04-19T08:57:35.381Z</time></trkpt><trkpt lat="44.0048203" lon="12.5336693"><ele>30.0</ele><time>2026-04-19T08:57:36.381Z</time></trkpt><trkpt lat="44.0047783" lon="12.5337898"><ele>29.8</ele><time>2026-04-19T08:57:37.383Z</time></trkpt><trkpt lat="44.0047345" lon="12.5339158"><ele>29.6</ele><time>2026-04-19T08:57:38.382Z</time></trkpt><trkpt lat="44.0046886" lon="12.5340469"><ele>29.4</ele><time>2026-04-19T08:57:39.378Z</time></trkpt><trkpt lat="44.0046377" lon="12.5341712"><ele>29.2</ele><time>2026-04-19T08:57:40.382Z</time></trkpt><trkpt lat="44.0045733" lon="12.5342844"><ele>29.0</ele><time>2026-04-19T08:57:41.387Z</time></trkpt><trkpt lat="44.0044962" lon="12.5343849"><ele>29.0</ele><time>2026-04-19T08:57:42.38Z</time></trkpt><trkpt lat="44.00441" lon="12.5344712"><ele>29.0</ele><time>2026-04-19T08:57:43.382Z</time></trkpt><trkpt lat="44.0043196" lon="12.5345423"><ele>29.0</ele><time>2026-04-19T08:57:44.381Z</time></trkpt><trkpt lat="44.004228" lon="12.5346146"><ele>29.0</ele><time>2026-04-19T08:57:45.379Z</time></trkpt><trkpt lat="44.0041387" lon="12.5346873"><ele>29.0</ele><time>2026-04-19T08:57:46.382Z</time></trkpt><trkpt lat="44.0040535" lon="12.5347579"><ele>30.2</ele><time>2026-04-19T08:57:47.38Z</time></trkpt><trkpt lat="44.0039711" lon="12.5348338"><ele>31.4</ele><time>2026-04-19T08:57:48.384Z</time></trkpt><trkpt lat="44.0038907" lon="12.5349118"><ele>32.6</ele><time>2026-04-19T08:57:49.379Z</time></trkpt><trkpt lat="44.0038108" lon="12.534988"><ele>33.8</ele><time>2026-04-19T08:57:50.39Z</time></trkpt><trkpt lat="44.0037318" lon="12.5350681"><ele>35.0</ele><time>2026-04-19T08:57:51.384Z</time></trkpt><trkpt lat="44.003655" lon="12.5351482"><ele>35.0</ele><time>2026-04-19T08:57:52.383Z</time></trkpt><trkpt lat="44.0035776" lon="12.5352288"><ele>35.0</ele><time>2026-04-19T08:57:53.379Z</time></trkpt><trkpt lat="44.0035035" lon="12.5353068"><ele>35.0</ele><time>2026-04-19T08:57:54.38Z</time></trkpt><trkpt lat="44.0034335" lon="12.5353833"><ele>35.0</ele><time>2026-04-19T08:57:55.383Z</time></trkpt><trkpt lat="44.0033705" lon="12.5354555"><ele>35.0</ele><time>2026-04-19T08:57:56.385Z</time></trkpt><trkpt lat="44.0033162" lon="12.5355107"><ele>35.0</ele><time>2026-04-19T08:57:57.385Z</time></trkpt><trkpt lat="44.0032407" lon="12.5355697"><ele>35.5</ele><time>2026-04-19T08:57:59.388Z</time></trkpt><trkpt lat="44.0031679" lon="12.5355531"><ele>36.0</ele><time>2026-04-19T08:58:01.381Z</time></trkpt><trkpt lat="44.0030882" lon="12.5354488"><ele>36.5</ele><time>2026-04-19T08:58:03.388Z</time></trkpt><trkpt lat="44.0030417" lon="12.535381"><ele>37.0</ele><time>2026-04-19T08:58:04.383Z</time></trkpt><trkpt lat="44.002991" lon="12.5352992"><ele>37.5</ele><time>2026-04-19T08:58:05.384Z</time></trkpt><trkpt lat="44.0029333" lon="12.5352142"><ele>38.0</ele><time>2026-04-19T08:58:06.382Z</time></trkpt><trkpt lat="44.0028676" lon="12.5351296"><ele>38.4</ele><time>2026-04-19T08:58:07.385Z</time></trkpt><trkpt lat="44.0027951" lon="12.5350429"><ele>38.8</ele><time>2026-04-19T08:58:08.384Z</time></trkpt><trkpt lat="44.0027178" lon="12.5349483"><ele>39.2</ele><time>2026-04-19T08:58:09.385Z</time></trkpt><trkpt lat="44.0026386" lon="12.5348479"><ele>39.6</ele><time>2026-04-19T08:58:10.383Z</time></trkpt><trkpt lat="44.0025597" lon="12.5347508"><ele>40.0</ele><time>2026-04-19T08:58:11.38Z</time></trkpt><trkpt lat="44.0024777" lon="12.5346438"><ele>42.25</ele><time>2026-04-19T08:58:12.385Z</time></trkpt><trkpt lat="44.002395" lon="12.5345334"><ele>44.5</ele><time>2026-04-19T08:58:13.387Z</time></trkpt><trkpt lat="44.0023065" lon="12.5344229"><ele>46.75</ele><time>2026-04-19T08:58:14.38Z</time></trkpt><trkpt lat="44.0022172" lon="12.5343113"><ele>49.0</ele><time>2026-04-19T08:58:15.386Z</time></trkpt><trkpt lat="44.0021263" lon="12.5341977"><ele>49.0</ele><time>2026-04-19T08:58:16.381Z</time></trkpt><trkpt lat="44.0020384" lon="12.534081"><ele>49.0</ele><time>2026-04-19T08:58:17.38Z</time></trkpt><trkpt lat="44.0019483" lon="12.5339674"><ele>49.0</ele><time>2026-04-19T08:58:18.381Z</time></trkpt><trkpt lat="44.0018587" lon="12.533853"><ele>49.0</ele><time>2026-04-19T08:58:19.383Z</time></trkpt><trkpt lat="44.0017686" lon="12.5337433"><ele>49.0</ele><time>2026-04-19T08:58:20.385Z</time></trkpt><trkpt lat="44.0016786" lon="12.5336326"><ele>49.0</ele><time>2026-04-19T08:58:21.384Z</time></trkpt><trkpt lat="44.0015896" lon="12.5335243"><ele>49.0</ele><time>2026-04-19T08:58:22.382Z</time></trkpt><trkpt lat="44.001503" lon="12.5334091"><ele>49.0</ele><time>2026-04-19T08:58:23.384Z</time></trkpt><trkpt lat="44.0014171" lon="12.5333001"><ele>49.25</ele><time>2026-04-19T08:58:24.385Z</time></trkpt><trkpt lat="44.0013302" lon="12.5331867"><ele>49.5</ele><time>2026-04-19T08:58:25.381Z</time></trkpt><trkpt lat="44.0012474" lon="12.5330756"><ele>49.75</ele><time>2026-04-19T08:58:26.385Z</time></trkpt><trkpt lat="44.0011617" lon="12.5329696"><ele>50.0</ele><time>2026-04-19T08:58:27.382Z</time></trkpt><trkpt lat="44.0010813" lon="12.5328613"><ele>50.2</ele><time>2026-04-19T08:58:28.386Z</time></trkpt><trkpt lat="44.0010043" lon="12.5327605"><ele>50.4</ele><time>2026-04-19T08:58:29.381Z</time></trkpt><trkpt lat="44.000928" lon="12.5326673"><ele>50.599999999999994</ele><time>2026-04-19T08:58:30.387Z</time></trkpt><trkpt lat="44.0008646" lon="12.5325848"><ele>50.8</ele><time>2026-04-19T08:58:31.376Z</time></trkpt><trkpt lat="44.0008084" lon="12.5325208"><ele>51.0</ele><time>2026-04-19T08:58:32.383Z</time></trkpt><trkpt lat="44.0006962" lon="12.5325056"><ele>51.599999999999994</ele><time>2026-04-19T08:58:34.383Z</time></trkpt><trkpt lat="44.0006354" lon="12.5325582"><ele>52.2</ele><time>2026-04-19T08:58:35.383Z</time></trkpt><trkpt lat="44.0005709" lon="12.5326467"><ele>52.800000000000004</ele><time>2026-04-19T08:58:36.382Z</time></trkpt><trkpt lat="44.0004988" lon="12.5327442"><ele>53.400000000000006</ele><time>2026-04-19T08:58:37.384Z</time></trkpt><trkpt lat="44.0004214" lon="12.5328461"><ele>54.0</ele><time>2026-04-19T08:58:38.384Z</time></trkpt><trkpt lat="44.0003449" lon="12.5329528"><ele>52.5</ele><time>2026-04-19T08:58:39.381Z</time></trkpt><trkpt lat="44.000265" lon="12.5330684"><ele>51.0</ele><time>2026-04-19T08:58:40.382Z</time></trkpt><trkpt lat="44.0001798" lon="12.5331862"><ele>49.5</ele><time>2026-04-19T08:58:41.382Z</time></trkpt><trkpt lat="44.0000923" lon="12.533305"><ele>48.0</ele><time>2026-04-19T08:58:42.381Z</time></trkpt><trkpt lat="44.0000034" lon="12.5334276"><ele>48.0</ele><time>2026-04-19T08:58:43.387Z</time></trkpt><trkpt lat="43.999913" lon="12.5335512"><ele>48.0</ele><time>2026-04-19T08:58:44.383Z</time></trkpt><trkpt lat="43.999823" lon="12.5336756"><ele>48.0</ele><time>2026-04-19T08:58:45.393Z</time></trkpt><trkpt lat="43.9997306" lon="12.5337956"><ele>48.0</ele><time>2026-04-19T08:58:46.381Z</time></trkpt><trkpt lat="43.9996433" lon="12.533916"><ele>46.599999999999994</ele><time>2026-04-19T08:58:47.381Z</time></trkpt><trkpt lat="43.9995633" lon="12.5340294"><ele>45.199999999999996</ele><time>2026-04-19T08:58:48.385Z</time></trkpt><trkpt lat="43.999487" lon="12.5341421"><ele>43.8</ele><time>2026-04-19T08:58:49.387Z</time></trkpt><trkpt lat="43.9994136" lon="12.5342446"><ele>42.4</ele><time>2026-04-19T08:58:50.384Z</time></trkpt><trkpt lat="43.9993307" lon="12.534335"><ele>41.0</ele><time>2026-04-19T08:58:51.379Z</time></trkpt><trkpt lat="43.9992251" lon="12.5343447"><ele>40.8</ele><time>2026-04-19T08:58:52.386Z</time></trkpt><trkpt lat="43.9991183" lon="12.5343246"><ele>40.599999999999994</ele><time>2026-04-19T08:58:53.381Z</time></trkpt><trkpt lat="43.9990155" lon="12.5342744"><ele>40.4</ele><time>2026-04-19T08:58:54.381Z</time></trkpt><trkpt lat="43.9989095" lon="12.5342209"><ele>40.2</ele><time>2026-04-19T08:58:55.376Z</time></trkpt><trkpt lat="43.9988024" lon="12.5341562"><ele>40.0</ele><time>2026-04-19T08:58:56.383Z</time></trkpt><trkpt lat="43.9986971" lon="12.5340878"><ele>40.0</ele><time>2026-04-19T08:58:57.386Z</time></trkpt><trkpt lat="43.9986001" lon="12.5340197"><ele>40.0</ele><time>2026-04-19T08:58:58.38Z</time></trkpt><trkpt lat="43.9985257" lon="12.5339676"><ele>40.0</ele><time>2026-04-19T08:58:59.38Z</time></trkpt><trkpt lat="43.9984236" lon="12.5339125"><ele>40.0</ele><time>2026-04-19T08:59:01.38Z</time></trkpt><trkpt lat="43.9983269" lon="12.533981"><ele>40.0</ele><time>2026-04-19T08:59:03.382Z</time></trkpt><trkpt lat="43.998282" lon="12.5340512"><ele>40.16666666666667</ele><time>2026-04-19T08:59:04.379Z</time></trkpt><trkpt lat="43.9982361" lon="12.5341376"><ele>40.333333333333336</ele><time>2026-04-19T08:59:05.38Z</time></trkpt><trkpt lat="43.9981842" lon="12.5342297"><ele>40.5</ele><time>2026-04-19T08:59:06.381Z</time></trkpt><trkpt lat="43.9981294" lon="12.5343243"><ele>40.666666666666664</ele><time>2026-04-19T08:59:07.386Z</time></trkpt><trkpt lat="43.9980808" lon="12.5344268"><ele>40.83333333333333</ele><time>2026-04-19T08:59:08.383Z</time></trkpt><trkpt lat="43.9980309" lon="12.534534"><ele>41.0</ele><time>2026-04-19T08:59:09.381Z</time></trkpt><trkpt lat="43.9979823" lon="12.5346387"><ele>41.0</ele><time>2026-04-19T08:59:10.376Z</time></trkpt><trkpt lat="43.9979281" lon="12.5347445"><ele>41.0</ele><time>2026-04-19T08:59:11.381Z</time></trkpt><trkpt lat="43.9978726" lon="12.5348496"><ele>41.0</ele><time>2026-04-19T08:59:12.381Z</time></trkpt><trkpt lat="43.9978222" lon="12.5349589"><ele>41.0</ele><time>2026-04-19T08:59:13.381Z</time></trkpt><trkpt lat="43.9977713" lon="12.5350627"><ele>41.0</ele><time>2026-04-19T08:59:14.39Z</time></trkpt><trkpt lat="43.9977211" lon="12.535168"><ele>41.0</ele><time>2026-04-19T08:59:15.383Z</time></trkpt><trkpt lat="43.9976702" lon="12.535269"><ele>41.0</ele><time>2026-04-19T08:59:16.382Z</time></trkpt><trkpt lat="43.9976218" lon="12.5353576"><ele>41.0</ele><time>2026-04-19T08:59:17.379Z</time></trkpt><trkpt lat="43.9975746" lon="12.5354498"><ele>41.0</ele><time>2026-04-19T08:59:18.381Z</time></trkpt><trkpt lat="43.9975233" lon="12.535543"><ele>41.0</ele><time>2026-04-19T08:59:19.383Z</time></trkpt><trkpt lat="43.997472" lon="12.5356389"><ele>41.0</ele><time>2026-04-19T08:59:20.381Z</time></trkpt><trkpt lat="43.9974146" lon="12.5357209"><ele>40.5</ele><time>2026-04-19T08:59:21.378Z</time></trkpt><trkpt lat="43.9973564" lon="12.5358069"><ele>40.0</ele><time>2026-04-19T08:59:22.384Z</time></trkpt><trkpt lat="43.9973011" lon="12.5358961"><ele>39.5</ele><time>2026-04-19T08:59:23.382Z</time></trkpt><trkpt lat="43.9972403" lon="12.5359806"><ele>39.0</ele><time>2026-04-19T08:59:24.378Z</time></trkpt><trkpt lat="43.9971849" lon="12.5360516"><ele>38.5</ele><time>2026-04-19T08:59:25.389Z</time></trkpt><trkpt lat="43.9971344" lon="12.5361188"><ele>38.0</ele><time>2026-04-19T08:59:26.385Z</time></trkpt><trkpt lat="43.9970939" lon="12.5361922"><ele>38.0</ele><time>2026-04-19T08:59:27.379Z</time></trkpt><trkpt lat="43.9970577" lon="12.5363543"><ele>38.0</ele><time>2026-04-19T08:59:29.384Z</time></trkpt><trkpt lat="43.9970957" lon="12.5365271"><ele>38.0</ele><time>2026-04-19T08:59:31.378Z</time></trkpt><trkpt lat="43.9971408" lon="12.5366005"><ele>38.0</ele><time>2026-04-19T08:59:32.38Z</time></trkpt><trkpt lat="43.9971956" lon="12.5366704"><ele>38.0</ele><time>2026-04-19T08:59:33.384Z</time></trkpt><trkpt lat="43.9972574" lon="12.5367328"><ele>38.0</ele><time>2026-04-19T08:59:34.385Z</time></trkpt><trkpt lat="43.9973183" lon="12.536796"><ele>38.0</ele><time>2026-04-19T08:59:35.387Z</time></trkpt><trkpt lat="43.9973738" lon="12.5368521"><ele>38.0</ele><time>2026-04-19T08:59:36.379Z</time></trkpt><trkpt lat="43.9974616" lon="12.5369587"><ele>38.0</ele><time>2026-04-19T08:59:38.379Z</time></trkpt><trkpt lat="43.997536" lon="12.5370398"><ele>38.0</ele><time>2026-04-19T08:59:40.382Z</time></trkpt><trkpt lat="43.9975871" lon="12.5371126"><ele>38.0</ele><time>2026-04-19T08:59:42.378Z</time></trkpt><trkpt lat="43.9975164" lon="12.5371946"><ele>37.57142857142857</ele><time>2026-04-19T08:59:45.378Z</time></trkpt><trkpt lat="43.997442" lon="12.5372798"><ele>37.142857142857146</ele><time>2026-04-19T08:59:47.39Z</time></trkpt><trkpt lat="43.9973974" lon="12.5373438"><ele>36.714285714285715</ele><time>2026-04-19T08:59:48.385Z</time></trkpt><trkpt lat="43.9973523" lon="12.5374189"><ele>36.285714285714285</ele><time>2026-04-19T08:59:49.381Z</time></trkpt><trkpt lat="43.9972991" lon="12.5374895"><ele>35.85714285714286</ele><time>2026-04-19T08:59:50.381Z</time></trkpt><trkpt lat="43.9972541" lon="12.5375604"><ele>35.42857142857143</ele><time>2026-04-19T08:59:51.379Z</time></trkpt><trkpt lat="43.9972053" lon="12.5376211"><ele>35.0</ele><time>2026-04-19T08:59:52.38Z</time></trkpt><trkpt lat="43.9970957" lon="12.5376669"><ele>35.0</ele><time>2026-04-19T08:59:54.38Z</time></trkpt><trkpt lat="43.9970046" lon="12.5376165"><ele>35.0</ele><time>2026-04-19T08:59:56.38Z</time></trkpt><trkpt lat="43.9969316" lon="12.5375058"><ele>35.0</ele><time>2026-04-19T08:59:58.382Z</time></trkpt><trkpt lat="43.9968696" lon="12.5374108"><ele>35.0</ele><time>2026-04-19T09:00:00.389Z</time></trkpt><trkpt lat="43.9967849" lon="12.5373971"><ele>35.0</ele><time>2026-04-19T09:00:02.377Z</time></trkpt><trkpt lat="43.9967118" lon="12.5374636"><ele>34.666666666666664</ele><time>2026-04-19T09:00:04.382Z</time></trkpt><trkpt lat="43.9966386" lon="12.5375796"><ele>34.33333333333333</ele><time>2026-04-19T09:00:06.388Z</time></trkpt><trkpt lat="43.9965976" lon="12.5376563"><ele>34.0</ele><time>2026-04-19T09:00:07.385Z</time></trkpt><trkpt lat="43.9965515" lon="12.5377293"><ele>33.666666666666664</ele><time>2026-04-19T09:00:08.379Z</time></trkpt><trkpt lat="43.9965064" lon="12.5378084"><ele>33.333333333333336</ele><time>2026-04-19T09:00:09.382Z</time></trkpt><trkpt lat="43.9964608" lon="12.537894"><ele>33.0</ele><time>2026-04-19T09:00:10.38Z</time></trkpt><trkpt lat="43.996416" lon="12.5379775"><ele>33.8</ele><time>2026-04-19T09:00:11.38Z</time></trkpt><trkpt lat="43.9963684" lon="12.5380417"><ele>34.599999999999994</ele><time>2026-04-19T09:00:12.377Z</time></trkpt><trkpt lat="43.9963258" lon="12.5381062"><ele>35.400000000000006</ele><time>2026-04-19T09:00:13.383Z</time></trkpt><trkpt lat="43.9962396" lon="12.538222"><ele>36.2</ele><time>2026-04-19T09:00:15.378Z</time></trkpt><trkpt lat="43.9961591" lon="12.538343"><ele>37.0</ele><time>2026-04-19T09:00:17.383Z</time></trkpt><trkpt lat="43.9960899" lon="12.5384696"><ele>37.0</ele><time>2026-04-19T09:00:19.379Z</time></trkpt><trkpt lat="43.9960117" lon="12.5385857"><ele>37.0</ele><time>2026-04-19T09:00:21.377Z</time></trkpt><trkpt lat="43.9959351" lon="12.5386723"><ele>37.0</ele><time>2026-04-19T09:00:23.385Z</time></trkpt><trkpt lat="43.9958661" lon="12.5387503"><ele>37.0</ele><time>2026-04-19T09:00:25.382Z</time></trkpt><trkpt lat="43.9958032" lon="12.5388336"><ele>37.0</ele><time>2026-04-19T09:00:27.376Z</time></trkpt><trkpt lat="43.99572" lon="12.5388919"><ele>37.6</ele><time>2026-04-19T09:00:30.384Z</time></trkpt><trkpt lat="43.9956394" lon="12.5389339"><ele>38.2</ele><time>2026-04-19T09:00:32.382Z</time></trkpt><trkpt lat="43.99553" lon="12.5388786"><ele>38.8</ele><time>2026-04-19T09:00:34.378Z</time></trkpt><trkpt lat="43.9954639" lon="12.5388225"><ele>39.4</ele><time>2026-04-19T09:00:35.381Z</time></trkpt><trkpt lat="43.9953913" lon="12.5387658"><ele>40.0</ele><time>2026-04-19T09:00:36.385Z</time></trkpt><trkpt lat="43.9953124" lon="12.5387016"><ele>40.2</ele><time>2026-04-19T09:00:37.387Z</time></trkpt><trkpt lat="43.9952304" lon="12.5386282"><ele>40.4</ele><time>2026-04-19T09:00:38.382Z</time></trkpt><trkpt lat="43.9951431" lon="12.5385504"><ele>40.599999999999994</ele><time>2026-04-19T09:00:39.382Z</time></trkpt><trkpt lat="43.995056" lon="12.5384674"><ele>40.8</ele><time>2026-04-19T09:00:40.381Z</time></trkpt><trkpt lat="43.9949626" lon="12.5383853"><ele>41.0</ele><time>2026-04-19T09:00:41.378Z</time></trkpt><trkpt lat="43.9948688" lon="12.5383078"><ele>41.5</ele><time>2026-04-19T09:00:42.385Z</time></trkpt><trkpt lat="43.9947681" lon="12.5382254"><ele>42.0</ele><time>2026-04-19T09:00:43.385Z</time></trkpt><trkpt lat="43.9946668" lon="12.5381401"><ele>42.5</ele><time>2026-04-19T09:00:44.382Z</time></trkpt><trkpt lat="43.9945605" lon="12.5380537"><ele>43.0</ele><time>2026-04-19T09:00:45.381Z</time></trkpt><trkpt lat="43.994452" lon="12.5379619"><ele>43.0</ele><time>2026-04-19T09:00:46.381Z</time></trkpt><trkpt lat="43.9943427" lon="12.5378699"><ele>43.0</ele><time>2026-04-19T09:00:47.378Z</time></trkpt><trkpt lat="43.9942297" lon="12.5377753"><ele>43.0</ele><time>2026-04-19T09:00:48.378Z</time></trkpt><trkpt lat="43.9941169" lon="12.5376783"><ele>43.0</ele><time>2026-04-19T09:00:49.383Z</time></trkpt><trkpt lat="43.9940057" lon="12.5375853"><ele>43.75</ele><time>2026-04-19T09:00:50.378Z</time></trkpt><trkpt lat="43.9938943" lon="12.5374897"><ele>44.5</ele><time>2026-04-19T09:00:51.377Z</time></trkpt><trkpt lat="43.9937827" lon="12.5373954"><ele>45.25</ele><time>2026-04-19T09:00:52.376Z</time></trkpt><trkpt lat="43.9936761" lon="12.5373063"><ele>46.0</ele><time>2026-04-19T09:00:53.386Z</time></trkpt><trkpt lat="43.9935764" lon="12.5372224"><ele>46.0</ele><time>2026-04-19T09:00:54.38Z</time></trkpt><trkpt lat="43.9934751" lon="12.5371363"><ele>46.0</ele><time>2026-04-19T09:00:55.377Z</time></trkpt><trkpt lat="43.9933777" lon="12.5370544"><ele>46.0</ele><time>2026-04-19T09:00:56.385Z</time></trkpt><trkpt lat="43.9932853" lon="12.5369767"><ele>46.0</ele><time>2026-04-19T09:00:57.378Z</time></trkpt><trkpt lat="43.9931925" lon="12.5368995"><ele>46.0</ele><time>2026-04-19T09:00:58.382Z</time></trkpt><trkpt lat="43.9931032" lon="12.5368325"><ele>45.8</ele><time>2026-04-19T09:00:59.382Z</time></trkpt><trkpt lat="43.9930187" lon="12.5367626"><ele>45.599999999999994</ele><time>2026-04-19T09:01:00.378Z</time></trkpt><trkpt lat="43.9929363" lon="12.5366953"><ele>45.4</ele><time>2026-04-19T09:01:01.376Z</time></trkpt><trkpt lat="43.9928478" lon="12.5366243"><ele>45.2</ele><time>2026-04-19T09:01:02.383Z</time></trkpt><trkpt lat="43.9927552" lon="12.5365485"><ele>45.0</ele><time>2026-04-19T09:01:03.379Z</time></trkpt><trkpt lat="43.9926678" lon="12.5364712"><ele>45.0</ele><time>2026-04-19T09:01:04.378Z</time></trkpt><trkpt lat="43.9925764" lon="12.536393"><ele>45.0</ele><time>2026-04-19T09:01:05.383Z</time></trkpt><trkpt lat="43.9924808" lon="12.5363153"><ele>45.0</ele><time>2026-04-19T09:01:06.381Z</time></trkpt><trkpt lat="43.9923856" lon="12.536234"><ele>45.0</ele><time>2026-04-19T09:01:07.378Z</time></trkpt><trkpt lat="43.9922864" lon="12.5361544"><ele>45.0</ele><time>2026-04-19T09:01:08.385Z</time></trkpt><trkpt lat="43.9921836" lon="12.5360707"><ele>44.75</ele><time>2026-04-19T09:01:09.384Z</time></trkpt><trkpt lat="43.992081" lon="12.5359826"><ele>44.5</ele><time>2026-04-19T09:01:10.38Z</time></trkpt><trkpt lat="43.9919712" lon="12.5358881"><ele>44.25</ele><time>2026-04-19T09:01:11.384Z</time></trkpt><trkpt lat="43.9918624" lon="12.5357917"><ele>44.0</ele><time>2026-04-19T09:01:12.383Z</time></trkpt><trkpt lat="43.9917489" lon="12.5356963"><ele>44.0</ele><time>2026-04-19T09:01:13.383Z</time></trkpt><trkpt lat="43.9916325" lon="12.535603"><ele>44.0</ele><time>2026-04-19T09:01:14.383Z</time></trkpt><trkpt lat="43.9915176" lon="12.5355079"><ele>44.0</ele><time>2026-04-19T09:01:15.385Z</time></trkpt><trkpt lat="43.9914023" lon="12.5354052"><ele>44.0</ele><time>2026-04-19T09:01:16.378Z</time></trkpt><trkpt lat="43.9912884" lon="12.5352967"><ele>43.5</ele><time>2026-04-19T09:01:17.38Z</time></trkpt><trkpt lat="43.9911759" lon="12.5351808"><ele>43.0</ele><time>2026-04-19T09:01:18.381Z</time></trkpt><trkpt lat="43.9910667" lon="12.5350524"><ele>42.5</ele><time>2026-04-19T09:01:19.378Z</time></trkpt><trkpt lat="43.9909626" lon="12.5349144"><ele>42.0</ele><time>2026-04-19T09:01:20.381Z</time></trkpt><trkpt lat="43.990867" lon="12.5347677"><ele>43.25</ele><time>2026-04-19T09:01:21.381Z</time></trkpt><trkpt lat="43.990776" lon="12.5346104"><ele>44.5</ele><time>2026-04-19T09:01:22.383Z</time></trkpt><trkpt lat="43.9906889" lon="12.5344435"><ele>45.75</ele><time>2026-04-19T09:01:23.379Z</time></trkpt><trkpt lat="43.9906145" lon="12.5342702"><ele>47.0</ele><time>2026-04-19T09:01:24.383Z</time></trkpt><trkpt lat="43.9905517" lon="12.5340966"><ele>47.0</ele><time>2026-04-19T09:01:25.38Z</time></trkpt><trkpt lat="43.9904927" lon="12.5339251"><ele>47.0</ele><time>2026-04-19T09:01:26.385Z</time></trkpt><trkpt lat="43.9904369" lon="12.533754"><ele>47.0</ele><time>2026-04-19T09:01:27.38Z</time></trkpt><trkpt lat="43.9903872" lon="12.533589"><ele>47.0</ele><time>2026-04-19T09:01:28.379Z</time></trkpt><trkpt lat="43.9903434" lon="12.5334382"><ele>46.83333333333333</ele><time>2026-04-19T09:01:29.384Z</time></trkpt><trkpt lat="43.9903051" lon="12.5333002"><ele>46.666666666666664</ele><time>2026-04-19T09:01:30.382Z</time></trkpt><trkpt lat="43.9902688" lon="12.5331763"><ele>46.5</ele><time>2026-04-19T09:01:31.382Z</time></trkpt><trkpt lat="43.9902367" lon="12.5330631"><ele>46.333333333333336</ele><time>2026-04-19T09:01:32.381Z</time></trkpt><trkpt lat="43.9902106" lon="12.5329606"><ele>46.16666666666667</ele><time>2026-04-19T09:01:33.383Z</time></trkpt><trkpt lat="43.9901868" lon="12.5328751"><ele>46.0</ele><time>2026-04-19T09:01:34.384Z</time></trkpt><trkpt lat="43.9901512" lon="12.5327349"><ele>45.599999999999994</ele><time>2026-04-19T09:01:36.385Z</time></trkpt><trkpt lat="43.9901268" lon="12.5326324"><ele>45.2</ele><time>2026-04-19T09:01:38.385Z</time></trkpt><trkpt lat="43.9900746" lon="12.5324974"><ele>44.8</ele><time>2026-04-19T09:01:41.382Z</time></trkpt><trkpt lat="43.9900069" lon="12.532455"><ele>44.400000000000006</ele><time>2026-04-19T09:01:43.386Z</time></trkpt><trkpt lat="43.9899989" lon="12.5326052"><ele>44.0</ele><time>2026-04-19T09:01:45.384Z</time></trkpt><trkpt lat="43.9900396" lon="12.5327177"><ele>44.0</ele><time>2026-04-19T09:01:46.381Z</time></trkpt><trkpt lat="43.9900763" lon="12.5328487"><ele>44.0</ele><time>2026-04-19T09:01:47.383Z</time></trkpt><trkpt lat="43.9901141" lon="12.5329911"><ele>44.0</ele><time>2026-04-19T09:01:48.383Z</time></trkpt><trkpt lat="43.9901549" lon="12.5331424"><ele>44.0</ele><time>2026-04-19T09:01:49.382Z</time></trkpt><trkpt lat="43.9902018" lon="12.5333057"><ele>44.5</ele><time>2026-04-19T09:01:50.376Z</time></trkpt><trkpt lat="43.9902509" lon="12.5334768"><ele>45.0</ele><time>2026-04-19T09:01:51.384Z</time></trkpt><trkpt lat="43.9902948" lon="12.5336456"><ele>45.5</ele><time>2026-04-19T09:01:52.383Z</time></trkpt><trkpt lat="43.9903424" lon="12.5338244"><ele>46.0</ele><time>2026-04-19T09:01:53.38Z</time></trkpt><trkpt lat="43.9903899" lon="12.534003"><ele>46.25</ele><time>2026-04-19T09:01:54.379Z</time></trkpt><trkpt lat="43.990448" lon="12.5341796"><ele>46.5</ele><time>2026-04-19T09:01:55.383Z</time></trkpt><trkpt lat="43.9905142" lon="12.5343534"><ele>46.75</ele><time>2026-04-19T09:01:56.382Z</time></trkpt><trkpt lat="43.9905898" lon="12.5345236"><ele>47.0</ele><time>2026-04-19T09:01:57.381Z</time></trkpt><trkpt lat="43.9906714" lon="12.5346921"><ele>47.0</ele><time>2026-04-19T09:01:58.379Z</time></trkpt><trkpt lat="43.9907619" lon="12.5348593"><ele>47.0</ele><time>2026-04-19T09:01:59.379Z</time></trkpt><trkpt lat="43.9908614" lon="12.5350153"><ele>47.0</ele><time>2026-04-19T09:02:00.38Z</time></trkpt><trkpt lat="43.9909684" lon="12.5351608"><ele>46.0</ele><time>2026-04-19T09:02:01.381Z</time></trkpt><trkpt lat="43.9910835" lon="12.5353001"><ele>45.0</ele><time>2026-04-19T09:02:02.378Z</time></trkpt><trkpt lat="43.9912046" lon="12.535428"><ele>44.0</ele><time>2026-04-19T09:02:03.389Z</time></trkpt><trkpt lat="43.9913296" lon="12.5355496"><ele>44.0</ele><time>2026-04-19T09:02:04.38Z</time></trkpt><trkpt lat="43.9914617" lon="12.5356614"><ele>44.0</ele><time>2026-04-19T09:02:05.382Z</time></trkpt><trkpt lat="43.9915931" lon="12.5357774"><ele>44.0</ele><time>2026-04-19T09:02:06.381Z</time></trkpt><trkpt lat="43.9917277" lon="12.5358922"><ele>44.0</ele><time>2026-04-19T09:02:07.382Z</time></trkpt><trkpt lat="43.9918634" lon="12.5360019"><ele>44.0</ele><time>2026-04-19T09:02:08.383Z</time></trkpt><trkpt lat="43.9919994" lon="12.5361202"><ele>44.0</ele><time>2026-04-19T09:02:09.385Z</time></trkpt><trkpt lat="43.9921352" lon="12.5362346"><ele>44.0</ele><time>2026-04-19T09:02:10.376Z</time></trkpt><trkpt lat="43.9922731" lon="12.5363476"><ele>44.0</ele><time>2026-04-19T09:02:11.375Z</time></trkpt><trkpt lat="43.9924094" lon="12.536468"><ele>44.0</ele><time>2026-04-19T09:02:12.382Z</time></trkpt><trkpt lat="43.9925491" lon="12.5365868"><ele>44.33333333333333</ele><time>2026-04-19T09:02:13.38Z</time></trkpt><trkpt lat="43.9926854" lon="12.5367065"><ele>44.666666666666664</ele><time>2026-04-19T09:02:14.381Z</time></trkpt><trkpt lat="43.9928219" lon="12.5368234"><ele>45.0</ele><time>2026-04-19T09:02:15.376Z</time></trkpt><trkpt lat="43.9929592" lon="12.5369405"><ele>45.0</ele><time>2026-04-19T09:02:16.382Z</time></trkpt><trkpt lat="43.9930967" lon="12.5370564"><ele>45.0</ele><time>2026-04-19T09:02:17.381Z</time></trkpt><trkpt lat="43.9932334" lon="12.5371719"><ele>45.0</ele><time>2026-04-19T09:02:18.383Z</time></trkpt><trkpt lat="43.9933699" lon="12.5372854"><ele>45.333333333333336</ele><time>2026-04-19T09:02:19.377Z</time></trkpt><trkpt lat="43.9935071" lon="12.5373957"><ele>45.66666666666667</ele><time>2026-04-19T09:02:20.382Z</time></trkpt><trkpt lat="43.9936416" lon="12.5375002"><ele>46.0</ele><time>2026-04-19T09:02:21.382Z</time></trkpt><trkpt lat="43.9937725" lon="12.5376087"><ele>46.0</ele><time>2026-04-19T09:02:22.379Z</time></trkpt><trkpt lat="43.9939015" lon="12.5377185"><ele>46.0</ele><time>2026-04-19T09:02:23.388Z</time></trkpt><trkpt lat="43.994033" lon="12.5378319"><ele>46.0</ele><time>2026-04-19T09:02:24.382Z</time></trkpt><trkpt lat="43.9941664" lon="12.5379401"><ele>45.0</ele><time>2026-04-19T09:02:25.378Z</time></trkpt><trkpt lat="43.9942954" lon="12.5380537"><ele>44.0</ele><time>2026-04-19T09:02:26.382Z</time></trkpt><trkpt lat="43.9944235" lon="12.5381624"><ele>43.0</ele><time>2026-04-19T09:02:27.382Z</time></trkpt><trkpt lat="43.9945498" lon="12.5382676"><ele>43.0</ele><time>2026-04-19T09:02:28.38Z</time></trkpt><trkpt lat="43.9946745" lon="12.5383736"><ele>43.0</ele><time>2026-04-19T09:02:29.38Z</time></trkpt><trkpt lat="43.9947945" lon="12.5384732"><ele>43.0</ele><time>2026-04-19T09:02:30.381Z</time></trkpt><trkpt lat="43.9949061" lon="12.5385721"><ele>43.0</ele><time>2026-04-19T09:02:31.379Z</time></trkpt><trkpt lat="43.9950174" lon="12.5386623"><ele>42.4</ele><time>2026-04-19T09:02:32.387Z</time></trkpt><trkpt lat="43.9951216" lon="12.538755"><ele>41.8</ele><time>2026-04-19T09:02:33.381Z</time></trkpt><trkpt lat="43.9952189" lon="12.5388429"><ele>41.2</ele><time>2026-04-19T09:02:34.377Z</time></trkpt><trkpt lat="43.9953117" lon="12.5389182"><ele>40.6</ele><time>2026-04-19T09:02:35.38Z</time></trkpt><trkpt lat="43.9953992" lon="12.5389903"><ele>40.0</ele><time>2026-04-19T09:02:36.385Z</time></trkpt><trkpt lat="43.9954788" lon="12.5390574"><ele>40.0</ele><time>2026-04-19T09:02:37.377Z</time></trkpt><trkpt lat="43.9955397" lon="12.5391245"><ele>40.0</ele><time>2026-04-19T09:02:38.375Z</time></trkpt><trkpt lat="43.995583" lon="12.5391958"><ele>40.0</ele><time>2026-04-19T09:02:39.38Z</time></trkpt><trkpt lat="43.995565" lon="12.5393738"><ele>40.0</ele><time>2026-04-19T09:02:41.378Z</time></trkpt><trkpt lat="43.9955534" lon="12.5394711"><ele>40.0</ele><time>2026-04-19T09:02:42.382Z</time></trkpt><trkpt lat="43.9955363" lon="12.5395775"><ele>40.0</ele><time>2026-04-19T09:02:43.378Z</time></trkpt><trkpt lat="43.9955212" lon="12.5396856"><ele>40.0</ele><time>2026-04-19T09:02:44.378Z</time></trkpt><trkpt lat="43.9955077" lon="12.5398"><ele>40.0</ele><time>2026-04-19T09:02:45.379Z</time></trkpt><trkpt lat="43.9954936" lon="12.5399191"><ele>40.0</ele><time>2026-04-19T09:02:46.376Z</time></trkpt><trkpt lat="43.9954723" lon="12.5400428"><ele>40.0</ele><time>2026-04-19T09:02:47.38Z</time></trkpt><trkpt lat="43.9954532" lon="12.5401756"><ele>40.0</ele><time>2026-04-19T09:02:48.383Z</time></trkpt><trkpt lat="43.9954296" lon="12.5403078"><ele>40.0</ele><time>2026-04-19T09:02:49.378Z</time></trkpt><trkpt lat="43.9954042" lon="12.5404459"><ele>40.0</ele><time>2026-04-19T09:02:50.384Z</time></trkpt><trkpt lat="43.9953728" lon="12.5405834"><ele>40.0</ele><time>2026-04-19T09:02:51.386Z</time></trkpt><trkpt lat="43.9953351" lon="12.5407192"><ele>40.0</ele><time>2026-04-19T09:02:52.381Z</time></trkpt><trkpt lat="43.9952975" lon="12.5408574"><ele>40.0</ele><time>2026-04-19T09:02:53.38Z</time></trkpt><trkpt lat="43.9952543" lon="12.540996"><ele>40.0</ele><time>2026-04-19T09:02:54.383Z</time></trkpt><trkpt lat="43.995206" lon="12.5411386"><ele>40.0</ele><time>2026-04-19T09:02:55.387Z</time></trkpt><trkpt lat="43.9951541" lon="12.5412798"><ele>40.0</ele><time>2026-04-19T09:02:56.379Z</time></trkpt><trkpt lat="43.9950968" lon="12.541422"><ele>40.0</ele><time>2026-04-19T09:02:57.381Z</time></trkpt><trkpt lat="43.9950402" lon="12.5415656"><ele>42.0</ele><time>2026-04-19T09:02:58.384Z</time></trkpt><trkpt lat="43.9949824" lon="12.5417092"><ele>44.0</ele><time>2026-04-19T09:02:59.384Z</time></trkpt><trkpt lat="43.9949218" lon="12.5418489"><ele>46.0</ele><time>2026-04-19T09:03:00.379Z</time></trkpt><trkpt lat="43.9948661" lon="12.5419922"><ele>48.0</ele><time>2026-04-19T09:03:01.383Z</time></trkpt><trkpt lat="43.9948161" lon="12.5421393"><ele>49.25</ele><time>2026-04-19T09:03:02.382Z</time></trkpt><trkpt lat="43.9947724" lon="12.5422869"><ele>50.5</ele><time>2026-04-19T09:03:03.38Z</time></trkpt><trkpt lat="43.9947311" lon="12.5424368"><ele>51.75</ele><time>2026-04-19T09:03:04.383Z</time></trkpt><trkpt lat="43.9946944" lon="12.5425875"><ele>53.0</ele><time>2026-04-19T09:03:05.385Z</time></trkpt><trkpt lat="43.9946638" lon="12.5427402"><ele>54.5</ele><time>2026-04-19T09:03:06.385Z</time></trkpt><trkpt lat="43.9946349" lon="12.542894"><ele>56.0</ele><time>2026-04-19T09:03:07.381Z</time></trkpt><trkpt lat="43.9946054" lon="12.5430474"><ele>57.5</ele><time>2026-04-19T09:03:08.387Z</time></trkpt><trkpt lat="43.9945705" lon="12.5431988"><ele>59.0</ele><time>2026-04-19T09:03:09.386Z</time></trkpt><trkpt lat="43.9945343" lon="12.5433505"><ele>59.0</ele><time>2026-04-19T09:03:10.381Z</time></trkpt><trkpt lat="43.9944963" lon="12.5435009"><ele>59.00000000000001</ele><time>2026-04-19T09:03:11.38Z</time></trkpt><trkpt lat="43.9944533" lon="12.5436494"><ele>59.00000000000001</ele><time>2026-04-19T09:03:12.383Z</time></trkpt><trkpt lat="43.9944107" lon="12.5437913"><ele>59.0</ele><time>2026-04-19T09:03:13.378Z</time></trkpt><trkpt lat="43.9943679" lon="12.5439304"><ele>59.0</ele><time>2026-04-19T09:03:14.383Z</time></trkpt><trkpt lat="43.9943304" lon="12.5440664"><ele>60.400000000000006</ele><time>2026-04-19T09:03:15.383Z</time></trkpt><trkpt lat="43.9942957" lon="12.5442006"><ele>61.800000000000004</ele><time>2026-04-19T09:03:16.38Z</time></trkpt><trkpt lat="43.9942605" lon="12.544341"><ele>63.199999999999996</ele><time>2026-04-19T09:03:17.377Z</time></trkpt><trkpt lat="43.9942274" lon="12.5444807"><ele>64.6</ele><time>2026-04-19T09:03:18.38Z</time></trkpt><trkpt lat="43.9942044" lon="12.5446277"><ele>66.0</ele><time>2026-04-19T09:03:19.379Z</time></trkpt><trkpt lat="43.9941903" lon="12.5447771"><ele>68.39999999999999</ele><time>2026-04-19T09:03:20.375Z</time></trkpt><trkpt lat="43.9941823" lon="12.544927"><ele>70.8</ele><time>2026-04-19T09:03:21.382Z</time></trkpt><trkpt lat="43.9941816" lon="12.5450795"><ele>73.19999999999999</ele><time>2026-04-19T09:03:22.381Z</time></trkpt><trkpt lat="43.9941827" lon="12.545234"><ele>75.6</ele><time>2026-04-19T09:03:23.382Z</time></trkpt><trkpt lat="43.9941939" lon="12.5453806"><ele>78.0</ele><time>2026-04-19T09:03:24.382Z</time></trkpt><trkpt lat="43.9942111" lon="12.5455274"><ele>80.4</ele><time>2026-04-19T09:03:25.38Z</time></trkpt><trkpt lat="43.9942328" lon="12.5456722"><ele>82.8</ele><time>2026-04-19T09:03:26.382Z</time></trkpt><trkpt lat="43.9942598" lon="12.545811"><ele>85.2</ele><time>2026-04-19T09:03:27.379Z</time></trkpt><trkpt lat="43.9942905" lon="12.545945"><ele>87.6</ele><time>2026-04-19T09:03:28.379Z</time></trkpt><trkpt lat="43.9943176" lon="12.5460755"><ele>90.0</ele><time>2026-04-19T09:03:29.38Z</time></trkpt><trkpt lat="43.9943411" lon="12.5461929"><ele>90.83333333333333</ele><time>2026-04-19T09:03:30.375Z</time></trkpt><trkpt lat="43.9943641" lon="12.5462909"><ele>91.66666666666667</ele><time>2026-04-19T09:03:31.384Z</time></trkpt><trkpt lat="43.9943917" lon="12.5463804"><ele>92.5</ele><time>2026-04-19T09:03:32.381Z</time></trkpt><trkpt lat="43.9944208" lon="12.5464792"><ele>93.33333333333334</ele><time>2026-04-19T09:03:33.387Z</time></trkpt><trkpt lat="43.9944578" lon="12.5465962"><ele>94.16666666666667</ele><time>2026-04-19T09:03:34.383Z</time></trkpt><trkpt lat="43.9945022" lon="12.5467233"><ele>95.0</ele><time>2026-04-19T09:03:35.381Z</time></trkpt><trkpt lat="43.9945545" lon="12.546859"><ele>95.0</ele><time>2026-04-19T09:03:36.382Z</time></trkpt><trkpt lat="43.9946132" lon="12.546994"><ele>95.0</ele><time>2026-04-19T09:03:37.378Z</time></trkpt><trkpt lat="43.9946781" lon="12.5471309"><ele>95.0</ele><time>2026-04-19T09:03:38.376Z</time></trkpt><trkpt lat="43.9947532" lon="12.5472639"><ele>95.0</ele><time>2026-04-19T09:03:39.381Z</time></trkpt><trkpt lat="43.9948357" lon="12.5473931"><ele>94.75</ele><time>2026-04-19T09:03:40.382Z</time></trkpt><trkpt lat="43.994926" lon="12.5475266"><ele>94.5</ele><time>2026-04-19T09:03:41.381Z</time></trkpt><trkpt lat="43.9950167" lon="12.5476649"><ele>94.25</ele><time>2026-04-19T09:03:42.384Z</time></trkpt><trkpt lat="43.9951163" lon="12.5478015"><ele>94.0</ele><time>2026-04-19T09:03:43.381Z</time></trkpt><trkpt lat="43.9952123" lon="12.5479349"><ele>91.5</ele><time>2026-04-19T09:03:44.385Z</time></trkpt><trkpt lat="43.9953092" lon="12.5480684"><ele>89.0</ele><time>2026-04-19T09:03:45.378Z</time></trkpt><trkpt lat="43.9954015" lon="12.5482041"><ele>86.5</ele><time>2026-04-19T09:03:46.379Z</time></trkpt><trkpt lat="43.9954981" lon="12.5483397"><ele>84.0</ele><time>2026-04-19T09:03:47.38Z</time></trkpt><trkpt lat="43.9955919" lon="12.5484693"><ele>84.0</ele><time>2026-04-19T09:03:48.377Z</time></trkpt><trkpt lat="43.9956845" lon="12.5485975"><ele>84.0</ele><time>2026-04-19T09:03:49.381Z</time></trkpt><trkpt lat="43.9957702" lon="12.5487285"><ele>84.0</ele><time>2026-04-19T09:03:50.382Z</time></trkpt><trkpt lat="43.9958433" lon="12.5488734"><ele>84.0</ele><time>2026-04-19T09:03:51.38Z</time></trkpt><trkpt lat="43.995904" lon="12.5490277"><ele>85.0</ele><time>2026-04-19T09:03:52.376Z</time></trkpt><trkpt lat="43.9959518" lon="12.5491925"><ele>86.0</ele><time>2026-04-19T09:03:53.378Z</time></trkpt><trkpt lat="43.9959521" lon="12.5493701"><ele>87.0</ele><time>2026-04-19T09:03:54.377Z</time></trkpt><trkpt lat="43.9959554" lon="12.549541"><ele>88.0</ele><time>2026-04-19T09:03:55.381Z</time></trkpt><trkpt lat="43.9959541" lon="12.5497055"><ele>88.0</ele><time>2026-04-19T09:03:56.378Z</time></trkpt><trkpt lat="43.9959486" lon="12.5498542"><ele>88.0</ele><time>2026-04-19T09:03:57.379Z</time></trkpt><trkpt lat="43.9959453" lon="12.5499951"><ele>88.0</ele><time>2026-04-19T09:03:58.377Z</time></trkpt><trkpt lat="43.9959431" lon="12.5501312"><ele>88.0</ele><time>2026-04-19T09:03:59.381Z</time></trkpt><trkpt lat="43.9959403" lon="12.5502653"><ele>88.0</ele><time>2026-04-19T09:04:00.378Z</time></trkpt><trkpt lat="43.9959373" lon="12.5503996"><ele>86.60000000000001</ele><time>2026-04-19T09:04:01.376Z</time></trkpt><trkpt lat="43.9959421" lon="12.5505357"><ele>85.2</ele><time>2026-04-19T09:04:02.383Z</time></trkpt><trkpt lat="43.9959592" lon="12.5506715"><ele>83.8</ele><time>2026-04-19T09:04:03.383Z</time></trkpt><trkpt lat="43.9959927" lon="12.5508008"><ele>82.4</ele><time>2026-04-19T09:04:04.378Z</time></trkpt><trkpt lat="43.9960419" lon="12.5509239"><ele>81.0</ele><time>2026-04-19T09:04:05.382Z</time></trkpt><trkpt lat="43.9961023" lon="12.5510393"><ele>81.0</ele><time>2026-04-19T09:04:06.377Z</time></trkpt><trkpt lat="43.9961679" lon="12.5511602"><ele>81.0</ele><time>2026-04-19T09:04:07.378Z</time></trkpt><trkpt lat="43.99623" lon="12.551277"><ele>81.0</ele><time>2026-04-19T09:04:08.377Z</time></trkpt><trkpt lat="43.9962877" lon="12.5513876"><ele>81.0</ele><time>2026-04-19T09:04:09.379Z</time></trkpt><trkpt lat="43.9963507" lon="12.5514994"><ele>81.0</ele><time>2026-04-19T09:04:10.377Z</time></trkpt><trkpt lat="43.9964077" lon="12.5516104"><ele>80.2</ele><time>2026-04-19T09:04:11.38Z</time></trkpt><trkpt lat="43.9964653" lon="12.5517123"><ele>79.39999999999999</ele><time>2026-04-19T09:04:12.381Z</time></trkpt><trkpt lat="43.9965238" lon="12.551809"><ele>78.6</ele><time>2026-04-19T09:04:13.38Z</time></trkpt><trkpt lat="43.9965846" lon="12.5519011"><ele>77.8</ele><time>2026-04-19T09:04:14.378Z</time></trkpt><trkpt lat="43.9966395" lon="12.5520038"><ele>77.0</ele><time>2026-04-19T09:04:15.378Z</time></trkpt><trkpt lat="43.9966876" lon="12.5521134"><ele>77.0</ele><time>2026-04-19T09:04:16.381Z</time></trkpt><trkpt lat="43.9967246" lon="12.5522316"><ele>77.0</ele><time>2026-04-19T09:04:17.377Z</time></trkpt><trkpt lat="43.9967522" lon="12.5523503"><ele>77.0</ele><time>2026-04-19T09:04:18.376Z</time></trkpt><trkpt lat="43.9967824" lon="12.5524678"><ele>77.0</ele><time>2026-04-19T09:04:19.374Z</time></trkpt><trkpt lat="43.9968115" lon="12.5525865"><ele>77.0</ele><time>2026-04-19T09:04:20.382Z</time></trkpt><trkpt lat="43.9968446" lon="12.552707"><ele>77.0</ele><time>2026-04-19T09:04:21.379Z</time></trkpt><trkpt lat="43.9968742" lon="12.5528301"><ele>77.0</ele><time>2026-04-19T09:04:22.38Z</time></trkpt><trkpt lat="43.996902" lon="12.5529444"><ele>77.0</ele><time>2026-04-19T09:04:23.381Z</time></trkpt><trkpt lat="43.9969262" lon="12.5530483"><ele>77.0</ele><time>2026-04-19T09:04:24.387Z</time></trkpt><trkpt lat="43.9969566" lon="12.5531948"><ele>77.0</ele><time>2026-04-19T09:04:26.377Z</time></trkpt><trkpt lat="43.9969726" lon="12.5532855"><ele>77.0</ele><time>2026-04-19T09:04:28.378Z</time></trkpt><trkpt lat="43.9970319" lon="12.5534147"><ele>75.8</ele><time>2026-04-19T09:09:34.381Z</time></trkpt><trkpt lat="43.9970963" lon="12.55358"><ele>74.6</ele><time>2026-04-19T09:09:36.392Z</time></trkpt><trkpt lat="43.9971289" lon="12.5536836"><ele>73.39999999999999</ele><time>2026-04-19T09:09:37.383Z</time></trkpt><trkpt lat="43.9971536" lon="12.5537951"><ele>72.2</ele><time>2026-04-19T09:09:38.375Z</time></trkpt><trkpt lat="43.997169" lon="12.5539162"><ele>71.0</ele><time>2026-04-19T09:09:39.379Z</time></trkpt><trkpt lat="43.9971703" lon="12.5540487"><ele>69.6</ele><time>2026-04-19T09:09:40.384Z</time></trkpt><trkpt lat="43.9971631" lon="12.5541877"><ele>68.19999999999999</ele><time>2026-04-19T09:09:41.385Z</time></trkpt><trkpt lat="43.9971493" lon="12.5543343"><ele>66.80000000000001</ele><time>2026-04-19T09:09:42.384Z</time></trkpt><trkpt lat="43.9971345" lon="12.5544809"><ele>65.4</ele><time>2026-04-19T09:09:43.379Z</time></trkpt><trkpt lat="43.9971235" lon="12.5546221"><ele>64.0</ele><time>2026-04-19T09:09:44.379Z</time></trkpt><trkpt lat="43.9971225" lon="12.5547659"><ele>62.400000000000006</ele><time>2026-04-19T09:09:45.383Z</time></trkpt><trkpt lat="43.9971303" lon="12.5549036"><ele>60.800000000000004</ele><time>2026-04-19T09:09:46.38Z</time></trkpt><trkpt lat="43.9971433" lon="12.5550389"><ele>59.199999999999996</ele><time>2026-04-19T09:09:47.38Z</time></trkpt><trkpt lat="43.9971557" lon="12.5551748"><ele>57.599999999999994</ele><time>2026-04-19T09:09:48.385Z</time></trkpt><trkpt lat="43.9971624" lon="12.5553073"><ele>56.0</ele><time>2026-04-19T09:09:49.379Z</time></trkpt><trkpt lat="43.9971699" lon="12.5554445"><ele>54.8</ele><time>2026-04-19T09:09:50.379Z</time></trkpt><trkpt lat="43.9971788" lon="12.5555793"><ele>53.599999999999994</ele><time>2026-04-19T09:09:51.383Z</time></trkpt><trkpt lat="43.9971889" lon="12.5557174"><ele>52.4</ele><time>2026-04-19T09:09:52.38Z</time></trkpt><trkpt lat="43.9972036" lon="12.5558658"><ele>51.2</ele><time>2026-04-19T09:09:53.382Z</time></trkpt><trkpt lat="43.9972139" lon="12.556017"><ele>50.0</ele><time>2026-04-19T09:09:54.381Z</time></trkpt><trkpt lat="43.997228" lon="12.5561744"><ele>49.0</ele><time>2026-04-19T09:09:55.382Z</time></trkpt><trkpt lat="43.9972428" lon="12.5563263"><ele>48.0</ele><time>2026-04-19T09:09:56.383Z</time></trkpt><trkpt lat="43.9972534" lon="12.5564779"><ele>47.0</ele><time>2026-04-19T09:09:57.376Z</time></trkpt><trkpt lat="43.9972654" lon="12.5566295"><ele>46.0</ele><time>2026-04-19T09:09:58.381Z</time></trkpt><trkpt lat="43.9972715" lon="12.5567776"><ele>45.0</ele><time>2026-04-19T09:09:59.382Z</time></trkpt><trkpt lat="43.9972753" lon="12.5569219"><ele>44.4</ele><time>2026-04-19T09:10:00.377Z</time></trkpt><trkpt lat="43.9972816" lon="12.5570619"><ele>43.8</ele><time>2026-04-19T09:10:01.378Z</time></trkpt><trkpt lat="43.9972899" lon="12.5572024"><ele>43.2</ele><time>2026-04-19T09:10:02.38Z</time></trkpt><trkpt lat="43.9973017" lon="12.5573356"><ele>42.6</ele><time>2026-04-19T09:10:03.389Z</time></trkpt><trkpt lat="43.9973115" lon="12.5574687"><ele>42.0</ele><time>2026-04-19T09:10:04.384Z</time></trkpt><trkpt lat="43.9973192" lon="12.5576032"><ele>42.0</ele><time>2026-04-19T09:10:05.378Z</time></trkpt><trkpt lat="43.9973258" lon="12.5577388"><ele>42.0</ele><time>2026-04-19T09:10:06.379Z</time></trkpt><trkpt lat="43.9973248" lon="12.5578736"><ele>42.0</ele><time>2026-04-19T09:10:07.385Z</time></trkpt><trkpt lat="43.9973078" lon="12.5580098"><ele>42.0</ele><time>2026-04-19T09:10:08.386Z</time></trkpt><trkpt lat="43.9972754" lon="12.5581404"><ele>42.0</ele><time>2026-04-19T09:10:09.382Z</time></trkpt><trkpt lat="43.9972307" lon="12.5582636"><ele>41.8</ele><time>2026-04-19T09:10:10.388Z</time></trkpt><trkpt lat="43.9971896" lon="12.558387"><ele>41.6</ele><time>2026-04-19T09:10:11.388Z</time></trkpt><trkpt lat="43.9971622" lon="12.5585216"><ele>41.4</ele><time>2026-04-19T09:10:12.384Z</time></trkpt><trkpt lat="43.9971438" lon="12.5586538"><ele>41.199999999999996</ele><time>2026-04-19T09:10:13.378Z</time></trkpt><trkpt lat="43.9971329" lon="12.5587802"><ele>41.0</ele><time>2026-04-19T09:10:14.382Z</time></trkpt><trkpt lat="43.9971361" lon="12.5589153"><ele>40.4</ele><time>2026-04-19T09:10:15.383Z</time></trkpt><trkpt lat="43.9971463" lon="12.5590618"><ele>39.8</ele><time>2026-04-19T09:10:16.381Z</time></trkpt><trkpt lat="43.9971541" lon="12.5592048"><ele>39.199999999999996</ele><time>2026-04-19T09:10:17.382Z</time></trkpt><trkpt lat="43.9971499" lon="12.559345"><ele>38.599999999999994</ele><time>2026-04-19T09:10:18.389Z</time></trkpt><trkpt lat="43.9971479" lon="12.5594822"><ele>38.0</ele><time>2026-04-19T09:10:19.386Z</time></trkpt><trkpt lat="43.9971466" lon="12.5596158"><ele>37.4</ele><time>2026-04-19T09:10:20.378Z</time></trkpt><trkpt lat="43.9971392" lon="12.5597489"><ele>36.8</ele><time>2026-04-19T09:10:21.377Z</time></trkpt><trkpt lat="43.9971264" lon="12.5598761"><ele>36.2</ele><time>2026-04-19T09:10:22.387Z</time></trkpt><trkpt lat="43.9971155" lon="12.5600006"><ele>35.6</ele><time>2026-04-19T09:10:23.385Z</time></trkpt><trkpt lat="43.9970974" lon="12.5601278"><ele>35.0</ele><time>2026-04-19T09:10:24.381Z</time></trkpt><trkpt lat="43.9970791" lon="12.5602482"><ele>35.166666666666664</ele><time>2026-04-19T09:10:25.379Z</time></trkpt><trkpt lat="43.9970628" lon="12.5603666"><ele>35.33333333333333</ele><time>2026-04-19T09:10:26.381Z</time></trkpt><trkpt lat="43.9970457" lon="12.5604799"><ele>35.5</ele><time>2026-04-19T09:10:27.379Z</time></trkpt><trkpt lat="43.9970295" lon="12.5606015"><ele>35.666666666666664</ele><time>2026-04-19T09:10:28.381Z</time></trkpt><trkpt lat="43.9970176" lon="12.5607203"><ele>35.833333333333336</ele><time>2026-04-19T09:10:29.38Z</time></trkpt><trkpt lat="43.9970066" lon="12.5608439"><ele>36.0</ele><time>2026-04-19T09:10:30.379Z</time></trkpt><trkpt lat="43.9969949" lon="12.5609674"><ele>36.0</ele><time>2026-04-19T09:10:31.385Z</time></trkpt><trkpt lat="43.9969785" lon="12.5610914"><ele>36.0</ele><time>2026-04-19T09:10:32.379Z</time></trkpt><trkpt lat="43.9969605" lon="12.5612184"><ele>36.0</ele><time>2026-04-19T09:10:33.375Z</time></trkpt><trkpt lat="43.9969437" lon="12.5613456"><ele>36.0</ele><time>2026-04-19T09:10:34.382Z</time></trkpt><trkpt lat="43.9969308" lon="12.5614753"><ele>36.0</ele><time>2026-04-19T09:10:35.377Z</time></trkpt><trkpt lat="43.9969109" lon="12.5616079"><ele>36.0</ele><time>2026-04-19T09:10:36.383Z</time></trkpt><trkpt lat="43.9968941" lon="12.5617386"><ele>36.0</ele><time>2026-04-19T09:10:37.382Z</time></trkpt><trkpt lat="43.9968836" lon="12.5618665"><ele>36.0</ele><time>2026-04-19T09:10:38.387Z</time></trkpt><trkpt lat="43.9968723" lon="12.5619892"><ele>36.0</ele><time>2026-04-19T09:10:39.382Z</time></trkpt><trkpt lat="43.9968573" lon="12.5620947"><ele>36.0</ele><time>2026-04-19T09:10:40.391Z</time></trkpt><trkpt lat="43.9968314" lon="12.5621846"><ele>36.0</ele><time>2026-04-19T09:10:41.378Z</time></trkpt><trkpt lat="43.9967356" lon="12.5622713"><ele>36.833333333333336</ele><time>2026-04-19T09:10:43.379Z</time></trkpt><trkpt lat="43.9966625" lon="12.5622548"><ele>37.666666666666664</ele><time>2026-04-19T09:10:44.38Z</time></trkpt><trkpt lat="43.9965882" lon="12.562219"><ele>38.5</ele><time>2026-04-19T09:10:45.379Z</time></trkpt><trkpt lat="43.9965051" lon="12.5621832"><ele>39.33333333333333</ele><time>2026-04-19T09:10:46.376Z</time></trkpt><trkpt lat="43.9964179" lon="12.5621478"><ele>40.166666666666664</ele><time>2026-04-19T09:10:47.379Z</time></trkpt><trkpt lat="43.9963212" lon="12.5621128"><ele>41.0</ele><time>2026-04-19T09:10:48.383Z</time></trkpt><trkpt lat="43.9962233" lon="12.5620754"><ele>41.0</ele><time>2026-04-19T09:10:49.38Z</time></trkpt><trkpt lat="43.9961231" lon="12.5620346"><ele>41.0</ele><time>2026-04-19T09:10:50.375Z</time></trkpt><trkpt lat="43.9960234" lon="12.5619891"><ele>41.0</ele><time>2026-04-19T09:10:51.38Z</time></trkpt><trkpt lat="43.9959306" lon="12.5619343"><ele>41.0</ele><time>2026-04-19T09:10:52.376Z</time></trkpt><trkpt lat="43.9958346" lon="12.5618725"><ele>41.0</ele><time>2026-04-19T09:10:53.384Z</time></trkpt><trkpt lat="43.9957408" lon="12.5617977"><ele>42.0</ele><time>2026-04-19T09:10:54.383Z</time></trkpt><trkpt lat="43.9956488" lon="12.5617178"><ele>43.0</ele><time>2026-04-19T09:10:55.377Z</time></trkpt><trkpt lat="43.9955531" lon="12.56164"><ele>44.0</ele><time>2026-04-19T09:10:56.381Z</time></trkpt><trkpt lat="43.99546" lon="12.5615589"><ele>45.0</ele><time>2026-04-19T09:10:57.378Z</time></trkpt><trkpt lat="43.9953645" lon="12.5614744"><ele>46.0</ele><time>2026-04-19T09:10:58.38Z</time></trkpt><trkpt lat="43.9952684" lon="12.5613918"><ele>46.0</ele><time>2026-04-19T09:10:59.378Z</time></trkpt><trkpt lat="43.995173" lon="12.5613051"><ele>46.0</ele><time>2026-04-19T09:11:00.383Z</time></trkpt><trkpt lat="43.9950791" lon="12.5612181"><ele>46.0</ele><time>2026-04-19T09:11:01.38Z</time></trkpt><trkpt lat="43.9949974" lon="12.5611288"><ele>46.0</ele><time>2026-04-19T09:11:02.381Z</time></trkpt><trkpt lat="43.9949358" lon="12.561035"><ele>46.0</ele><time>2026-04-19T09:11:03.381Z</time></trkpt><trkpt lat="43.9949047" lon="12.560923"><ele>46.4</ele><time>2026-04-19T09:11:04.377Z</time></trkpt><trkpt lat="43.994892" lon="12.5607957"><ele>46.8</ele><time>2026-04-19T09:11:05.383Z</time></trkpt><trkpt lat="43.9948804" lon="12.5606685"><ele>47.199999999999996</ele><time>2026-04-19T09:11:06.38Z</time></trkpt><trkpt lat="43.9948813" lon="12.5605147"><ele>47.599999999999994</ele><time>2026-04-19T09:11:07.375Z</time></trkpt><trkpt lat="43.9948732" lon="12.5603583"><ele>48.0</ele><time>2026-04-19T09:11:08.376Z</time></trkpt><trkpt lat="43.9948567" lon="12.5601974"><ele>48.0</ele><time>2026-04-19T09:11:09.379Z</time></trkpt><trkpt lat="43.9948305" lon="12.5600351"><ele>48.0</ele><time>2026-04-19T09:11:10.379Z</time></trkpt><trkpt lat="43.9947988" lon="12.5598684"><ele>48.0</ele><time>2026-04-19T09:11:11.377Z</time></trkpt><trkpt lat="43.9947642" lon="12.5597008"><ele>48.0</ele><time>2026-04-19T09:11:12.377Z</time></trkpt><trkpt lat="43.9947297" lon="12.559535"><ele>47.75</ele><time>2026-04-19T09:11:13.381Z</time></trkpt><trkpt lat="43.9946968" lon="12.5593728"><ele>47.5</ele><time>2026-04-19T09:11:14.378Z</time></trkpt><trkpt lat="43.9946602" lon="12.5592134"><ele>47.25</ele><time>2026-04-19T09:11:15.38Z</time></trkpt><trkpt lat="43.9945972" lon="12.5590621"><ele>47.0</ele><time>2026-04-19T09:11:16.378Z</time></trkpt><trkpt lat="43.9945172" lon="12.558923"><ele>47.0</ele><time>2026-04-19T09:11:17.382Z</time></trkpt><trkpt lat="43.9944225" lon="12.5588027"><ele>47.0</ele><time>2026-04-19T09:11:18.377Z</time></trkpt><trkpt lat="43.9943182" lon="12.558692"><ele>47.0</ele><time>2026-04-19T09:11:19.377Z</time></trkpt><trkpt lat="43.9942078" lon="12.5585955"><ele>47.0</ele><time>2026-04-19T09:11:20.376Z</time></trkpt><trkpt lat="43.9940991" lon="12.5585002"><ele>49.25</ele><time>2026-04-19T09:11:21.382Z</time></trkpt><trkpt lat="43.9939867" lon="12.5584114"><ele>51.5</ele><time>2026-04-19T09:11:22.377Z</time></trkpt><trkpt lat="43.9938756" lon="12.5583213"><ele>53.75</ele><time>2026-04-19T09:11:23.38Z</time></trkpt><trkpt lat="43.9937659" lon="12.558228"><ele>56.0</ele><time>2026-04-19T09:11:24.383Z</time></trkpt><trkpt lat="43.9936563" lon="12.558139"><ele>56.0</ele><time>2026-04-19T09:11:25.376Z</time></trkpt><trkpt lat="43.9935481" lon="12.5580528"><ele>56.0</ele><time>2026-04-19T09:11:26.383Z</time></trkpt><trkpt lat="43.9934394" lon="12.5579677"><ele>56.0</ele><time>2026-04-19T09:11:27.381Z</time></trkpt><trkpt lat="43.99333" lon="12.5578834"><ele>56.0</ele><time>2026-04-19T09:11:28.376Z</time></trkpt><trkpt lat="43.9932211" lon="12.5577979"><ele>58.25</ele><time>2026-04-19T09:11:29.383Z</time></trkpt><trkpt lat="43.9931151" lon="12.5577139"><ele>60.5</ele><time>2026-04-19T09:11:30.379Z</time></trkpt><trkpt lat="43.9930082" lon="12.5576345"><ele>62.75</ele><time>2026-04-19T09:11:31.383Z</time></trkpt><trkpt lat="43.9929089" lon="12.5575554"><ele>65.0</ele><time>2026-04-19T09:11:32.384Z</time></trkpt><trkpt lat="43.9928093" lon="12.5574776"><ele>65.0</ele><time>2026-04-19T09:11:33.381Z</time></trkpt><trkpt lat="43.9927117" lon="12.5574038"><ele>65.0</ele><time>2026-04-19T09:11:34.381Z</time></trkpt><trkpt lat="43.9926164" lon="12.5573315"><ele>65.0</ele><time>2026-04-19T09:11:35.376Z</time></trkpt><trkpt lat="43.9925148" lon="12.5572657"><ele>65.0</ele><time>2026-04-19T09:11:36.383Z</time></trkpt><trkpt lat="43.99241" lon="12.5572009"><ele>65.0</ele><time>2026-04-19T09:11:37.378Z</time></trkpt><trkpt lat="43.9922991" lon="12.5571398"><ele>66.0</ele><time>2026-04-19T09:11:38.382Z</time></trkpt><trkpt lat="43.992187" lon="12.557076"><ele>67.0</ele><time>2026-04-19T09:11:39.385Z</time></trkpt><trkpt lat="43.9920711" lon="12.5570122"><ele>68.0</ele><time>2026-04-19T09:11:40.377Z</time></trkpt><trkpt lat="43.9919517" lon="12.5569479"><ele>69.0</ele><time>2026-04-19T09:11:41.382Z</time></trkpt><trkpt lat="43.9918297" lon="12.5568884"><ele>69.0</ele><time>2026-04-19T09:11:42.382Z</time></trkpt><trkpt lat="43.9917101" lon="12.5568262"><ele>69.0</ele><time>2026-04-19T09:11:43.388Z</time></trkpt><trkpt lat="43.9915893" lon="12.5567648"><ele>69.0</ele><time>2026-04-19T09:11:44.382Z</time></trkpt><trkpt lat="43.9914688" lon="12.5566976"><ele>69.0</ele><time>2026-04-19T09:11:45.38Z</time></trkpt><trkpt lat="43.9913481" lon="12.5566363"><ele>71.0</ele><time>2026-04-19T09:11:46.381Z</time></trkpt><trkpt lat="43.991228" lon="12.556573"><ele>73.0</ele><time>2026-04-19T09:11:47.38Z</time></trkpt><trkpt lat="43.991108" lon="12.5565043"><ele>75.0</ele><time>2026-04-19T09:11:48.375Z</time></trkpt><trkpt lat="43.9909866" lon="12.5564446"><ele>77.0</ele><time>2026-04-19T09:11:49.379Z</time></trkpt><trkpt lat="43.9908652" lon="12.5563866"><ele>78.5</ele><time>2026-04-19T09:11:50.38Z</time></trkpt><trkpt lat="43.9907449" lon="12.5563222"><ele>80.0</ele><time>2026-04-19T09:11:51.38Z</time></trkpt><trkpt lat="43.9906251" lon="12.5562624"><ele>81.5</ele><time>2026-04-19T09:11:52.388Z</time></trkpt><trkpt lat="43.990508" lon="12.5562021"><ele>83.0</ele><time>2026-04-19T09:11:53.379Z</time></trkpt><trkpt lat="43.9903938" lon="12.5561406"><ele>83.0</ele><time>2026-04-19T09:11:54.38Z</time></trkpt><trkpt lat="43.9902766" lon="12.5560805"><ele>83.0</ele><time>2026-04-19T09:11:55.381Z</time></trkpt><trkpt lat="43.9901621" lon="12.5560226"><ele>83.0</ele><time>2026-04-19T09:11:56.375Z</time></trkpt><trkpt lat="43.9900458" lon="12.5559633"><ele>83.0</ele><time>2026-04-19T09:11:57.38Z</time></trkpt><trkpt lat="43.9899302" lon="12.5559052"><ele>85.25</ele><time>2026-04-19T09:11:58.376Z</time></trkpt><trkpt lat="43.9898153" lon="12.5558513"><ele>87.5</ele><time>2026-04-19T09:11:59.38Z</time></trkpt><trkpt lat="43.9897051" lon="12.5557948"><ele>89.75</ele><time>2026-04-19T09:12:00.38Z</time></trkpt><trkpt lat="43.9895944" lon="12.5557332"><ele>92.0</ele><time>2026-04-19T09:12:01.38Z</time></trkpt><trkpt lat="43.9894867" lon="12.5556764"><ele>92.0</ele><time>2026-04-19T09:12:02.381Z</time></trkpt><trkpt lat="43.9893743" lon="12.5556264"><ele>92.0</ele><time>2026-04-19T09:12:03.381Z</time></trkpt><trkpt lat="43.9892639" lon="12.5555888"><ele>92.0</ele><time>2026-04-19T09:12:04.378Z</time></trkpt><trkpt lat="43.9891506" lon="12.5555633"><ele>92.0</ele><time>2026-04-19T09:12:05.383Z</time></trkpt><trkpt lat="43.9890361" lon="12.5555495"><ele>94.75</ele><time>2026-04-19T09:12:06.382Z</time></trkpt><trkpt lat="43.9889191" lon="12.5555343"><ele>97.5</ele><time>2026-04-19T09:12:07.385Z</time></trkpt><trkpt lat="43.988802" lon="12.5555301"><ele>100.25</ele><time>2026-04-19T09:12:08.376Z</time></trkpt><trkpt lat="43.9886884" lon="12.5555222"><ele>103.0</ele><time>2026-04-19T09:12:09.376Z</time></trkpt><trkpt lat="43.9885828" lon="12.5555128"><ele>103.0</ele><time>2026-04-19T09:12:10.38Z</time></trkpt><trkpt lat="43.9884805" lon="12.5554937"><ele>103.0</ele><time>2026-04-19T09:12:11.379Z</time></trkpt><trkpt lat="43.9883824" lon="12.5554534"><ele>103.0</ele><time>2026-04-19T09:12:12.379Z</time></trkpt><trkpt lat="43.9882882" lon="12.5554003"><ele>103.0</ele><time>2026-04-19T09:12:13.38Z</time></trkpt><trkpt lat="43.9882009" lon="12.5553259"><ele>103.0</ele><time>2026-04-19T09:12:14.38Z</time></trkpt><trkpt lat="43.9881156" lon="12.5552433"><ele>103.60000000000001</ele><time>2026-04-19T09:12:15.378Z</time></trkpt><trkpt lat="43.9880336" lon="12.5551517"><ele>104.2</ele><time>2026-04-19T09:12:16.38Z</time></trkpt><trkpt lat="43.9879558" lon="12.5550493"><ele>104.8</ele><time>2026-04-19T09:12:17.378Z</time></trkpt><trkpt lat="43.9878852" lon="12.5549505"><ele>105.4</ele><time>2026-04-19T09:12:18.377Z</time></trkpt><trkpt lat="43.9878142" lon="12.5548542"><ele>106.0</ele><time>2026-04-19T09:12:19.381Z</time></trkpt><trkpt lat="43.9877418" lon="12.5547611"><ele>106.0</ele><time>2026-04-19T09:12:20.382Z</time></trkpt><trkpt lat="43.987667" lon="12.5546696"><ele>106.0</ele><time>2026-04-19T09:12:21.378Z</time></trkpt><trkpt lat="43.9875914" lon="12.5545751"><ele>106.0</ele><time>2026-04-19T09:12:22.382Z</time></trkpt><trkpt lat="43.9875165" lon="12.5544778"><ele>106.0</ele><time>2026-04-19T09:12:23.378Z</time></trkpt><trkpt lat="43.9874382" lon="12.554382"><ele>106.0</ele><time>2026-04-19T09:12:24.382Z</time></trkpt><trkpt lat="43.987363" lon="12.5542863"><ele>106.8</ele><time>2026-04-19T09:12:25.378Z</time></trkpt><trkpt lat="43.9872844" lon="12.5541974"><ele>107.6</ele><time>2026-04-19T09:12:26.381Z</time></trkpt><trkpt lat="43.9872077" lon="12.5541089"><ele>108.4</ele><time>2026-04-19T09:12:27.381Z</time></trkpt><trkpt lat="43.9871287" lon="12.5540312"><ele>109.2</ele><time>2026-04-19T09:12:28.381Z</time></trkpt><trkpt lat="43.987044" lon="12.5539773"><ele>110.0</ele><time>2026-04-19T09:12:29.377Z</time></trkpt><trkpt lat="43.9869547" lon="12.5539577"><ele>110.0</ele><time>2026-04-19T09:12:30.383Z</time></trkpt><trkpt lat="43.9868617" lon="12.5539805"><ele>110.0</ele><time>2026-04-19T09:12:31.382Z</time></trkpt><trkpt lat="43.986765" lon="12.5540124"><ele>110.0</ele><time>2026-04-19T09:12:32.374Z</time></trkpt><trkpt lat="43.9866702" lon="12.554052"><ele>110.0</ele><time>2026-04-19T09:12:33.38Z</time></trkpt><trkpt lat="43.9865729" lon="12.5540902"><ele>110.0</ele><time>2026-04-19T09:12:34.381Z</time></trkpt><trkpt lat="43.9864726" lon="12.5541237"><ele>111.2</ele><time>2026-04-19T09:12:35.377Z</time></trkpt><trkpt lat="43.9863737" lon="12.5541628"><ele>112.4</ele><time>2026-04-19T09:12:36.377Z</time></trkpt><trkpt lat="43.9862765" lon="12.5542038"><ele>113.6</ele><time>2026-04-19T09:12:37.381Z</time></trkpt><trkpt lat="43.9861774" lon="12.5542418"><ele>114.8</ele><time>2026-04-19T09:12:38.376Z</time></trkpt><trkpt lat="43.9860793" lon="12.5542783"><ele>116.0</ele><time>2026-04-19T09:12:39.376Z</time></trkpt><trkpt lat="43.9859829" lon="12.5543178"><ele>115.99999999999999</ele><time>2026-04-19T09:12:40.377Z</time></trkpt><trkpt lat="43.9858899" lon="12.5543499"><ele>116.0</ele><time>2026-04-19T09:12:41.379Z</time></trkpt><trkpt lat="43.9858092" lon="12.5543802"><ele>116.0</ele><time>2026-04-19T09:12:42.381Z</time></trkpt><trkpt lat="43.9857399" lon="12.554407"><ele>116.0</ele><time>2026-04-19T09:12:43.383Z</time></trkpt><trkpt lat="43.9856447" lon="12.554432"><ele>115.99999999999999</ele><time>2026-04-19T09:12:45.384Z</time></trkpt><trkpt lat="43.9855578" lon="12.5544479"><ele>116.0</ele><time>2026-04-19T09:12:47.386Z</time></trkpt><trkpt lat="43.9854376" lon="12.5545203"><ele>116.33333333333333</ele><time>2026-04-19T09:12:49.379Z</time></trkpt><trkpt lat="43.9853734" lon="12.5545737"><ele>116.66666666666666</ele><time>2026-04-19T09:12:50.378Z</time></trkpt><trkpt lat="43.985294" lon="12.5546206"><ele>117.0</ele><time>2026-04-19T09:12:51.377Z</time></trkpt><trkpt lat="43.985202" lon="12.5546523"><ele>117.33333333333334</ele><time>2026-04-19T09:12:52.379Z</time></trkpt><trkpt lat="43.9851144" lon="12.5546881"><ele>117.66666666666667</ele><time>2026-04-19T09:12:53.379Z</time></trkpt><trkpt lat="43.9850149" lon="12.5547143"><ele>118.0</ele><time>2026-04-19T09:12:54.38Z</time></trkpt><trkpt lat="43.9849185" lon="12.5547463"><ele>119.4</ele><time>2026-04-19T09:12:55.377Z</time></trkpt><trkpt lat="43.9848165" lon="12.5547775"><ele>120.80000000000001</ele><time>2026-04-19T09:12:56.38Z</time></trkpt><trkpt lat="43.9847137" lon="12.5548141"><ele>122.2</ele><time>2026-04-19T09:12:57.377Z</time></trkpt><trkpt lat="43.9846049" lon="12.554848"><ele>123.6</ele><time>2026-04-19T09:12:58.376Z</time></trkpt><trkpt lat="43.9844946" lon="12.5548849"><ele>125.0</ele><time>2026-04-19T09:12:59.38Z</time></trkpt><trkpt lat="43.9843784" lon="12.5549261"><ele>125.0</ele><time>2026-04-19T09:13:00.378Z</time></trkpt><trkpt lat="43.9842615" lon="12.5549686"><ele>125.0</ele><time>2026-04-19T09:13:01.385Z</time></trkpt><trkpt lat="43.9841467" lon="12.5550141"><ele>125.0</ele><time>2026-04-19T09:13:02.379Z</time></trkpt><trkpt lat="43.9840305" lon="12.5550591"><ele>125.0</ele><time>2026-04-19T09:13:03.376Z</time></trkpt><trkpt lat="43.9839151" lon="12.5551139"><ele>125.75</ele><time>2026-04-19T09:13:04.38Z</time></trkpt><trkpt lat="43.983797" lon="12.555169"><ele>126.5</ele><time>2026-04-19T09:13:05.378Z</time></trkpt><trkpt lat="43.9836787" lon="12.5552283"><ele>127.25</ele><time>2026-04-19T09:13:06.38Z</time></trkpt><trkpt lat="43.983562" lon="12.5552872"><ele>128.0</ele><time>2026-04-19T09:13:07.378Z</time></trkpt><trkpt lat="43.983446" lon="12.5553505"><ele>126.25</ele><time>2026-04-19T09:13:08.382Z</time></trkpt><trkpt lat="43.9833286" lon="12.5554192"><ele>124.5</ele><time>2026-04-19T09:13:09.398Z</time></trkpt><trkpt lat="43.9832117" lon="12.5554892"><ele>122.75</ele><time>2026-04-19T09:13:10.383Z</time></trkpt><trkpt lat="43.9830927" lon="12.5555552"><ele>121.0</ele><time>2026-04-19T09:13:11.376Z</time></trkpt><trkpt lat="43.9829791" lon="12.5556146"><ele>121.0</ele><time>2026-04-19T09:13:12.377Z</time></trkpt><trkpt lat="43.9828746" lon="12.5556664"><ele>121.0</ele><time>2026-04-19T09:13:13.381Z</time></trkpt><trkpt lat="43.982774" lon="12.55571"><ele>121.0</ele><time>2026-04-19T09:13:14.381Z</time></trkpt><trkpt lat="43.9826766" lon="12.555753"><ele>121.0</ele><time>2026-04-19T09:13:15.377Z</time></trkpt><trkpt lat="43.9825832" lon="12.5557895"><ele>121.0</ele><time>2026-04-19T09:13:16.382Z</time></trkpt><trkpt lat="43.9824892" lon="12.5558212"><ele>122.6</ele><time>2026-04-19T09:13:17.376Z</time></trkpt><trkpt lat="43.9823979" lon="12.5558556"><ele>124.19999999999999</ele><time>2026-04-19T09:13:18.38Z</time></trkpt><trkpt lat="43.9823022" lon="12.5558814"><ele>125.80000000000001</ele><time>2026-04-19T09:13:19.379Z</time></trkpt><trkpt lat="43.9822116" lon="12.5558999"><ele>127.4</ele><time>2026-04-19T09:13:20.375Z</time></trkpt><trkpt lat="43.982121" lon="12.5559192"><ele>129.0</ele><time>2026-04-19T09:13:21.387Z</time></trkpt><trkpt lat="43.9820306" lon="12.5559548"><ele>129.0</ele><time>2026-04-19T09:13:22.381Z</time></trkpt><trkpt lat="43.9819426" lon="12.5559745"><ele>129.0</ele><time>2026-04-19T09:13:23.378Z</time></trkpt><trkpt lat="43.9818497" lon="12.5560268"><ele>129.0</ele><time>2026-04-19T09:13:24.377Z</time></trkpt><trkpt lat="43.9817604" lon="12.5560651"><ele>129.0</ele><time>2026-04-19T09:13:25.382Z</time></trkpt><trkpt lat="43.9816722" lon="12.556119"><ele>129.0</ele><time>2026-04-19T09:13:26.378Z</time></trkpt><trkpt lat="43.9815886" lon="12.5561678"><ele>129.0</ele><time>2026-04-19T09:13:27.382Z</time></trkpt><trkpt lat="43.9814962" lon="12.5562075"><ele>129.0</ele><time>2026-04-19T09:13:28.38Z</time></trkpt><trkpt lat="43.981411" lon="12.55625"><ele>129.0</ele><time>2026-04-19T09:13:29.378Z</time></trkpt><trkpt lat="43.9813317" lon="12.5562998"><ele>129.0</ele><time>2026-04-19T09:13:30.378Z</time></trkpt><trkpt lat="43.9812698" lon="12.5563606"><ele>129.0</ele><time>2026-04-19T09:13:31.377Z</time></trkpt><trkpt lat="43.9812222" lon="12.5564399"><ele>129.0</ele><time>2026-04-19T09:13:32.381Z</time></trkpt><trkpt lat="43.9812073" lon="12.5565453"><ele>129.0</ele><time>2026-04-19T09:13:33.38Z</time></trkpt><trkpt lat="43.9811973" lon="12.5566625"><ele>129.0</ele><time>2026-04-19T09:13:34.381Z</time></trkpt><trkpt lat="43.9811835" lon="12.5567807"><ele>129.0</ele><time>2026-04-19T09:13:35.374Z</time></trkpt><trkpt lat="43.9811688" lon="12.556905"><ele>129.0</ele><time>2026-04-19T09:13:36.38Z</time></trkpt><trkpt lat="43.9811551" lon="12.5570254"><ele>129.0</ele><time>2026-04-19T09:13:37.38Z</time></trkpt><trkpt lat="43.9811417" lon="12.5571461"><ele>129.0</ele><time>2026-04-19T09:13:38.375Z</time></trkpt><trkpt lat="43.9811252" lon="12.5572656"><ele>128.16666666666666</ele><time>2026-04-19T09:13:39.378Z</time></trkpt><trkpt lat="43.9811075" lon="12.5573559"><ele>127.33333333333334</ele><time>2026-04-19T09:13:40.383Z</time></trkpt><trkpt lat="43.981085" lon="12.5574608"><ele>126.5</ele><time>2026-04-19T09:13:42.377Z</time></trkpt><trkpt lat="43.9810699" lon="12.5575491"><ele>125.66666666666667</ele><time>2026-04-19T09:13:46.378Z</time></trkpt><trkpt lat="43.9810289" lon="12.5576916"><ele>124.83333333333334</ele><time>2026-04-19T09:13:48.375Z</time></trkpt><trkpt lat="43.9809885" lon="12.557781"><ele>124.0</ele><time>2026-04-19T09:13:49.379Z</time></trkpt><trkpt lat="43.9809483" lon="12.5578872"><ele>123.2</ele><time>2026-04-19T09:13:50.386Z</time></trkpt><trkpt lat="43.9809055" lon="12.558007"><ele>122.4</ele><time>2026-04-19T09:13:51.378Z</time></trkpt><trkpt lat="43.9808654" lon="12.5581325"><ele>121.6</ele><time>2026-04-19T09:13:52.381Z</time></trkpt><trkpt lat="43.980838" lon="12.5582762"><ele>120.8</ele><time>2026-04-19T09:13:53.376Z</time></trkpt><trkpt lat="43.9808239" lon="12.5584365"><ele>120.0</ele><time>2026-04-19T09:13:54.381Z</time></trkpt><trkpt lat="43.9808051" lon="12.5585986"><ele>119.0</ele><time>2026-04-19T09:13:55.377Z</time></trkpt><trkpt lat="43.9807878" lon="12.5587726"><ele>118.0</ele><time>2026-04-19T09:13:56.382Z</time></trkpt><trkpt lat="43.9807703" lon="12.5589567"><ele>117.0</ele><time>2026-04-19T09:13:57.381Z</time></trkpt><trkpt lat="43.980751" lon="12.5591323"><ele>116.0</ele><time>2026-04-19T09:13:58.377Z</time></trkpt><trkpt lat="43.980731" lon="12.5593102"><ele>116.0</ele><time>2026-04-19T09:13:59.379Z</time></trkpt><trkpt lat="43.9807083" lon="12.5594823"><ele>116.0</ele><time>2026-04-19T09:14:00.379Z</time></trkpt><trkpt lat="43.9806879" lon="12.5596522"><ele>116.0</ele><time>2026-04-19T09:14:01.375Z</time></trkpt><trkpt lat="43.9806651" lon="12.5598225"><ele>116.0</ele><time>2026-04-19T09:14:02.383Z</time></trkpt><trkpt lat="43.9806444" lon="12.5599921"><ele>115.5</ele><time>2026-04-19T09:14:03.373Z</time></trkpt><trkpt lat="43.9806241" lon="12.5601644"><ele>115.0</ele><time>2026-04-19T09:14:04.381Z</time></trkpt><trkpt lat="43.980601" lon="12.5603366"><ele>114.5</ele><time>2026-04-19T09:14:05.379Z</time></trkpt><trkpt lat="43.9805802" lon="12.5605055"><ele>114.0</ele><time>2026-04-19T09:14:06.38Z</time></trkpt><trkpt lat="43.9805625" lon="12.560671"><ele>112.25</ele><time>2026-04-19T09:14:07.38Z</time></trkpt><trkpt lat="43.9805452" lon="12.5608326"><ele>110.5</ele><time>2026-04-19T09:14:08.373Z</time></trkpt><trkpt lat="43.98053" lon="12.5609905"><ele>108.75</ele><time>2026-04-19T09:14:09.376Z</time></trkpt><trkpt lat="43.9805183" lon="12.5611382"><ele>107.0</ele><time>2026-04-19T09:14:10.384Z</time></trkpt><trkpt lat="43.98049" lon="12.5612937"><ele>105.0</ele><time>2026-04-19T09:14:11.378Z</time></trkpt><trkpt lat="43.9804622" lon="12.5614484"><ele>103.0</ele><time>2026-04-19T09:14:12.377Z</time></trkpt><trkpt lat="43.9804295" lon="12.5616069"><ele>101.0</ele><time>2026-04-19T09:14:13.385Z</time></trkpt><trkpt lat="43.9803956" lon="12.561777"><ele>99.0</ele><time>2026-04-19T09:14:14.376Z</time></trkpt><trkpt lat="43.9803595" lon="12.5619474"><ele>96.5</ele><time>2026-04-19T09:14:15.383Z</time></trkpt><trkpt lat="43.9803216" lon="12.5621218"><ele>94.0</ele><time>2026-04-19T09:14:16.379Z</time></trkpt><trkpt lat="43.9802858" lon="12.5622974"><ele>91.5</ele><time>2026-04-19T09:14:17.382Z</time></trkpt><trkpt lat="43.9802518" lon="12.5624706"><ele>89.0</ele><time>2026-04-19T09:14:18.38Z</time></trkpt><trkpt lat="43.9802221" lon="12.562635"><ele>89.0</ele><time>2026-04-19T09:14:19.378Z</time></trkpt><trkpt lat="43.9801915" lon="12.5627981"><ele>89.0</ele><time>2026-04-19T09:14:20.377Z</time></trkpt><trkpt lat="43.9801583" lon="12.5629651"><ele>89.0</ele><time>2026-04-19T09:14:21.38Z</time></trkpt><trkpt lat="43.9801217" lon="12.5631286"><ele>89.0</ele><time>2026-04-19T09:14:22.376Z</time></trkpt><trkpt lat="43.9800754" lon="12.5632942"><ele>87.75</ele><time>2026-04-19T09:14:23.374Z</time></trkpt><trkpt lat="43.9800235" lon="12.5634548"><ele>86.5</ele><time>2026-04-19T09:14:24.376Z</time></trkpt><trkpt lat="43.9799688" lon="12.5636142"><ele>85.25</ele><time>2026-04-19T09:14:25.378Z</time></trkpt><trkpt lat="43.9799175" lon="12.5637634"><ele>84.0</ele><time>2026-04-19T09:14:26.375Z</time></trkpt><trkpt lat="43.9798711" lon="12.5639141"><ele>82.2</ele><time>2026-04-19T09:14:27.375Z</time></trkpt><trkpt lat="43.9798386" lon="12.5640613"><ele>80.4</ele><time>2026-04-19T09:14:28.379Z</time></trkpt><trkpt lat="43.9798358" lon="12.5642005"><ele>78.6</ele><time>2026-04-19T09:14:29.383Z</time></trkpt><trkpt lat="43.9798633" lon="12.5643219"><ele>76.8</ele><time>2026-04-19T09:14:30.379Z</time></trkpt><trkpt lat="43.9799241" lon="12.5644255"><ele>75.0</ele><time>2026-04-19T09:14:31.38Z</time></trkpt><trkpt lat="43.9800033" lon="12.5645123"><ele>71.0</ele><time>2026-04-19T09:14:32.378Z</time></trkpt><trkpt lat="43.9800955" lon="12.5645917"><ele>67.0</ele><time>2026-04-19T09:14:33.379Z</time></trkpt><trkpt lat="43.9801954" lon="12.5646732"><ele>63.0</ele><time>2026-04-19T09:14:34.383Z</time></trkpt><trkpt lat="43.9802996" lon="12.5647678"><ele>59.0</ele><time>2026-04-19T09:14:35.374Z</time></trkpt><trkpt lat="43.9803895" lon="12.5648692"><ele>59.0</ele><time>2026-04-19T09:14:36.387Z</time></trkpt><trkpt lat="43.9804551" lon="12.5649774"><ele>59.00000000000001</ele><time>2026-04-19T09:14:37.379Z</time></trkpt><trkpt lat="43.980485" lon="12.5650908"><ele>59.00000000000001</ele><time>2026-04-19T09:14:38.38Z</time></trkpt><trkpt lat="43.9804942" lon="12.5652091"><ele>59.0</ele><time>2026-04-19T09:14:39.381Z</time></trkpt><trkpt lat="43.9804396" lon="12.5653339"><ele>59.0</ele><time>2026-04-19T09:14:40.381Z</time></trkpt><trkpt lat="43.9803908" lon="12.5654631"><ele>56.25</ele><time>2026-04-19T09:14:41.375Z</time></trkpt><trkpt lat="43.9803304" lon="12.5655882"><ele>53.5</ele><time>2026-04-19T09:14:42.374Z</time></trkpt><trkpt lat="43.9802607" lon="12.5657167"><ele>50.75</ele><time>2026-04-19T09:14:43.377Z</time></trkpt><trkpt lat="43.9801828" lon="12.5658453"><ele>48.0</ele><time>2026-04-19T09:14:44.382Z</time></trkpt><trkpt lat="43.9801074" lon="12.5659727"><ele>48.0</ele><time>2026-04-19T09:14:45.385Z</time></trkpt><trkpt lat="43.9800334" lon="12.5661005"><ele>48.0</ele><time>2026-04-19T09:14:46.379Z</time></trkpt><trkpt lat="43.9799688" lon="12.5662145"><ele>48.0</ele><time>2026-04-19T09:14:47.378Z</time></trkpt><trkpt lat="43.979915" lon="12.5663149"><ele>48.0</ele><time>2026-04-19T09:14:48.376Z</time></trkpt><trkpt lat="43.9798699" lon="12.5664045"><ele>48.0</ele><time>2026-04-19T09:14:49.378Z</time></trkpt><trkpt lat="43.9798354" lon="12.5664803"><ele>47.5</ele><time>2026-04-19T09:14:50.38Z</time></trkpt><trkpt lat="43.9797925" lon="12.566579"><ele>47.0</ele><time>2026-04-19T09:14:52.377Z</time></trkpt><trkpt lat="43.979708" lon="12.5666267"><ele>46.5</ele><time>2026-04-19T09:15:01.381Z</time></trkpt><trkpt lat="43.9796055" lon="12.5665918"><ele>46.0</ele><time>2026-04-19T09:15:03.381Z</time></trkpt><trkpt lat="43.9795447" lon="12.5665681"><ele>45.5</ele><time>2026-04-19T09:15:04.375Z</time></trkpt><trkpt lat="43.9794822" lon="12.5665522"><ele>45.0</ele><time>2026-04-19T09:15:05.378Z</time></trkpt><trkpt lat="43.9793877" lon="12.5665384"><ele>45.0</ele><time>2026-04-19T09:15:07.376Z</time></trkpt><trkpt lat="43.9793216" lon="12.5665512"><ele>45.0</ele><time>2026-04-19T09:15:10.382Z</time></trkpt><trkpt lat="43.9794283" lon="12.5665956"><ele>45.0</ele><time>2026-04-19T09:15:14.374Z</time></trkpt><trkpt lat="43.979501" lon="12.5666096"><ele>45.0</ele><time>2026-04-19T09:15:15.385Z</time></trkpt><trkpt lat="43.979586" lon="12.5666237"><ele>45.0</ele><time>2026-04-19T09:15:16.379Z</time></trkpt><trkpt lat="43.9796802" lon="12.5666487"><ele>45.0</ele><time>2026-04-19T09:15:17.377Z</time></trkpt><trkpt lat="43.9797775" lon="12.5666922"><ele>45.0</ele><time>2026-04-19T09:15:18.377Z</time></trkpt><trkpt lat="43.9798804" lon="12.5667492"><ele>45.0</ele><time>2026-04-19T09:15:19.378Z</time></trkpt><trkpt lat="43.9799947" lon="12.5668126"><ele>45.0</ele><time>2026-04-19T09:15:20.382Z</time></trkpt><trkpt lat="43.9801058" lon="12.5668748"><ele>45.0</ele><time>2026-04-19T09:15:21.375Z</time></trkpt><trkpt lat="43.9802114" lon="12.5669402"><ele>45.0</ele><time>2026-04-19T09:15:22.381Z</time></trkpt><trkpt lat="43.9803098" lon="12.5670183"><ele>45.0</ele><time>2026-04-19T09:15:23.379Z</time></trkpt><trkpt lat="43.9804011" lon="12.5671032"><ele>45.0</ele><time>2026-04-19T09:15:24.377Z</time></trkpt><trkpt lat="43.9804713" lon="12.5671876"><ele>45.0</ele><time>2026-04-19T09:15:25.378Z</time></trkpt><trkpt lat="43.9805091" lon="12.5672821"><ele>45.0</ele><time>2026-04-19T09:15:26.375Z</time></trkpt><trkpt lat="43.9804818" lon="12.5674229"><ele>45.0</ele><time>2026-04-19T09:15:28.377Z</time></trkpt><trkpt lat="43.9804175" lon="12.5674372"><ele>45.0</ele><time>2026-04-19T09:15:29.388Z</time></trkpt><trkpt lat="43.9803547" lon="12.5674582"><ele>45.0</ele><time>2026-04-19T09:15:30.375Z</time></trkpt><trkpt lat="43.9802855" lon="12.5674932"><ele>45.0</ele><time>2026-04-19T09:15:31.38Z</time></trkpt><trkpt lat="43.9802218" lon="12.5675461"><ele>45.0</ele><time>2026-04-19T09:15:32.38Z</time></trkpt><trkpt lat="43.9801666" lon="12.5676142"><ele>45.0</ele><time>2026-04-19T09:15:33.378Z</time></trkpt><trkpt lat="43.9801234" lon="12.5676922"><ele>45.0</ele><time>2026-04-19T09:15:34.385Z</time></trkpt><trkpt lat="43.9800873" lon="12.567769"><ele>44.666666666666664</ele><time>2026-04-19T09:15:35.382Z</time></trkpt><trkpt lat="43.9800253" lon="12.5678959"><ele>44.333333333333336</ele><time>2026-04-19T09:15:37.378Z</time></trkpt><trkpt lat="43.979912" lon="12.5679487"><ele>44.0</ele><time>2026-04-19T09:15:39.393Z</time></trkpt><trkpt lat="43.9798506" lon="12.5679693"><ele>43.66666666666667</ele><time>2026-04-19T09:15:40.387Z</time></trkpt><trkpt lat="43.9797882" lon="12.5679846"><ele>43.333333333333336</ele><time>2026-04-19T09:15:41.378Z</time></trkpt><trkpt lat="43.9797244" lon="12.5680002"><ele>43.0</ele><time>2026-04-19T09:15:42.38Z</time></trkpt><trkpt lat="43.9796259" lon="12.5680747"><ele>42.0</ele><time>2026-04-19T09:15:44.381Z</time></trkpt><trkpt lat="43.9795589" lon="12.5681955"><ele>41.0</ele><time>2026-04-19T09:15:46.383Z</time></trkpt><trkpt lat="43.9795406" lon="12.5683514"><ele>40.0</ele><time>2026-04-19T09:15:48.377Z</time></trkpt><trkpt lat="43.9795633" lon="12.5684905"><ele>39.0</ele><time>2026-04-19T09:15:50.388Z</time></trkpt><trkpt lat="43.9795656" lon="12.5686069"><ele>38.0</ele><time>2026-04-19T09:15:52.379Z</time></trkpt><trkpt lat="43.9795033" lon="12.5686799"><ele>38.0</ele><time>2026-04-19T09:15:54.387Z</time></trkpt><trkpt lat="43.9794066" lon="12.5687036"><ele>38.0</ele><time>2026-04-19T09:15:56.381Z</time></trkpt><trkpt lat="43.979344" lon="12.5687245"><ele>38.0</ele><time>2026-04-19T09:15:57.382Z</time></trkpt><trkpt lat="43.9792819" lon="12.5687535"><ele>38.0</ele><time>2026-04-19T09:15:58.378Z</time></trkpt><trkpt lat="43.9792143" lon="12.5687901"><ele>38.0</ele><time>2026-04-19T09:15:59.38Z</time></trkpt><trkpt lat="43.9791484" lon="12.5688331"><ele>38.0</ele><time>2026-04-19T09:16:00.381Z</time></trkpt><trkpt lat="43.9790784" lon="12.5688834"><ele>38.166666666666664</ele><time>2026-04-19T09:16:01.378Z</time></trkpt><trkpt lat="43.9790094" lon="12.5689396"><ele>38.33333333333333</ele><time>2026-04-19T09:16:02.38Z</time></trkpt><trkpt lat="43.9789427" lon="12.5689959"><ele>38.5</ele><time>2026-04-19T09:16:03.386Z</time></trkpt><trkpt lat="43.9788742" lon="12.5690552"><ele>38.666666666666664</ele><time>2026-04-19T09:16:04.381Z</time></trkpt><trkpt lat="43.9788067" lon="12.5691016"><ele>38.833333333333336</ele><time>2026-04-19T09:16:05.383Z</time></trkpt><trkpt lat="43.978739" lon="12.569145"><ele>39.0</ele><time>2026-04-19T09:16:06.378Z</time></trkpt><trkpt lat="43.9786729" lon="12.5691952"><ele>39.0</ele><time>2026-04-19T09:16:07.377Z</time></trkpt><trkpt lat="43.9786084" lon="12.5692334"><ele>39.0</ele><time>2026-04-19T09:16:08.382Z</time></trkpt><trkpt lat="43.9785419" lon="12.5692615"><ele>39.0</ele><time>2026-04-19T09:16:09.387Z</time></trkpt><trkpt lat="43.9784837" lon="12.5692962"><ele>39.0</ele><time>2026-04-19T09:16:10.381Z</time></trkpt><trkpt lat="43.9783772" lon="12.5692733"><ele>39.0</ele><time>2026-04-19T09:16:12.379Z</time></trkpt><trkpt lat="43.9783236" lon="12.569164"><ele>39.0</ele><time>2026-04-19T09:16:14.375Z</time></trkpt><trkpt lat="43.978298" lon="12.5690205"><ele>39.2</ele><time>2026-04-19T09:16:16.38Z</time></trkpt><trkpt lat="43.978256" lon="12.5688745"><ele>39.4</ele><time>2026-04-19T09:16:18.383Z</time></trkpt><trkpt lat="43.9781998" lon="12.5687463"><ele>39.6</ele><time>2026-04-19T09:16:20.382Z</time></trkpt><trkpt lat="43.9781676" lon="12.5686243"><ele>39.8</ele><time>2026-04-19T09:16:22.376Z</time></trkpt><trkpt lat="43.9781621" lon="12.5685251"><ele>40.0</ele><time>2026-04-19T09:16:24.38Z</time></trkpt><trkpt lat="43.9781642" lon="12.568424"><ele>40.0</ele><time>2026-04-19T09:16:26.38Z</time></trkpt><trkpt lat="43.9781363" lon="12.5683194"><ele>40.0</ele><time>2026-04-19T09:16:28.387Z</time></trkpt><trkpt lat="43.9780854" lon="12.5682282"><ele>40.0</ele><time>2026-04-19T09:16:30.383Z</time></trkpt><trkpt lat="43.9780143" lon="12.5681333"><ele>40.0</ele><time>2026-04-19T09:16:32.388Z</time></trkpt><trkpt lat="43.9779252" lon="12.5680421"><ele>40.0</ele><time>2026-04-19T09:16:34.378Z</time></trkpt><trkpt lat="43.9778226" lon="12.5679557"><ele>40.4</ele><time>2026-04-19T09:16:36.382Z</time></trkpt><trkpt lat="43.9777156" lon="12.5678581"><ele>40.8</ele><time>2026-04-19T09:16:38.386Z</time></trkpt><trkpt lat="43.9776106" lon="12.5677841"><ele>41.2</ele><time>2026-04-19T09:16:40.379Z</time></trkpt><trkpt lat="43.9775529" lon="12.5677433"><ele>41.6</ele><time>2026-04-19T09:16:41.375Z</time></trkpt><trkpt lat="43.9774466" lon="12.5676655"><ele>42.0</ele><time>2026-04-19T09:16:43.382Z</time></trkpt><trkpt lat="43.9773516" lon="12.5676018"><ele>42.0</ele><time>2026-04-19T09:16:45.375Z</time></trkpt><trkpt lat="43.9772755" lon="12.5675998"><ele>42.0</ele><time>2026-04-19T09:16:47.376Z</time></trkpt><trkpt lat="43.9772138" lon="12.5676602"><ele>42.0</ele><time>2026-04-19T09:16:49.374Z</time></trkpt><trkpt lat="43.9771858" lon="12.5678226"><ele>42.0</ele><time>2026-04-19T09:16:51.386Z</time></trkpt><trkpt lat="43.9771716" lon="12.5679219"><ele>42.0</ele><time>2026-04-19T09:16:52.383Z</time></trkpt><trkpt lat="43.9771596" lon="12.5680104"><ele>42.0</ele><time>2026-04-19T09:16:53.378Z</time></trkpt><trkpt lat="43.9771453" lon="12.5681014"><ele>41.333333333333336</ele><time>2026-04-19T09:16:54.38Z</time></trkpt><trkpt lat="43.9771333" lon="12.5681956"><ele>40.666666666666664</ele><time>2026-04-19T09:16:55.377Z</time></trkpt><trkpt lat="43.9771254" lon="12.5682851"><ele>40.0</ele><time>2026-04-19T09:16:56.381Z</time></trkpt><trkpt lat="43.9771128" lon="12.5684517"><ele>39.33333333333333</ele><time>2026-04-19T09:16:58.383Z</time></trkpt><trkpt lat="43.9771017" lon="12.5685446"><ele>38.666666666666664</ele><time>2026-04-19T09:16:59.386Z</time></trkpt><trkpt lat="43.9770833" lon="12.568638"><ele>38.0</ele><time>2026-04-19T09:17:00.387Z</time></trkpt><trkpt lat="43.9770569" lon="12.5687271"><ele>37.83333333333333</ele><time>2026-04-19T09:17:01.376Z</time></trkpt><trkpt lat="43.9770026" lon="12.5687911"><ele>37.666666666666664</ele><time>2026-04-19T09:17:02.381Z</time></trkpt><trkpt lat="43.9769448" lon="12.5688298"><ele>37.5</ele><time>2026-04-19T09:17:03.382Z</time></trkpt><trkpt lat="43.976842" lon="12.5688894"><ele>37.333333333333336</ele><time>2026-04-19T09:17:05.378Z</time></trkpt><trkpt lat="43.9767583" lon="12.5689563"><ele>37.16666666666667</ele><time>2026-04-19T09:17:07.39Z</time></trkpt><trkpt lat="43.9766872" lon="12.5689899"><ele>37.0</ele><time>2026-04-19T09:17:09.382Z</time></trkpt><trkpt lat="43.9767912" lon="12.5689467"><ele>37.0</ele><time>2026-04-19T09:17:15.382Z</time></trkpt><trkpt lat="43.9768601" lon="12.5688974"><ele>37.0</ele><time>2026-04-19T09:17:16.378Z</time></trkpt><trkpt lat="43.9769341" lon="12.5688397"><ele>37.0</ele><time>2026-04-19T09:17:17.381Z</time></trkpt><trkpt lat="43.9770003" lon="12.5687877"><ele>37.0</ele><time>2026-04-19T09:17:18.379Z</time></trkpt><trkpt lat="43.9770548" lon="12.5687279"><ele>37.0</ele><time>2026-04-19T09:17:19.379Z</time></trkpt><trkpt lat="43.977108" lon="12.5685758"><ele>37.0</ele><time>2026-04-19T09:17:21.379Z</time></trkpt><trkpt lat="43.9770909" lon="12.5684511"><ele>37.2</ele><time>2026-04-19T09:17:23.383Z</time></trkpt><trkpt lat="43.9770153" lon="12.568378"><ele>37.400000000000006</ele><time>2026-04-19T09:17:25.39Z</time></trkpt><trkpt lat="43.9769108" lon="12.5683305"><ele>37.599999999999994</ele><time>2026-04-19T09:17:27.379Z</time></trkpt><trkpt lat="43.9767982" lon="12.5682912"><ele>37.8</ele><time>2026-04-19T09:17:29.377Z</time></trkpt><trkpt lat="43.9766827" lon="12.5682661"><ele>38.0</ele><time>2026-04-19T09:17:31.382Z</time></trkpt><trkpt lat="43.9765588" lon="12.5682635"><ele>38.4</ele><time>2026-04-19T09:17:33.377Z</time></trkpt><trkpt lat="43.9764956" lon="12.5682767"><ele>38.8</ele><time>2026-04-19T09:17:34.381Z</time></trkpt><trkpt lat="43.9763717" lon="12.5683226"><ele>39.2</ele><time>2026-04-19T09:17:36.377Z</time></trkpt><trkpt lat="43.9763068" lon="12.5683533"><ele>39.6</ele><time>2026-04-19T09:17:37.379Z</time></trkpt><trkpt lat="43.9761883" lon="12.5684208"><ele>40.0</ele><time>2026-04-19T09:17:39.381Z</time></trkpt><trkpt lat="43.9760825" lon="12.5685062"><ele>40.0</ele><time>2026-04-19T09:17:41.382Z</time></trkpt><trkpt lat="43.9759801" lon="12.5685865"><ele>40.0</ele><time>2026-04-19T09:17:43.381Z</time></trkpt><trkpt lat="43.9758655" lon="12.5686072"><ele>40.0</ele><time>2026-04-19T09:17:45.378Z</time></trkpt><trkpt lat="43.9757445" lon="12.5685792"><ele>40.0</ele><time>2026-04-19T09:17:47.381Z</time></trkpt><trkpt lat="43.9756815" lon="12.5685657"><ele>40.0</ele><time>2026-04-19T09:17:48.377Z</time></trkpt><trkpt lat="43.9755637" lon="12.5685645"><ele>40.2</ele><time>2026-04-19T09:17:50.382Z</time></trkpt><trkpt lat="43.9754393" lon="12.5685795"><ele>40.4</ele><time>2026-04-19T09:17:52.381Z</time></trkpt><trkpt lat="43.9753199" lon="12.5686279"><ele>40.599999999999994</ele><time>2026-04-19T09:17:54.38Z</time></trkpt><trkpt lat="43.9752558" lon="12.5686703"><ele>40.8</ele><time>2026-04-19T09:17:55.376Z</time></trkpt><trkpt lat="43.9752001" lon="12.568715"><ele>41.0</ele><time>2026-04-19T09:17:56.381Z</time></trkpt><trkpt lat="43.9750854" lon="12.5687835"><ele>41.14285714285714</ele><time>2026-04-19T09:17:58.38Z</time></trkpt><trkpt lat="43.9750247" lon="12.5688176"><ele>41.285714285714285</ele><time>2026-04-19T09:17:59.377Z</time></trkpt><trkpt lat="43.974955" lon="12.5688469"><ele>41.42857142857143</ele><time>2026-04-19T09:18:00.375Z</time></trkpt><trkpt lat="43.9748838" lon="12.5688626"><ele>41.57142857142857</ele><time>2026-04-19T09:18:01.382Z</time></trkpt><trkpt lat="43.9748164" lon="12.5688753"><ele>41.714285714285715</ele><time>2026-04-19T09:18:02.377Z</time></trkpt><trkpt lat="43.9747456" lon="12.5688833"><ele>41.857142857142854</ele><time>2026-04-19T09:18:03.382Z</time></trkpt><trkpt lat="43.9746804" lon="12.5688897"><ele>42.0</ele><time>2026-04-19T09:18:04.374Z</time></trkpt><trkpt lat="43.9746157" lon="12.5688989"><ele>41.714285714285715</ele><time>2026-04-19T09:18:05.376Z</time></trkpt><trkpt lat="43.974544" lon="12.5689035"><ele>41.42857142857143</ele><time>2026-04-19T09:18:06.381Z</time></trkpt><trkpt lat="43.97448" lon="12.5689061"><ele>41.14285714285714</ele><time>2026-04-19T09:18:07.378Z</time></trkpt><trkpt lat="43.9744083" lon="12.568902"><ele>40.85714285714286</ele><time>2026-04-19T09:18:08.379Z</time></trkpt><trkpt lat="43.9743445" lon="12.5689017"><ele>40.57142857142857</ele><time>2026-04-19T09:18:09.378Z</time></trkpt><trkpt lat="43.9742775" lon="12.5688967"><ele>40.285714285714285</ele><time>2026-04-19T09:18:10.374Z</time></trkpt><trkpt lat="43.9742094" lon="12.5688851"><ele>40.0</ele><time>2026-04-19T09:18:11.378Z</time></trkpt><trkpt lat="43.9740995" lon="12.5688764"><ele>40.0</ele><time>2026-04-19T09:18:13.38Z</time></trkpt><trkpt lat="43.9739778" lon="12.5688837"><ele>40.0</ele><time>2026-04-19T09:18:15.377Z</time></trkpt><trkpt lat="43.973874" lon="12.5689149"><ele>40.0</ele><time>2026-04-19T09:18:17.38Z</time></trkpt><trkpt lat="43.97377" lon="12.5689116"><ele>40.0</ele><time>2026-04-19T09:18:19.38Z</time></trkpt><trkpt lat="43.9736597" lon="12.5689052"><ele>40.0</ele><time>2026-04-19T09:18:21.388Z</time></trkpt><trkpt lat="43.973548" lon="12.568899"><ele>40.0</ele><time>2026-04-19T09:18:23.379Z</time></trkpt><trkpt lat="43.9734277" lon="12.5688736"><ele>40.0</ele><time>2026-04-19T09:18:25.379Z</time></trkpt><trkpt lat="43.9733097" lon="12.5688501"><ele>40.0</ele><time>2026-04-19T09:18:27.381Z</time></trkpt><trkpt lat="43.9731942" lon="12.5688258"><ele>40.0</ele><time>2026-04-19T09:18:29.378Z</time></trkpt><trkpt lat="43.9730803" lon="12.5687914"><ele>40.5</ele><time>2026-04-19T09:18:31.381Z</time></trkpt><trkpt lat="43.9729634" lon="12.5687657"><ele>41.0</ele><time>2026-04-19T09:18:33.385Z</time></trkpt><trkpt lat="43.9728516" lon="12.5687315"><ele>41.5</ele><time>2026-04-19T09:18:35.379Z</time></trkpt><trkpt lat="43.9727308" lon="12.5687096"><ele>42.0</ele><time>2026-04-19T09:18:37.376Z</time></trkpt><trkpt lat="43.9726087" lon="12.56871"><ele>41.75</ele><time>2026-04-19T09:18:39.378Z</time></trkpt><trkpt lat="43.9724967" lon="12.5687576"><ele>41.5</ele><time>2026-04-19T09:18:41.384Z</time></trkpt><trkpt lat="43.972395" lon="12.5688394"><ele>41.25</ele><time>2026-04-19T09:18:43.383Z</time></trkpt><trkpt lat="43.9722983" lon="12.5689233"><ele>41.0</ele><time>2026-04-19T09:18:45.378Z</time></trkpt><trkpt lat="43.9721914" lon="12.5690066"><ele>41.0</ele><time>2026-04-19T09:18:47.377Z</time></trkpt><trkpt lat="43.9720994" lon="12.569109"><ele>41.0</ele><time>2026-04-19T09:18:49.382Z</time></trkpt><trkpt lat="43.9720232" lon="12.5692269"><ele>41.0</ele><time>2026-04-19T09:18:51.384Z</time></trkpt><trkpt lat="43.9719653" lon="12.5693594"><ele>41.0</ele><time>2026-04-19T09:18:53.384Z</time></trkpt><trkpt lat="43.9719216" lon="12.5694797"><ele>41.0</ele><time>2026-04-19T09:18:55.382Z</time></trkpt><trkpt lat="43.9718653" lon="12.5695948"><ele>41.4</ele><time>2026-04-19T09:18:57.382Z</time></trkpt><trkpt lat="43.9718104" lon="12.5697083"><ele>41.8</ele><time>2026-04-19T09:18:59.378Z</time></trkpt><trkpt lat="43.9717462" lon="12.5698183"><ele>42.199999999999996</ele><time>2026-04-19T09:19:01.381Z</time></trkpt><trkpt lat="43.9716744" lon="12.5699323"><ele>42.599999999999994</ele><time>2026-04-19T09:19:03.384Z</time></trkpt><trkpt lat="43.9715934" lon="12.5700405"><ele>43.0</ele><time>2026-04-19T09:19:05.377Z</time></trkpt><trkpt lat="43.9714921" lon="12.5701064"><ele>43.75</ele><time>2026-04-19T09:19:07.382Z</time></trkpt><trkpt lat="43.9713899" lon="12.5701983"><ele>44.5</ele><time>2026-04-19T09:19:09.38Z</time></trkpt><trkpt lat="43.9712981" lon="12.5702917"><ele>45.25</ele><time>2026-04-19T09:19:11.391Z</time></trkpt><trkpt lat="43.9712056" lon="12.5703723"><ele>46.0</ele><time>2026-04-19T09:19:13.377Z</time></trkpt><trkpt lat="43.9711077" lon="12.5704345"><ele>46.0</ele><time>2026-04-19T09:19:15.377Z</time></trkpt><trkpt lat="43.9710183" lon="12.5704956"><ele>46.0</ele><time>2026-04-19T09:19:17.387Z</time></trkpt><trkpt lat="43.9709565" lon="12.570566"><ele>46.0</ele><time>2026-04-19T09:19:19.392Z</time></trkpt><trkpt lat="43.9709109" lon="12.5706313"><ele>46.0</ele><time>2026-04-19T09:19:21.38Z</time></trkpt><trkpt lat="43.9709413" lon="12.5707369"><ele>46.0</ele><time>2026-04-19T09:19:23.375Z</time></trkpt><trkpt lat="43.9709827" lon="12.5708038"><ele>46.0</ele><time>2026-04-19T09:19:24.387Z</time></trkpt><trkpt lat="43.9710273" lon="12.5708867"><ele>46.0</ele><time>2026-04-19T09:19:25.377Z</time></trkpt><trkpt lat="43.9710634" lon="12.5709851"><ele>46.0</ele><time>2026-04-19T09:19:26.382Z</time></trkpt><trkpt lat="43.9710705" lon="12.5710939"><ele>46.0</ele><time>2026-04-19T09:19:27.382Z</time></trkpt><trkpt lat="43.9710579" lon="12.5712074"><ele>46.0</ele><time>2026-04-19T09:19:28.382Z</time></trkpt><trkpt lat="43.971045" lon="12.5713172"><ele>46.0</ele><time>2026-04-19T09:19:29.379Z</time></trkpt><trkpt lat="43.9710431" lon="12.5714301"><ele>46.0</ele><time>2026-04-19T09:19:30.378Z</time></trkpt><trkpt lat="43.9710431" lon="12.5715426"><ele>46.333333333333336</ele><time>2026-04-19T09:19:31.378Z</time></trkpt><trkpt lat="43.9710439" lon="12.5716553"><ele>46.66666666666667</ele><time>2026-04-19T09:19:32.382Z</time></trkpt><trkpt lat="43.9710441" lon="12.5717691"><ele>47.0</ele><time>2026-04-19T09:19:33.384Z</time></trkpt><trkpt lat="43.9710424" lon="12.5718874"><ele>47.333333333333336</ele><time>2026-04-19T09:19:34.381Z</time></trkpt><trkpt lat="43.9710409" lon="12.5720103"><ele>47.666666666666664</ele><time>2026-04-19T09:19:35.376Z</time></trkpt><trkpt lat="43.9710384" lon="12.5721344"><ele>48.0</ele><time>2026-04-19T09:19:36.379Z</time></trkpt><trkpt lat="43.9710367" lon="12.5722588"><ele>48.833333333333336</ele><time>2026-04-19T09:19:37.38Z</time></trkpt><trkpt lat="43.9710333" lon="12.5723845"><ele>49.66666666666667</ele><time>2026-04-19T09:19:38.382Z</time></trkpt><trkpt lat="43.9710269" lon="12.5725076"><ele>50.5</ele><time>2026-04-19T09:19:39.38Z</time></trkpt><trkpt lat="43.9710209" lon="12.57263"><ele>51.333333333333336</ele><time>2026-04-19T09:19:40.381Z</time></trkpt><trkpt lat="43.9710115" lon="12.572747"><ele>52.16666666666667</ele><time>2026-04-19T09:19:41.38Z</time></trkpt><trkpt lat="43.9710039" lon="12.5728629"><ele>53.0</ele><time>2026-04-19T09:19:42.378Z</time></trkpt><trkpt lat="43.9709923" lon="12.5729833"><ele>53.333333333333336</ele><time>2026-04-19T09:19:43.385Z</time></trkpt><trkpt lat="43.9709757" lon="12.5731009"><ele>53.66666666666667</ele><time>2026-04-19T09:19:44.381Z</time></trkpt><trkpt lat="43.9709531" lon="12.5732131"><ele>54.0</ele><time>2026-04-19T09:19:45.377Z</time></trkpt><trkpt lat="43.9709281" lon="12.5733248"><ele>54.33333333333333</ele><time>2026-04-19T09:19:46.38Z</time></trkpt><trkpt lat="43.9709042" lon="12.5734413"><ele>54.666666666666664</ele><time>2026-04-19T09:19:47.375Z</time></trkpt><trkpt lat="43.9708782" lon="12.5735603"><ele>55.0</ele><time>2026-04-19T09:19:48.378Z</time></trkpt><trkpt lat="43.970851" lon="12.5736689"><ele>54.99999999999999</ele><time>2026-04-19T09:19:49.385Z</time></trkpt><trkpt lat="43.9708219" lon="12.5737842"><ele>55.0</ele><time>2026-04-19T09:19:50.388Z</time></trkpt><trkpt lat="43.9707917" lon="12.5738905"><ele>55.0</ele><time>2026-04-19T09:19:51.379Z</time></trkpt><trkpt lat="43.9707608" lon="12.5739951"><ele>55.0</ele><time>2026-04-19T09:19:52.381Z</time></trkpt><trkpt lat="43.9707312" lon="12.5740975"><ele>54.99999999999999</ele><time>2026-04-19T09:19:53.375Z</time></trkpt><trkpt lat="43.9707056" lon="12.5741988"><ele>55.0</ele><time>2026-04-19T09:19:54.381Z</time></trkpt><trkpt lat="43.9706786" lon="12.5743011"><ele>54.99999999999999</ele><time>2026-04-19T09:19:55.384Z</time></trkpt><trkpt lat="43.9706564" lon="12.5744043"><ele>55.0</ele><time>2026-04-19T09:19:56.375Z</time></trkpt><trkpt lat="43.9706337" lon="12.5744968"><ele>55.0</ele><time>2026-04-19T09:19:57.378Z</time></trkpt><trkpt lat="43.9706087" lon="12.574579"><ele>55.0</ele><time>2026-04-19T09:19:58.38Z</time></trkpt><trkpt lat="43.9705781" lon="12.574692"><ele>54.99999999999999</ele><time>2026-04-19T09:20:00.385Z</time></trkpt><trkpt lat="43.9705519" lon="12.5748317"><ele>55.0</ele><time>2026-04-19T09:23:40.372Z</time></trkpt><trkpt lat="43.970439" lon="12.5748423"><ele>54.99999999999999</ele><time>2026-04-19T09:23:43.373Z</time></trkpt><trkpt lat="43.970378" lon="12.5748063"><ele>55.0</ele><time>2026-04-19T09:23:44.374Z</time></trkpt><trkpt lat="43.9703063" lon="12.5747597"><ele>55.0</ele><time>2026-04-19T09:23:45.38Z</time></trkpt><trkpt lat="43.9702203" lon="12.5747094"><ele>55.0</ele><time>2026-04-19T09:23:46.382Z</time></trkpt><trkpt lat="43.9701365" lon="12.5746553"><ele>54.99999999999999</ele><time>2026-04-19T09:23:47.381Z</time></trkpt><trkpt lat="43.9700529" lon="12.5746042"><ele>55.0</ele><time>2026-04-19T09:23:48.379Z</time></trkpt><trkpt lat="43.9699774" lon="12.5745619"><ele>55.166666666666664</ele><time>2026-04-19T09:23:49.379Z</time></trkpt><trkpt lat="43.9699174" lon="12.5745268"><ele>55.33333333333333</ele><time>2026-04-19T09:23:50.378Z</time></trkpt><trkpt lat="43.9698372" lon="12.5744622"><ele>55.5</ele><time>2026-04-19T09:23:52.379Z</time></trkpt><trkpt lat="43.9697741" lon="12.5744573"><ele>55.66666666666667</ele><time>2026-04-19T09:23:56.378Z</time></trkpt><trkpt lat="43.9698588" lon="12.5745517"><ele>55.833333333333336</ele><time>2026-04-19T09:23:59.386Z</time></trkpt><trkpt lat="43.9699255" lon="12.5745879"><ele>56.0</ele><time>2026-04-19T09:24:00.374Z</time></trkpt><trkpt lat="43.9700018" lon="12.5746331"><ele>55.8</ele><time>2026-04-19T09:24:01.38Z</time></trkpt><trkpt lat="43.970085" lon="12.5746787"><ele>55.599999999999994</ele><time>2026-04-19T09:24:02.381Z</time></trkpt><trkpt lat="43.970174" lon="12.5747307"><ele>55.4</ele><time>2026-04-19T09:24:03.378Z</time></trkpt><trkpt lat="43.9702684" lon="12.5747825"><ele>55.2</ele><time>2026-04-19T09:24:04.379Z</time></trkpt><trkpt lat="43.9703525" lon="12.5748352"><ele>55.0</ele><time>2026-04-19T09:24:05.373Z</time></trkpt><trkpt lat="43.9704245" lon="12.5748808"><ele>55.0</ele><time>2026-04-19T09:24:06.377Z</time></trkpt><trkpt lat="43.9705046" lon="12.5749629"><ele>55.0</ele><time>2026-04-19T09:24:08.375Z</time></trkpt><trkpt lat="43.9705121" lon="12.575084"><ele>55.0</ele><time>2026-04-19T09:24:10.384Z</time></trkpt><trkpt lat="43.9704711" lon="12.575245"><ele>55.0</ele><time>2026-04-19T09:24:12.377Z</time></trkpt><trkpt lat="43.9704272" lon="12.5754033"><ele>55.0</ele><time>2026-04-19T09:24:14.38Z</time></trkpt><trkpt lat="43.9703989" lon="12.5755389"><ele>55.33333333333333</ele><time>2026-04-19T09:24:16.38Z</time></trkpt><trkpt lat="43.9703809" lon="12.5756545"><ele>55.666666666666664</ele><time>2026-04-19T09:24:18.378Z</time></trkpt><trkpt lat="43.970342" lon="12.5757651"><ele>56.0</ele><time>2026-04-19T09:24:21.377Z</time></trkpt><trkpt lat="43.9703007" lon="12.5758731"><ele>56.33333333333333</ele><time>2026-04-19T09:24:23.384Z</time></trkpt><trkpt lat="43.9702726" lon="12.5759684"><ele>56.666666666666664</ele><time>2026-04-19T09:24:25.377Z</time></trkpt><trkpt lat="43.9702215" lon="12.576021"><ele>57.0</ele><time>2026-04-19T09:24:27.377Z</time></trkpt><trkpt lat="43.970098" lon="12.5759856"><ele>57.8</ele><time>2026-04-19T09:24:29.375Z</time></trkpt><trkpt lat="43.9700154" lon="12.5759463"><ele>58.6</ele><time>2026-04-19T09:24:30.379Z</time></trkpt><trkpt lat="43.9699255" lon="12.5759066"><ele>59.39999999999999</ele><time>2026-04-19T09:24:31.377Z</time></trkpt><trkpt lat="43.9698247" lon="12.5758638"><ele>60.199999999999996</ele><time>2026-04-19T09:24:32.376Z</time></trkpt><trkpt lat="43.9697172" lon="12.575815"><ele>61.0</ele><time>2026-04-19T09:24:33.384Z</time></trkpt><trkpt lat="43.9696051" lon="12.5757609"><ele>61.0</ele><time>2026-04-19T09:24:34.383Z</time></trkpt><trkpt lat="43.9694861" lon="12.5756942"><ele>61.0</ele><time>2026-04-19T09:24:35.38Z</time></trkpt><trkpt lat="43.9693673" lon="12.5756214"><ele>61.0</ele><time>2026-04-19T09:24:36.374Z</time></trkpt><trkpt lat="43.9692482" lon="12.5755381"><ele>61.0</ele><time>2026-04-19T09:24:37.379Z</time></trkpt><trkpt lat="43.9691271" lon="12.5754522"><ele>60.5</ele><time>2026-04-19T09:24:38.38Z</time></trkpt><trkpt lat="43.9690045" lon="12.5753727"><ele>60.0</ele><time>2026-04-19T09:24:39.379Z</time></trkpt><trkpt lat="43.9688766" lon="12.575309"><ele>59.5</ele><time>2026-04-19T09:24:40.38Z</time></trkpt><trkpt lat="43.9687442" lon="12.5752735"><ele>59.0</ele><time>2026-04-19T09:24:41.377Z</time></trkpt><trkpt lat="43.9686098" lon="12.5752522"><ele>59.0</ele><time>2026-04-19T09:24:42.376Z</time></trkpt><trkpt lat="43.9684714" lon="12.5752407"><ele>59.0</ele><time>2026-04-19T09:24:43.378Z</time></trkpt><trkpt lat="43.9683359" lon="12.5752355"><ele>59.0</ele><time>2026-04-19T09:24:44.38Z</time></trkpt><trkpt lat="43.968196" lon="12.575236"><ele>59.0</ele><time>2026-04-19T09:24:45.375Z</time></trkpt><trkpt lat="43.9680561" lon="12.5752333"><ele>60.75</ele><time>2026-04-19T09:24:46.379Z</time></trkpt><trkpt lat="43.9679137" lon="12.5752318"><ele>62.5</ele><time>2026-04-19T09:24:47.375Z</time></trkpt><trkpt lat="43.9677705" lon="12.5752287"><ele>64.25</ele><time>2026-04-19T09:24:48.381Z</time></trkpt><trkpt lat="43.9676252" lon="12.575229"><ele>66.0</ele><time>2026-04-19T09:24:49.374Z</time></trkpt><trkpt lat="43.9674817" lon="12.5752316"><ele>67.75</ele><time>2026-04-19T09:24:50.381Z</time></trkpt><trkpt lat="43.9673381" lon="12.5752292"><ele>69.5</ele><time>2026-04-19T09:24:51.378Z</time></trkpt><trkpt lat="43.9671935" lon="12.5752188"><ele>71.25</ele><time>2026-04-19T09:24:52.376Z</time></trkpt><trkpt lat="43.9670503" lon="12.5751874"><ele>73.0</ele><time>2026-04-19T09:24:53.375Z</time></trkpt><trkpt lat="43.9669109" lon="12.5751369"><ele>73.0</ele><time>2026-04-19T09:24:54.381Z</time></trkpt><trkpt lat="43.9667743" lon="12.575072"><ele>73.0</ele><time>2026-04-19T09:24:55.373Z</time></trkpt><trkpt lat="43.9666374" lon="12.5750011"><ele>73.0</ele><time>2026-04-19T09:24:56.375Z</time></trkpt><trkpt lat="43.9665008" lon="12.5749286"><ele>73.0</ele><time>2026-04-19T09:24:57.374Z</time></trkpt><trkpt lat="43.9663634" lon="12.5748662"><ele>74.25</ele><time>2026-04-19T09:24:58.377Z</time></trkpt><trkpt lat="43.9662258" lon="12.5748181"><ele>75.5</ele><time>2026-04-19T09:24:59.375Z</time></trkpt><trkpt lat="43.9660877" lon="12.5747833"><ele>76.75</ele><time>2026-04-19T09:25:00.375Z</time></trkpt><trkpt lat="43.9659521" lon="12.5747667"><ele>78.0</ele><time>2026-04-19T09:25:01.384Z</time></trkpt><trkpt lat="43.9658123" lon="12.5747677"><ele>80.75</ele><time>2026-04-19T09:25:02.378Z</time></trkpt><trkpt lat="43.9656776" lon="12.574781"><ele>83.5</ele><time>2026-04-19T09:25:03.381Z</time></trkpt><trkpt lat="43.9655468" lon="12.5748036"><ele>86.25</ele><time>2026-04-19T09:25:04.379Z</time></trkpt><trkpt lat="43.965423" lon="12.5748223"><ele>89.0</ele><time>2026-04-19T09:25:05.374Z</time></trkpt><trkpt lat="43.9653095" lon="12.5748347"><ele>89.0</ele><time>2026-04-19T09:25:06.382Z</time></trkpt><trkpt lat="43.9652131" lon="12.5748506"><ele>89.0</ele><time>2026-04-19T09:25:07.377Z</time></trkpt><trkpt lat="43.9651326" lon="12.5748676"><ele>89.0</ele><time>2026-04-19T09:25:08.375Z</time></trkpt><trkpt lat="43.9650549" lon="12.5749424"><ele>89.0</ele><time>2026-04-19T09:25:10.386Z</time></trkpt><trkpt lat="43.9650976" lon="12.5750309"><ele>89.0</ele><time>2026-04-19T09:25:12.376Z</time></trkpt><trkpt lat="43.965183" lon="12.5751426"><ele>88.99999999999999</ele><time>2026-04-19T09:25:14.388Z</time></trkpt><trkpt lat="43.9652641" lon="12.5751848"><ele>89.0</ele><time>2026-04-19T09:25:15.379Z</time></trkpt><trkpt lat="43.965323" lon="12.5752307"><ele>89.0</ele><time>2026-04-19T09:25:16.379Z</time></trkpt><trkpt lat="43.9653799" lon="12.5752853"><ele>89.0</ele><time>2026-04-19T09:25:17.375Z</time></trkpt><trkpt lat="43.9654348" lon="12.5753283"><ele>89.0</ele><time>2026-04-19T09:25:18.377Z</time></trkpt><trkpt lat="43.9655126" lon="12.5753914"><ele>88.99999999999999</ele><time>2026-04-19T09:25:20.375Z</time></trkpt><trkpt lat="43.9655763" lon="12.5754349"><ele>89.0</ele><time>2026-04-19T09:25:23.379Z</time></trkpt><trkpt lat="43.9655043" lon="12.5753424"><ele>89.0</ele><time>2026-04-19T09:25:30.389Z</time></trkpt><trkpt lat="43.9654016" lon="12.5752771"><ele>89.0</ele><time>2026-04-19T09:25:32.377Z</time></trkpt><trkpt lat="43.9652963" lon="12.5752197"><ele>89.0</ele><time>2026-04-19T09:25:34.376Z</time></trkpt><trkpt lat="43.9652032" lon="12.5751444"><ele>89.0</ele><time>2026-04-19T09:25:36.384Z</time></trkpt><trkpt lat="43.9651306" lon="12.5750734"><ele>89.0</ele><time>2026-04-19T09:25:38.373Z</time></trkpt><trkpt lat="43.9650662" lon="12.5750338"><ele>89.0</ele><time>2026-04-19T09:25:41.375Z</time></trkpt><trkpt lat="43.9650825" lon="12.575194"><ele>89.0</ele><time>2026-04-19T09:25:44.38Z</time></trkpt><trkpt lat="43.9651227" lon="12.5753211"><ele>89.0</ele><time>2026-04-19T09:25:46.38Z</time></trkpt><trkpt lat="43.9651596" lon="12.5754615"><ele>89.0</ele><time>2026-04-19T09:25:48.381Z</time></trkpt><trkpt lat="43.9651944" lon="12.5755909"><ele>89.0</ele><time>2026-04-19T09:25:50.383Z</time></trkpt><trkpt lat="43.9652271" lon="12.5757332"><ele>90.33333333333334</ele><time>2026-04-19T09:25:52.379Z</time></trkpt><trkpt lat="43.9652632" lon="12.5758732"><ele>91.66666666666667</ele><time>2026-04-19T09:25:54.377Z</time></trkpt><trkpt lat="43.965289" lon="12.5759998"><ele>93.0</ele><time>2026-04-19T09:25:56.378Z</time></trkpt><trkpt lat="43.9652896" lon="12.5761147"><ele>94.33333333333334</ele><time>2026-04-19T09:25:58.375Z</time></trkpt><trkpt lat="43.9652915" lon="12.575987"><ele>95.66666666666667</ele><time>2026-04-19T09:26:03.388Z</time></trkpt><trkpt lat="43.9652614" lon="12.5759037"><ele>97.0</ele><time>2026-04-19T09:26:04.376Z</time></trkpt><trkpt lat="43.9652344" lon="12.5758028"><ele>97.00000000000001</ele><time>2026-04-19T09:26:05.374Z</time></trkpt><trkpt lat="43.965206" lon="12.575691"><ele>97.0</ele><time>2026-04-19T09:26:06.376Z</time></trkpt><trkpt lat="43.9651722" lon="12.5755763"><ele>97.0</ele><time>2026-04-19T09:26:07.376Z</time></trkpt><trkpt lat="43.9651463" lon="12.5754698"><ele>97.0</ele><time>2026-04-19T09:26:08.38Z</time></trkpt><trkpt lat="43.9651213" lon="12.5753752"><ele>97.00000000000001</ele><time>2026-04-19T09:26:09.38Z</time></trkpt><trkpt lat="43.9651027" lon="12.5752841"><ele>97.0</ele><time>2026-04-19T09:26:10.38Z</time></trkpt><trkpt lat="43.9650739" lon="12.5751348"><ele>89.0</ele><time>2026-04-19T09:26:12.38Z</time></trkpt><trkpt lat="43.9650585" lon="12.5750305"><ele>89.0</ele><time>2026-04-19T09:26:14.373Z</time></trkpt><trkpt lat="43.9650222" lon="12.5749557"><ele>93.0</ele><time>2026-04-19T09:26:16.374Z</time></trkpt><trkpt lat="43.9649459" lon="12.5749227"><ele>93.0</ele><time>2026-04-19T09:26:18.379Z</time></trkpt><trkpt lat="43.964876" lon="12.5749155"><ele>93.0</ele><time>2026-04-19T09:26:21.381Z</time></trkpt></trkseg></trk></gpx>